<?xml version="1.0" encoding="UTF-8" standalone="no" ?>
<gpx xmlns="http://www.topografix.com/GPX/1/1" xmlns:xsi="http://www.w3.org/2001/XMLSchema-instance" xsi:schemaLocation="http://www.topografix.com/GPX/1/1 http://www.topografix.com/GPX/1/1/gpx.xsd" version="1.1" creator="VisuGPX - https://www.visugpx.com">
  <metadata>
    <name>marche IVV Willerwald</name>
    <desc><![CDATA[circuit de 20 km]]></desc>
  </metadata>
  <trk>
    <name><![CDATA[001-2013/03/24-09:00:17]]></name>
    <trkseg>
      <trkpt lat="49.02577" lon="7.03049">
        <ele>229</ele>
        <time>2013-03-24T08:00:17Z</time>
      </trkpt>
      <trkpt lat="49.0259" lon="7.03086">
        <ele>226</ele>
        <time>2013-03-24T08:01:33Z</time>
      </trkpt>
      <trkpt lat="49.02593" lon="7.03099">
        <ele>225</ele>
        <time>2013-03-24T08:01:39Z</time>
      </trkpt>
      <trkpt lat="49.02595" lon="7.03112">
        <ele>224</ele>
        <time>2013-03-24T08:01:45Z</time>
      </trkpt>
      <trkpt lat="49.02597" lon="7.03126">
        <ele>224</ele>
        <time>2013-03-24T08:01:51Z</time>
      </trkpt>
      <trkpt lat="49.02601" lon="7.0314">
        <ele>223</ele>
        <time>2013-03-24T08:01:57Z</time>
      </trkpt>
      <trkpt lat="49.02605" lon="7.03153">
        <ele>223</ele>
        <time>2013-03-24T08:02:03Z</time>
      </trkpt>
      <trkpt lat="49.02608" lon="7.03165">
        <ele>223</ele>
        <time>2013-03-24T08:02:09Z</time>
      </trkpt>
      <trkpt lat="49.02612" lon="7.03177">
        <ele>223</ele>
        <time>2013-03-24T08:02:15Z</time>
      </trkpt>
      <trkpt lat="49.02613" lon="7.03193">
        <ele>223</ele>
        <time>2013-03-24T08:02:22Z</time>
      </trkpt>
      <trkpt lat="49.02616" lon="7.03207">
        <ele>223</ele>
        <time>2013-03-24T08:02:28Z</time>
      </trkpt>
      <trkpt lat="49.02618" lon="7.03221">
        <ele>223</ele>
        <time>2013-03-24T08:02:34Z</time>
      </trkpt>
      <trkpt lat="49.02621" lon="7.03235">
        <ele>223</ele>
        <time>2013-03-24T08:02:40Z</time>
      </trkpt>
      <trkpt lat="49.02623" lon="7.0325">
        <ele>223</ele>
        <time>2013-03-24T08:02:46Z</time>
      </trkpt>
      <trkpt lat="49.02628" lon="7.03262">
        <ele>223</ele>
        <time>2013-03-24T08:02:52Z</time>
      </trkpt>
      <trkpt lat="49.02634" lon="7.03273">
        <ele>223</ele>
        <time>2013-03-24T08:02:58Z</time>
      </trkpt>
      <trkpt lat="49.02635" lon="7.03285">
        <ele>223</ele>
        <time>2013-03-24T08:03:11Z</time>
      </trkpt>
      <trkpt lat="49.02635" lon="7.03287">
        <ele>223</ele>
        <time>2013-03-24T08:03:28Z</time>
      </trkpt>
      <trkpt lat="49.02637" lon="7.03297">
        <ele>223</ele>
        <time>2013-03-24T08:03:34Z</time>
      </trkpt>
      <trkpt lat="49.02638" lon="7.03312">
        <ele>223</ele>
        <time>2013-03-24T08:03:40Z</time>
      </trkpt>
      <trkpt lat="49.02639" lon="7.03327">
        <ele>223</ele>
        <time>2013-03-24T08:03:46Z</time>
      </trkpt>
      <trkpt lat="49.02642" lon="7.03341">
        <ele>223</ele>
        <time>2013-03-24T08:03:52Z</time>
      </trkpt>
      <trkpt lat="49.02644" lon="7.03354">
        <ele>223</ele>
        <time>2013-03-24T08:03:58Z</time>
      </trkpt>
      <trkpt lat="49.02646" lon="7.03367">
        <ele>223</ele>
        <time>2013-03-24T08:04:04Z</time>
      </trkpt>
      <trkpt lat="49.02649" lon="7.0338">
        <ele>224</ele>
        <time>2013-03-24T08:04:10Z</time>
      </trkpt>
      <trkpt lat="49.02651" lon="7.03393">
        <ele>225</ele>
        <time>2013-03-24T08:04:16Z</time>
      </trkpt>
      <trkpt lat="49.02654" lon="7.03405">
        <ele>225</ele>
        <time>2013-03-24T08:04:22Z</time>
      </trkpt>
      <trkpt lat="49.02657" lon="7.03417">
        <ele>226</ele>
        <time>2013-03-24T08:04:28Z</time>
      </trkpt>
      <trkpt lat="49.0266" lon="7.0343">
        <ele>227</ele>
        <time>2013-03-24T08:04:34Z</time>
      </trkpt>
      <trkpt lat="49.02662" lon="7.03442">
        <ele>227</ele>
        <time>2013-03-24T08:04:40Z</time>
      </trkpt>
      <trkpt lat="49.02666" lon="7.03455">
        <ele>228</ele>
        <time>2013-03-24T08:04:46Z</time>
      </trkpt>
      <trkpt lat="49.02668" lon="7.03467">
        <ele>230</ele>
        <time>2013-03-24T08:04:52Z</time>
      </trkpt>
      <trkpt lat="49.02672" lon="7.0348">
        <ele>231</ele>
        <time>2013-03-24T08:04:58Z</time>
      </trkpt>
      <trkpt lat="49.02676" lon="7.03492">
        <ele>233</ele>
        <time>2013-03-24T08:05:04Z</time>
      </trkpt>
      <trkpt lat="49.02677" lon="7.03505">
        <ele>235</ele>
        <time>2013-03-24T08:05:10Z</time>
      </trkpt>
      <trkpt lat="49.02681" lon="7.03517">
        <ele>235</ele>
        <time>2013-03-24T08:05:16Z</time>
      </trkpt>
      <trkpt lat="49.02683" lon="7.03531">
        <ele>236</ele>
        <time>2013-03-24T08:05:22Z</time>
      </trkpt>
      <trkpt lat="49.02685" lon="7.03544">
        <ele>237</ele>
        <time>2013-03-24T08:05:28Z</time>
      </trkpt>
      <trkpt lat="49.02686" lon="7.03557">
        <ele>237</ele>
        <time>2013-03-24T08:05:34Z</time>
      </trkpt>
      <trkpt lat="49.02684" lon="7.0357">
        <ele>237</ele>
        <time>2013-03-24T08:05:40Z</time>
      </trkpt>
      <trkpt lat="49.0268" lon="7.0358">
        <ele>237</ele>
        <time>2013-03-24T08:05:46Z</time>
      </trkpt>
      <trkpt lat="49.02678" lon="7.03593">
        <ele>237</ele>
        <time>2013-03-24T08:05:52Z</time>
      </trkpt>
      <trkpt lat="49.0267" lon="7.03601">
        <ele>237</ele>
        <time>2013-03-24T08:05:59Z</time>
      </trkpt>
      <trkpt lat="49.02662" lon="7.03604">
        <ele>237</ele>
        <time>2013-03-24T08:06:05Z</time>
      </trkpt>
      <trkpt lat="49.02654" lon="7.03608">
        <ele>237</ele>
        <time>2013-03-24T08:06:11Z</time>
      </trkpt>
      <trkpt lat="49.02645" lon="7.03615">
        <ele>237</ele>
        <time>2013-03-24T08:06:17Z</time>
      </trkpt>
      <trkpt lat="49.02636" lon="7.03621">
        <ele>237</ele>
        <time>2013-03-24T08:06:23Z</time>
      </trkpt>
      <trkpt lat="49.02628" lon="7.03624">
        <ele>237</ele>
        <time>2013-03-24T08:06:29Z</time>
      </trkpt>
      <trkpt lat="49.02619" lon="7.03628">
        <ele>237</ele>
        <time>2013-03-24T08:06:36Z</time>
      </trkpt>
      <trkpt lat="49.02611" lon="7.03631">
        <ele>237</ele>
        <time>2013-03-24T08:06:42Z</time>
      </trkpt>
      <trkpt lat="49.02603" lon="7.03634">
        <ele>237</ele>
        <time>2013-03-24T08:06:48Z</time>
      </trkpt>
      <trkpt lat="49.02595" lon="7.03638">
        <ele>237</ele>
        <time>2013-03-24T08:06:54Z</time>
      </trkpt>
      <trkpt lat="49.02586" lon="7.03641">
        <ele>237</ele>
        <time>2013-03-24T08:07:00Z</time>
      </trkpt>
      <trkpt lat="49.02578" lon="7.03645">
        <ele>237</ele>
        <time>2013-03-24T08:07:06Z</time>
      </trkpt>
      <trkpt lat="49.0257" lon="7.0365">
        <ele>237</ele>
        <time>2013-03-24T08:07:12Z</time>
      </trkpt>
      <trkpt lat="49.02562" lon="7.03654">
        <ele>237</ele>
        <time>2013-03-24T08:07:18Z</time>
      </trkpt>
      <trkpt lat="49.02552" lon="7.03659">
        <ele>237</ele>
        <time>2013-03-24T08:07:25Z</time>
      </trkpt>
      <trkpt lat="49.02544" lon="7.03662">
        <ele>237</ele>
        <time>2013-03-24T08:07:31Z</time>
      </trkpt>
      <trkpt lat="49.02535" lon="7.03665">
        <ele>236</ele>
        <time>2013-03-24T08:07:37Z</time>
      </trkpt>
      <trkpt lat="49.02527" lon="7.03669">
        <ele>236</ele>
        <time>2013-03-24T08:07:43Z</time>
      </trkpt>
      <trkpt lat="49.02518" lon="7.03672">
        <ele>235</ele>
        <time>2013-03-24T08:07:49Z</time>
      </trkpt>
      <trkpt lat="49.02509" lon="7.03676">
        <ele>234</ele>
        <time>2013-03-24T08:07:55Z</time>
      </trkpt>
      <trkpt lat="49.025" lon="7.0368">
        <ele>234</ele>
        <time>2013-03-24T08:08:01Z</time>
      </trkpt>
      <trkpt lat="49.02491" lon="7.03683">
        <ele>234</ele>
        <time>2013-03-24T08:08:07Z</time>
      </trkpt>
      <trkpt lat="49.02483" lon="7.03686">
        <ele>234</ele>
        <time>2013-03-24T08:08:13Z</time>
      </trkpt>
      <trkpt lat="49.02474" lon="7.03692">
        <ele>233</ele>
        <time>2013-03-24T08:08:19Z</time>
      </trkpt>
      <trkpt lat="49.02465" lon="7.03698">
        <ele>233</ele>
        <time>2013-03-24T08:08:25Z</time>
      </trkpt>
      <trkpt lat="49.02455" lon="7.03705">
        <ele>233</ele>
        <time>2013-03-24T08:08:31Z</time>
      </trkpt>
      <trkpt lat="49.02446" lon="7.03709">
        <ele>233</ele>
        <time>2013-03-24T08:08:37Z</time>
      </trkpt>
      <trkpt lat="49.02437" lon="7.03712">
        <ele>233</ele>
        <time>2013-03-24T08:08:43Z</time>
      </trkpt>
      <trkpt lat="49.02428" lon="7.03716">
        <ele>233</ele>
        <time>2013-03-24T08:08:49Z</time>
      </trkpt>
      <trkpt lat="49.02419" lon="7.0372">
        <ele>233</ele>
        <time>2013-03-24T08:08:55Z</time>
      </trkpt>
      <trkpt lat="49.0241" lon="7.03724">
        <ele>233</ele>
        <time>2013-03-24T08:09:01Z</time>
      </trkpt>
      <trkpt lat="49.02401" lon="7.03727">
        <ele>233</ele>
        <time>2013-03-24T08:09:07Z</time>
      </trkpt>
      <trkpt lat="49.02392" lon="7.03733">
        <ele>233</ele>
        <time>2013-03-24T08:09:13Z</time>
      </trkpt>
      <trkpt lat="49.02384" lon="7.03739">
        <ele>233</ele>
        <time>2013-03-24T08:09:19Z</time>
      </trkpt>
      <trkpt lat="49.02382" lon="7.03751">
        <ele>233</ele>
        <time>2013-03-24T08:09:25Z</time>
      </trkpt>
      <trkpt lat="49.02385" lon="7.03764">
        <ele>233</ele>
        <time>2013-03-24T08:09:31Z</time>
      </trkpt>
      <trkpt lat="49.02387" lon="7.03777">
        <ele>233</ele>
        <time>2013-03-24T08:09:37Z</time>
      </trkpt>
      <trkpt lat="49.0239" lon="7.0379">
        <ele>233</ele>
        <time>2013-03-24T08:09:43Z</time>
      </trkpt>
      <trkpt lat="49.02395" lon="7.03802">
        <ele>233</ele>
        <time>2013-03-24T08:09:49Z</time>
      </trkpt>
      <trkpt lat="49.02398" lon="7.03815">
        <ele>233</ele>
        <time>2013-03-24T08:09:55Z</time>
      </trkpt>
      <trkpt lat="49.02402" lon="7.03827">
        <ele>232</ele>
        <time>2013-03-24T08:10:01Z</time>
      </trkpt>
      <trkpt lat="49.02406" lon="7.0384">
        <ele>232</ele>
        <time>2013-03-24T08:10:07Z</time>
      </trkpt>
      <trkpt lat="49.02409" lon="7.03854">
        <ele>232</ele>
        <time>2013-03-24T08:10:13Z</time>
      </trkpt>
      <trkpt lat="49.02412" lon="7.03867">
        <ele>231</ele>
        <time>2013-03-24T08:10:19Z</time>
      </trkpt>
      <trkpt lat="49.02415" lon="7.03881">
        <ele>230</ele>
        <time>2013-03-24T08:10:25Z</time>
      </trkpt>
      <trkpt lat="49.02418" lon="7.03895">
        <ele>230</ele>
        <time>2013-03-24T08:10:31Z</time>
      </trkpt>
      <trkpt lat="49.02421" lon="7.03909">
        <ele>230</ele>
        <time>2013-03-24T08:10:37Z</time>
      </trkpt>
      <trkpt lat="49.02425" lon="7.03922">
        <ele>230</ele>
        <time>2013-03-24T08:10:43Z</time>
      </trkpt>
      <trkpt lat="49.02429" lon="7.03936">
        <ele>230</ele>
        <time>2013-03-24T08:10:49Z</time>
      </trkpt>
      <trkpt lat="49.02433" lon="7.03949">
        <ele>229</ele>
        <time>2013-03-24T08:10:55Z</time>
      </trkpt>
      <trkpt lat="49.02434" lon="7.03963">
        <ele>229</ele>
        <time>2013-03-24T08:11:01Z</time>
      </trkpt>
      <trkpt lat="49.02437" lon="7.03978">
        <ele>228</ele>
        <time>2013-03-24T08:11:07Z</time>
      </trkpt>
      <trkpt lat="49.02441" lon="7.03991">
        <ele>227</ele>
        <time>2013-03-24T08:11:13Z</time>
      </trkpt>
      <trkpt lat="49.02445" lon="7.04005">
        <ele>227</ele>
        <time>2013-03-24T08:11:19Z</time>
      </trkpt>
      <trkpt lat="49.02447" lon="7.04018">
        <ele>226</ele>
        <time>2013-03-24T08:11:25Z</time>
      </trkpt>
      <trkpt lat="49.02451" lon="7.04032">
        <ele>226</ele>
        <time>2013-03-24T08:11:31Z</time>
      </trkpt>
      <trkpt lat="49.02455" lon="7.04045">
        <ele>226</ele>
        <time>2013-03-24T08:11:37Z</time>
      </trkpt>
      <trkpt lat="49.02458" lon="7.0406">
        <ele>226</ele>
        <time>2013-03-24T08:11:43Z</time>
      </trkpt>
      <trkpt lat="49.02461" lon="7.04074">
        <ele>225</ele>
        <time>2013-03-24T08:11:49Z</time>
      </trkpt>
      <trkpt lat="49.02463" lon="7.04088">
        <ele>224</ele>
        <time>2013-03-24T08:11:55Z</time>
      </trkpt>
      <trkpt lat="49.02466" lon="7.04103">
        <ele>224</ele>
        <time>2013-03-24T08:12:01Z</time>
      </trkpt>
      <trkpt lat="49.02469" lon="7.04117">
        <ele>223</ele>
        <time>2013-03-24T08:12:07Z</time>
      </trkpt>
      <trkpt lat="49.02472" lon="7.04131">
        <ele>222</ele>
        <time>2013-03-24T08:12:13Z</time>
      </trkpt>
      <trkpt lat="49.02475" lon="7.04146">
        <ele>222</ele>
        <time>2013-03-24T08:12:19Z</time>
      </trkpt>
      <trkpt lat="49.02478" lon="7.0416">
        <ele>221</ele>
        <time>2013-03-24T08:12:25Z</time>
      </trkpt>
      <trkpt lat="49.02481" lon="7.04174">
        <ele>220</ele>
        <time>2013-03-24T08:12:31Z</time>
      </trkpt>
      <trkpt lat="49.02484" lon="7.04188">
        <ele>220</ele>
        <time>2013-03-24T08:12:37Z</time>
      </trkpt>
      <trkpt lat="49.02487" lon="7.04202">
        <ele>220</ele>
        <time>2013-03-24T08:12:43Z</time>
      </trkpt>
      <trkpt lat="49.02491" lon="7.04215">
        <ele>219</ele>
        <time>2013-03-24T08:12:49Z</time>
      </trkpt>
      <trkpt lat="49.02494" lon="7.04229">
        <ele>219</ele>
        <time>2013-03-24T08:12:55Z</time>
      </trkpt>
      <trkpt lat="49.02497" lon="7.04243">
        <ele>219</ele>
        <time>2013-03-24T08:13:01Z</time>
      </trkpt>
      <trkpt lat="49.02501" lon="7.04257">
        <ele>219</ele>
        <time>2013-03-24T08:13:07Z</time>
      </trkpt>
      <trkpt lat="49.02504" lon="7.04269">
        <ele>219</ele>
        <time>2013-03-24T08:13:13Z</time>
      </trkpt>
      <trkpt lat="49.02507" lon="7.04283">
        <ele>219</ele>
        <time>2013-03-24T08:13:19Z</time>
      </trkpt>
      <trkpt lat="49.02511" lon="7.04297">
        <ele>219</ele>
        <time>2013-03-24T08:13:25Z</time>
      </trkpt>
      <trkpt lat="49.02514" lon="7.04311">
        <ele>219</ele>
        <time>2013-03-24T08:13:31Z</time>
      </trkpt>
      <trkpt lat="49.02517" lon="7.04325">
        <ele>219</ele>
        <time>2013-03-24T08:13:37Z</time>
      </trkpt>
      <trkpt lat="49.0252" lon="7.04339">
        <ele>219</ele>
        <time>2013-03-24T08:13:43Z</time>
      </trkpt>
      <trkpt lat="49.02523" lon="7.04353">
        <ele>219</ele>
        <time>2013-03-24T08:13:49Z</time>
      </trkpt>
      <trkpt lat="49.02526" lon="7.04366">
        <ele>219</ele>
        <time>2013-03-24T08:13:55Z</time>
      </trkpt>
      <trkpt lat="49.02529" lon="7.0438">
        <ele>219</ele>
        <time>2013-03-24T08:14:01Z</time>
      </trkpt>
      <trkpt lat="49.02533" lon="7.04393">
        <ele>219</ele>
        <time>2013-03-24T08:14:07Z</time>
      </trkpt>
      <trkpt lat="49.02535" lon="7.04406">
        <ele>219</ele>
        <time>2013-03-24T08:14:13Z</time>
      </trkpt>
      <trkpt lat="49.02539" lon="7.04418">
        <ele>219</ele>
        <time>2013-03-24T08:14:19Z</time>
      </trkpt>
      <trkpt lat="49.02543" lon="7.04431">
        <ele>219</ele>
        <time>2013-03-24T08:14:25Z</time>
      </trkpt>
      <trkpt lat="49.02547" lon="7.04445">
        <ele>219</ele>
        <time>2013-03-24T08:14:31Z</time>
      </trkpt>
      <trkpt lat="49.02549" lon="7.04458">
        <ele>219</ele>
        <time>2013-03-24T08:14:37Z</time>
      </trkpt>
      <trkpt lat="49.02553" lon="7.04471">
        <ele>219</ele>
        <time>2013-03-24T08:14:43Z</time>
      </trkpt>
      <trkpt lat="49.02556" lon="7.04485">
        <ele>219</ele>
        <time>2013-03-24T08:14:49Z</time>
      </trkpt>
      <trkpt lat="49.02559" lon="7.04499">
        <ele>219</ele>
        <time>2013-03-24T08:14:55Z</time>
      </trkpt>
      <trkpt lat="49.02561" lon="7.04512">
        <ele>219</ele>
        <time>2013-03-24T08:15:01Z</time>
      </trkpt>
      <trkpt lat="49.02563" lon="7.04526">
        <ele>219</ele>
        <time>2013-03-24T08:15:07Z</time>
      </trkpt>
      <trkpt lat="49.02566" lon="7.04539">
        <ele>218</ele>
        <time>2013-03-24T08:15:13Z</time>
      </trkpt>
      <trkpt lat="49.02569" lon="7.04553">
        <ele>218</ele>
        <time>2013-03-24T08:15:19Z</time>
      </trkpt>
      <trkpt lat="49.02571" lon="7.04568">
        <ele>218</ele>
        <time>2013-03-24T08:15:25Z</time>
      </trkpt>
      <trkpt lat="49.02572" lon="7.04582">
        <ele>218</ele>
        <time>2013-03-24T08:15:31Z</time>
      </trkpt>
      <trkpt lat="49.02572" lon="7.04596">
        <ele>218</ele>
        <time>2013-03-24T08:15:37Z</time>
      </trkpt>
      <trkpt lat="49.0257" lon="7.0461">
        <ele>218</ele>
        <time>2013-03-24T08:15:43Z</time>
      </trkpt>
      <trkpt lat="49.02568" lon="7.04624">
        <ele>218</ele>
        <time>2013-03-24T08:15:49Z</time>
      </trkpt>
      <trkpt lat="49.02566" lon="7.04638">
        <ele>218</ele>
        <time>2013-03-24T08:15:55Z</time>
      </trkpt>
      <trkpt lat="49.02562" lon="7.04651">
        <ele>217</ele>
        <time>2013-03-24T08:16:01Z</time>
      </trkpt>
      <trkpt lat="49.02557" lon="7.04664">
        <ele>217</ele>
        <time>2013-03-24T08:16:07Z</time>
      </trkpt>
      <trkpt lat="49.0255" lon="7.04675">
        <ele>217</ele>
        <time>2013-03-24T08:16:13Z</time>
      </trkpt>
      <trkpt lat="49.02543" lon="7.04684">
        <ele>217</ele>
        <time>2013-03-24T08:16:19Z</time>
      </trkpt>
      <trkpt lat="49.02537" lon="7.04695">
        <ele>216</ele>
        <time>2013-03-24T08:16:25Z</time>
      </trkpt>
      <trkpt lat="49.02531" lon="7.04705">
        <ele>216</ele>
        <time>2013-03-24T08:16:31Z</time>
      </trkpt>
      <trkpt lat="49.02526" lon="7.04718">
        <ele>216</ele>
        <time>2013-03-24T08:16:37Z</time>
      </trkpt>
      <trkpt lat="49.0252" lon="7.04729">
        <ele>216</ele>
        <time>2013-03-24T08:16:43Z</time>
      </trkpt>
      <trkpt lat="49.02514" lon="7.04739">
        <ele>216</ele>
        <time>2013-03-24T08:16:49Z</time>
      </trkpt>
      <trkpt lat="49.02508" lon="7.04749">
        <ele>215</ele>
        <time>2013-03-24T08:16:55Z</time>
      </trkpt>
      <trkpt lat="49.02502" lon="7.0476">
        <ele>215</ele>
        <time>2013-03-24T08:17:01Z</time>
      </trkpt>
      <trkpt lat="49.02496" lon="7.0477">
        <ele>215</ele>
        <time>2013-03-24T08:17:07Z</time>
      </trkpt>
      <trkpt lat="49.0249" lon="7.0478">
        <ele>215</ele>
        <time>2013-03-24T08:17:13Z</time>
      </trkpt>
      <trkpt lat="49.02484" lon="7.04792">
        <ele>215</ele>
        <time>2013-03-24T08:17:19Z</time>
      </trkpt>
      <trkpt lat="49.02477" lon="7.04804">
        <ele>215</ele>
        <time>2013-03-24T08:17:25Z</time>
      </trkpt>
      <trkpt lat="49.02472" lon="7.04814">
        <ele>215</ele>
        <time>2013-03-24T08:17:31Z</time>
      </trkpt>
      <trkpt lat="49.02465" lon="7.04825">
        <ele>215</ele>
        <time>2013-03-24T08:17:37Z</time>
      </trkpt>
      <trkpt lat="49.02459" lon="7.04836">
        <ele>215</ele>
        <time>2013-03-24T08:17:43Z</time>
      </trkpt>
      <trkpt lat="49.02453" lon="7.04846">
        <ele>215</ele>
        <time>2013-03-24T08:17:49Z</time>
      </trkpt>
      <trkpt lat="49.02447" lon="7.04858">
        <ele>215</ele>
        <time>2013-03-24T08:17:55Z</time>
      </trkpt>
      <trkpt lat="49.02441" lon="7.04869">
        <ele>215</ele>
        <time>2013-03-24T08:18:01Z</time>
      </trkpt>
      <trkpt lat="49.02434" lon="7.0488">
        <ele>215</ele>
        <time>2013-03-24T08:18:07Z</time>
      </trkpt>
      <trkpt lat="49.02428" lon="7.0489">
        <ele>215</ele>
        <time>2013-03-24T08:18:13Z</time>
      </trkpt>
      <trkpt lat="49.02422" lon="7.04901">
        <ele>215</ele>
        <time>2013-03-24T08:18:19Z</time>
      </trkpt>
      <trkpt lat="49.02416" lon="7.04912">
        <ele>215</ele>
        <time>2013-03-24T08:18:25Z</time>
      </trkpt>
      <trkpt lat="49.0241" lon="7.04922">
        <ele>215</ele>
        <time>2013-03-24T08:18:31Z</time>
      </trkpt>
      <trkpt lat="49.02404" lon="7.04932">
        <ele>215</ele>
        <time>2013-03-24T08:18:37Z</time>
      </trkpt>
      <trkpt lat="49.02398" lon="7.04941">
        <ele>215</ele>
        <time>2013-03-24T08:18:43Z</time>
      </trkpt>
      <trkpt lat="49.02393" lon="7.04953">
        <ele>215</ele>
        <time>2013-03-24T08:18:49Z</time>
      </trkpt>
      <trkpt lat="49.02386" lon="7.04964">
        <ele>215</ele>
        <time>2013-03-24T08:18:55Z</time>
      </trkpt>
      <trkpt lat="49.0238" lon="7.04974">
        <ele>215</ele>
        <time>2013-03-24T08:19:01Z</time>
      </trkpt>
      <trkpt lat="49.02374" lon="7.04985">
        <ele>215</ele>
        <time>2013-03-24T08:19:07Z</time>
      </trkpt>
      <trkpt lat="49.02369" lon="7.04996">
        <ele>215</ele>
        <time>2013-03-24T08:19:13Z</time>
      </trkpt>
      <trkpt lat="49.02362" lon="7.05007">
        <ele>215</ele>
        <time>2013-03-24T08:19:19Z</time>
      </trkpt>
      <trkpt lat="49.02356" lon="7.05018">
        <ele>215</ele>
        <time>2013-03-24T08:19:25Z</time>
      </trkpt>
      <trkpt lat="49.02349" lon="7.05028">
        <ele>215</ele>
        <time>2013-03-24T08:19:31Z</time>
      </trkpt>
      <trkpt lat="49.02342" lon="7.05039">
        <ele>215</ele>
        <time>2013-03-24T08:19:37Z</time>
      </trkpt>
      <trkpt lat="49.02334" lon="7.05047">
        <ele>215</ele>
        <time>2013-03-24T08:19:43Z</time>
      </trkpt>
      <trkpt lat="49.02326" lon="7.05055">
        <ele>215</ele>
        <time>2013-03-24T08:19:49Z</time>
      </trkpt>
      <trkpt lat="49.02318" lon="7.05063">
        <ele>215</ele>
        <time>2013-03-24T08:19:55Z</time>
      </trkpt>
      <trkpt lat="49.02309" lon="7.0507">
        <ele>215</ele>
        <time>2013-03-24T08:20:01Z</time>
      </trkpt>
      <trkpt lat="49.023" lon="7.05076">
        <ele>215</ele>
        <time>2013-03-24T08:20:07Z</time>
      </trkpt>
      <trkpt lat="49.02291" lon="7.05081">
        <ele>215</ele>
        <time>2013-03-24T08:20:13Z</time>
      </trkpt>
      <trkpt lat="49.02282" lon="7.05085">
        <ele>215</ele>
        <time>2013-03-24T08:20:19Z</time>
      </trkpt>
      <trkpt lat="49.02272" lon="7.05089">
        <ele>214</ele>
        <time>2013-03-24T08:20:25Z</time>
      </trkpt>
      <trkpt lat="49.02263" lon="7.05092">
        <ele>213</ele>
        <time>2013-03-24T08:20:31Z</time>
      </trkpt>
      <trkpt lat="49.02254" lon="7.05095">
        <ele>213</ele>
        <time>2013-03-24T08:20:37Z</time>
      </trkpt>
      <trkpt lat="49.02245" lon="7.05098">
        <ele>213</ele>
        <time>2013-03-24T08:20:43Z</time>
      </trkpt>
      <trkpt lat="49.02237" lon="7.05103">
        <ele>213</ele>
        <time>2013-03-24T08:20:49Z</time>
      </trkpt>
      <trkpt lat="49.02229" lon="7.05113">
        <ele>213</ele>
        <time>2013-03-24T08:20:55Z</time>
      </trkpt>
      <trkpt lat="49.02224" lon="7.05126">
        <ele>213</ele>
        <time>2013-03-24T08:21:01Z</time>
      </trkpt>
      <trkpt lat="49.0222" lon="7.05139">
        <ele>213</ele>
        <time>2013-03-24T08:21:07Z</time>
      </trkpt>
      <trkpt lat="49.02218" lon="7.05154">
        <ele>213</ele>
        <time>2013-03-24T08:21:13Z</time>
      </trkpt>
      <trkpt lat="49.02217" lon="7.05169">
        <ele>213</ele>
        <time>2013-03-24T08:21:19Z</time>
      </trkpt>
      <trkpt lat="49.02217" lon="7.05184">
        <ele>213</ele>
        <time>2013-03-24T08:21:25Z</time>
      </trkpt>
      <trkpt lat="49.02215" lon="7.05198">
        <ele>214</ele>
        <time>2013-03-24T08:21:31Z</time>
      </trkpt>
      <trkpt lat="49.02209" lon="7.05209">
        <ele>214</ele>
        <time>2013-03-24T08:21:37Z</time>
      </trkpt>
      <trkpt lat="49.02201" lon="7.05218">
        <ele>215</ele>
        <time>2013-03-24T08:21:43Z</time>
      </trkpt>
      <trkpt lat="49.02191" lon="7.05225">
        <ele>215</ele>
        <time>2013-03-24T08:21:49Z</time>
      </trkpt>
      <trkpt lat="49.02182" lon="7.0523">
        <ele>215</ele>
        <time>2013-03-24T08:21:55Z</time>
      </trkpt>
      <trkpt lat="49.02172" lon="7.05232">
        <ele>215</ele>
        <time>2013-03-24T08:22:01Z</time>
      </trkpt>
      <trkpt lat="49.02163" lon="7.0523">
        <ele>215</ele>
        <time>2013-03-24T08:22:07Z</time>
      </trkpt>
      <trkpt lat="49.02153" lon="7.05229">
        <ele>215</ele>
        <time>2013-03-24T08:22:13Z</time>
      </trkpt>
      <trkpt lat="49.02144" lon="7.05228">
        <ele>215</ele>
        <time>2013-03-24T08:22:19Z</time>
      </trkpt>
      <trkpt lat="49.02135" lon="7.05228">
        <ele>215</ele>
        <time>2013-03-24T08:22:25Z</time>
      </trkpt>
      <trkpt lat="49.02125" lon="7.05227">
        <ele>215</ele>
        <time>2013-03-24T08:22:31Z</time>
      </trkpt>
      <trkpt lat="49.02117" lon="7.05226">
        <ele>215</ele>
        <time>2013-03-24T08:22:37Z</time>
      </trkpt>
      <trkpt lat="49.02107" lon="7.0523">
        <ele>215</ele>
        <time>2013-03-24T08:22:44Z</time>
      </trkpt>
      <trkpt lat="49.02098" lon="7.05231">
        <ele>215</ele>
        <time>2013-03-24T08:22:50Z</time>
      </trkpt>
      <trkpt lat="49.02089" lon="7.05231">
        <ele>215</ele>
        <time>2013-03-24T08:22:56Z</time>
      </trkpt>
      <trkpt lat="49.0208" lon="7.05231">
        <ele>215</ele>
        <time>2013-03-24T08:23:02Z</time>
      </trkpt>
      <trkpt lat="49.02071" lon="7.05232">
        <ele>215</ele>
        <time>2013-03-24T08:23:08Z</time>
      </trkpt>
      <trkpt lat="49.02062" lon="7.05233">
        <ele>215</ele>
        <time>2013-03-24T08:23:14Z</time>
      </trkpt>
      <trkpt lat="49.02053" lon="7.05233">
        <ele>215</ele>
        <time>2013-03-24T08:23:20Z</time>
      </trkpt>
      <trkpt lat="49.02043" lon="7.05232">
        <ele>215</ele>
        <time>2013-03-24T08:23:26Z</time>
      </trkpt>
      <trkpt lat="49.02035" lon="7.05229">
        <ele>215</ele>
        <time>2013-03-24T08:23:32Z</time>
      </trkpt>
      <trkpt lat="49.02025" lon="7.05226">
        <ele>215</ele>
        <time>2013-03-24T08:23:38Z</time>
      </trkpt>
      <trkpt lat="49.02017" lon="7.05221">
        <ele>215</ele>
        <time>2013-03-24T08:23:44Z</time>
      </trkpt>
      <trkpt lat="49.02008" lon="7.05215">
        <ele>215</ele>
        <time>2013-03-24T08:23:50Z</time>
      </trkpt>
      <trkpt lat="49.02" lon="7.05208">
        <ele>215</ele>
        <time>2013-03-24T08:23:56Z</time>
      </trkpt>
      <trkpt lat="49.01993" lon="7.05198">
        <ele>215</ele>
        <time>2013-03-24T08:24:02Z</time>
      </trkpt>
      <trkpt lat="49.01987" lon="7.05185">
        <ele>215</ele>
        <time>2013-03-24T08:24:08Z</time>
      </trkpt>
      <trkpt lat="49.01983" lon="7.05172">
        <ele>215</ele>
        <time>2013-03-24T08:24:14Z</time>
      </trkpt>
      <trkpt lat="49.01977" lon="7.05161">
        <ele>215</ele>
        <time>2013-03-24T08:24:20Z</time>
      </trkpt>
      <trkpt lat="49.01971" lon="7.05149">
        <ele>215</ele>
        <time>2013-03-24T08:24:26Z</time>
      </trkpt>
      <trkpt lat="49.01966" lon="7.05137">
        <ele>215</ele>
        <time>2013-03-24T08:24:32Z</time>
      </trkpt>
      <trkpt lat="49.01959" lon="7.05126">
        <ele>215</ele>
        <time>2013-03-24T08:24:38Z</time>
      </trkpt>
      <trkpt lat="49.01951" lon="7.05117">
        <ele>215</ele>
        <time>2013-03-24T08:24:44Z</time>
      </trkpt>
      <trkpt lat="49.01943" lon="7.05113">
        <ele>215</ele>
        <time>2013-03-24T08:24:50Z</time>
      </trkpt>
      <trkpt lat="49.01934" lon="7.05109">
        <ele>215</ele>
        <time>2013-03-24T08:24:56Z</time>
      </trkpt>
      <trkpt lat="49.01925" lon="7.05106">
        <ele>215</ele>
        <time>2013-03-24T08:25:02Z</time>
      </trkpt>
      <trkpt lat="49.01916" lon="7.05105">
        <ele>215</ele>
        <time>2013-03-24T08:25:08Z</time>
      </trkpt>
      <trkpt lat="49.01907" lon="7.05104">
        <ele>215</ele>
        <time>2013-03-24T08:25:14Z</time>
      </trkpt>
      <trkpt lat="49.01898" lon="7.05102">
        <ele>215</ele>
        <time>2013-03-24T08:25:20Z</time>
      </trkpt>
      <trkpt lat="49.0189" lon="7.05101">
        <ele>215</ele>
        <time>2013-03-24T08:25:26Z</time>
      </trkpt>
      <trkpt lat="49.01881" lon="7.05101">
        <ele>215</ele>
        <time>2013-03-24T08:25:32Z</time>
      </trkpt>
      <trkpt lat="49.01872" lon="7.051">
        <ele>215</ele>
        <time>2013-03-24T08:25:38Z</time>
      </trkpt>
      <trkpt lat="49.01864" lon="7.051">
        <ele>215</ele>
        <time>2013-03-24T08:25:44Z</time>
      </trkpt>
      <trkpt lat="49.01854" lon="7.051">
        <ele>215</ele>
        <time>2013-03-24T08:25:50Z</time>
      </trkpt>
      <trkpt lat="49.01845" lon="7.05099">
        <ele>216</ele>
        <time>2013-03-24T08:25:56Z</time>
      </trkpt>
      <trkpt lat="49.01836" lon="7.051">
        <ele>216</ele>
        <time>2013-03-24T08:26:02Z</time>
      </trkpt>
      <trkpt lat="49.01827" lon="7.051">
        <ele>217</ele>
        <time>2013-03-24T08:26:08Z</time>
      </trkpt>
      <trkpt lat="49.01819" lon="7.05101">
        <ele>217</ele>
        <time>2013-03-24T08:26:14Z</time>
      </trkpt>
      <trkpt lat="49.01809" lon="7.05103">
        <ele>217</ele>
        <time>2013-03-24T08:26:20Z</time>
      </trkpt>
      <trkpt lat="49.018" lon="7.05105">
        <ele>217</ele>
        <time>2013-03-24T08:26:26Z</time>
      </trkpt>
      <trkpt lat="49.01789" lon="7.05107">
        <ele>217</ele>
        <time>2013-03-24T08:26:32Z</time>
      </trkpt>
      <trkpt lat="49.0178" lon="7.05106">
        <ele>217</ele>
        <time>2013-03-24T08:26:38Z</time>
      </trkpt>
      <trkpt lat="49.01771" lon="7.05106">
        <ele>217</ele>
        <time>2013-03-24T08:26:44Z</time>
      </trkpt>
      <trkpt lat="49.01762" lon="7.05107">
        <ele>217</ele>
        <time>2013-03-24T08:26:50Z</time>
      </trkpt>
      <trkpt lat="49.01752" lon="7.0511">
        <ele>217</ele>
        <time>2013-03-24T08:26:56Z</time>
      </trkpt>
      <trkpt lat="49.01742" lon="7.05112">
        <ele>217</ele>
        <time>2013-03-24T08:27:02Z</time>
      </trkpt>
      <trkpt lat="49.01732" lon="7.05115">
        <ele>217</ele>
        <time>2013-03-24T08:27:08Z</time>
      </trkpt>
      <trkpt lat="49.01723" lon="7.0512">
        <ele>217</ele>
        <time>2013-03-24T08:27:14Z</time>
      </trkpt>
      <trkpt lat="49.01713" lon="7.05127">
        <ele>217</ele>
        <time>2013-03-24T08:27:20Z</time>
      </trkpt>
      <trkpt lat="49.01705" lon="7.05129">
        <ele>217</ele>
        <time>2013-03-24T08:27:26Z</time>
      </trkpt>
      <trkpt lat="49.01695" lon="7.05127">
        <ele>217</ele>
        <time>2013-03-24T08:27:32Z</time>
      </trkpt>
      <trkpt lat="49.01687" lon="7.05119">
        <ele>217</ele>
        <time>2013-03-24T08:27:38Z</time>
      </trkpt>
      <trkpt lat="49.01681" lon="7.0511">
        <ele>217</ele>
        <time>2013-03-24T08:27:44Z</time>
      </trkpt>
      <trkpt lat="49.01676" lon="7.05099">
        <ele>217</ele>
        <time>2013-03-24T08:27:50Z</time>
      </trkpt>
      <trkpt lat="49.01675" lon="7.05086">
        <ele>216</ele>
        <time>2013-03-24T08:27:56Z</time>
      </trkpt>
      <trkpt lat="49.01673" lon="7.05072">
        <ele>216</ele>
        <time>2013-03-24T08:28:02Z</time>
      </trkpt>
      <trkpt lat="49.01669" lon="7.05059">
        <ele>216</ele>
        <time>2013-03-24T08:28:08Z</time>
      </trkpt>
      <trkpt lat="49.01664" lon="7.05048">
        <ele>216</ele>
        <time>2013-03-24T08:28:14Z</time>
      </trkpt>
      <trkpt lat="49.01659" lon="7.05036">
        <ele>215</ele>
        <time>2013-03-24T08:28:20Z</time>
      </trkpt>
      <trkpt lat="49.01655" lon="7.05023">
        <ele>215</ele>
        <time>2013-03-24T08:28:26Z</time>
      </trkpt>
      <trkpt lat="49.01651" lon="7.0501">
        <ele>215</ele>
        <time>2013-03-24T08:28:32Z</time>
      </trkpt>
      <trkpt lat="49.01649" lon="7.04996">
        <ele>215</ele>
        <time>2013-03-24T08:28:38Z</time>
      </trkpt>
      <trkpt lat="49.01649" lon="7.04983">
        <ele>215</ele>
        <time>2013-03-24T08:28:44Z</time>
      </trkpt>
      <trkpt lat="49.01646" lon="7.0497">
        <ele>215</ele>
        <time>2013-03-24T08:28:50Z</time>
      </trkpt>
      <trkpt lat="49.01645" lon="7.04957">
        <ele>215</ele>
        <time>2013-03-24T08:28:56Z</time>
      </trkpt>
      <trkpt lat="49.01643" lon="7.04941">
        <ele>215</ele>
        <time>2013-03-24T08:29:02Z</time>
      </trkpt>
      <trkpt lat="49.01641" lon="7.04926">
        <ele>215</ele>
        <time>2013-03-24T08:29:08Z</time>
      </trkpt>
      <trkpt lat="49.01637" lon="7.04913">
        <ele>215</ele>
        <time>2013-03-24T08:29:14Z</time>
      </trkpt>
      <trkpt lat="49.0163" lon="7.04902">
        <ele>215</ele>
        <time>2013-03-24T08:29:20Z</time>
      </trkpt>
      <trkpt lat="49.01622" lon="7.04895">
        <ele>215</ele>
        <time>2013-03-24T08:29:26Z</time>
      </trkpt>
      <trkpt lat="49.01613" lon="7.04891">
        <ele>215</ele>
        <time>2013-03-24T08:29:32Z</time>
      </trkpt>
      <trkpt lat="49.01604" lon="7.04892">
        <ele>215</ele>
        <time>2013-03-24T08:29:38Z</time>
      </trkpt>
      <trkpt lat="49.01595" lon="7.04894">
        <ele>214</ele>
        <time>2013-03-24T08:29:44Z</time>
      </trkpt>
      <trkpt lat="49.01588" lon="7.04894">
        <ele>213</ele>
        <time>2013-03-24T08:29:50Z</time>
      </trkpt>
      <trkpt lat="49.01585" lon="7.04896">
        <ele>213</ele>
        <time>2013-03-24T08:29:56Z</time>
      </trkpt>
      <trkpt lat="49.01584" lon="7.04896">
        <ele>213</ele>
        <time>2013-03-24T08:30:02Z</time>
      </trkpt>
      <trkpt lat="49.01585" lon="7.04894">
        <ele>213</ele>
        <time>2013-03-24T08:30:23Z</time>
      </trkpt>
      <trkpt lat="49.01585" lon="7.04896">
        <ele>213</ele>
        <time>2013-03-24T08:30:35Z</time>
      </trkpt>
      <trkpt lat="49.01583" lon="7.04898">
        <ele>213</ele>
        <time>2013-03-24T08:30:44Z</time>
      </trkpt>
      <trkpt lat="49.01582" lon="7.04898">
        <ele>213</ele>
        <time>2013-03-24T08:30:51Z</time>
      </trkpt>
      <trkpt lat="49.01583" lon="7.04898">
        <ele>213</ele>
        <time>2013-03-24T08:30:57Z</time>
      </trkpt>
      <trkpt lat="49.01585" lon="7.04895">
        <ele>213</ele>
        <time>2013-03-24T08:31:04Z</time>
      </trkpt>
      <trkpt lat="49.01583" lon="7.04894">
        <ele>213</ele>
        <time>2013-03-24T08:31:10Z</time>
      </trkpt>
      <trkpt lat="49.01581" lon="7.04895">
        <ele>214</ele>
        <time>2013-03-24T08:31:20Z</time>
      </trkpt>
      <trkpt lat="49.01582" lon="7.04893">
        <ele>216</ele>
        <time>2013-03-24T08:31:37Z</time>
      </trkpt>
      <trkpt lat="49.01581" lon="7.04894">
        <ele>218</ele>
        <time>2013-03-24T08:31:49Z</time>
      </trkpt>
      <trkpt lat="49.01585" lon="7.04892">
        <ele>218</ele>
        <time>2013-03-24T08:31:55Z</time>
      </trkpt>
      <trkpt lat="49.01586" lon="7.04891">
        <ele>220</ele>
        <time>2013-03-24T08:32:06Z</time>
      </trkpt>
      <trkpt lat="49.01583" lon="7.04891">
        <ele>222</ele>
        <time>2013-03-24T08:32:25Z</time>
      </trkpt>
      <trkpt lat="49.01581" lon="7.04894">
        <ele>220</ele>
        <time>2013-03-24T08:32:36Z</time>
      </trkpt>
      <trkpt lat="49.01583" lon="7.04894">
        <ele>219</ele>
        <time>2013-03-24T08:32:48Z</time>
      </trkpt>
      <trkpt lat="49.01583" lon="7.04893">
        <ele>219</ele>
        <time>2013-03-24T08:32:59Z</time>
      </trkpt>
      <trkpt lat="49.01584" lon="7.04895">
        <ele>219</ele>
        <time>2013-03-24T08:33:06Z</time>
      </trkpt>
      <trkpt lat="49.01586" lon="7.04898">
        <ele>219</ele>
        <time>2013-03-24T08:33:12Z</time>
      </trkpt>
      <trkpt lat="49.01587" lon="7.04897">
        <ele>219</ele>
        <time>2013-03-24T08:33:23Z</time>
      </trkpt>
      <trkpt lat="49.01586" lon="7.04898">
        <ele>219</ele>
        <time>2013-03-24T08:33:33Z</time>
      </trkpt>
      <trkpt lat="49.01585" lon="7.04903">
        <ele>219</ele>
        <time>2013-03-24T08:33:39Z</time>
      </trkpt>
      <trkpt lat="49.01586" lon="7.04905">
        <ele>219</ele>
        <time>2013-03-24T08:33:46Z</time>
      </trkpt>
      <trkpt lat="49.01586" lon="7.04907">
        <ele>223</ele>
        <time>2013-03-24T08:34:02Z</time>
      </trkpt>
      <trkpt lat="49.01585" lon="7.04909">
        <ele>224</ele>
        <time>2013-03-24T08:34:08Z</time>
      </trkpt>
      <trkpt lat="49.01582" lon="7.04909">
        <ele>224</ele>
        <time>2013-03-24T08:34:16Z</time>
      </trkpt>
      <trkpt lat="49.01581" lon="7.04908">
        <ele>223</ele>
        <time>2013-03-24T08:34:24Z</time>
      </trkpt>
      <trkpt lat="49.01579" lon="7.04905">
        <ele>223</ele>
        <time>2013-03-24T08:34:30Z</time>
      </trkpt>
      <trkpt lat="49.01582" lon="7.04902">
        <ele>222</ele>
        <time>2013-03-24T08:34:37Z</time>
      </trkpt>
      <trkpt lat="49.01585" lon="7.04901">
        <ele>222</ele>
        <time>2013-03-24T08:34:44Z</time>
      </trkpt>
      <trkpt lat="49.01587" lon="7.04901">
        <ele>222</ele>
        <time>2013-03-24T08:34:50Z</time>
      </trkpt>
      <trkpt lat="49.01584" lon="7.04905">
        <ele>222</ele>
        <time>2013-03-24T08:34:57Z</time>
      </trkpt>
      <trkpt lat="49.01583" lon="7.04902">
        <ele>222</ele>
        <time>2013-03-24T08:35:05Z</time>
      </trkpt>
      <trkpt lat="49.01581" lon="7.04904">
        <ele>222</ele>
        <time>2013-03-24T08:35:11Z</time>
      </trkpt>
      <trkpt lat="49.01579" lon="7.04905">
        <ele>222</ele>
        <time>2013-03-24T08:35:19Z</time>
      </trkpt>
      <trkpt lat="49.01579" lon="7.04902">
        <ele>222</ele>
        <time>2013-03-24T08:35:25Z</time>
      </trkpt>
      <trkpt lat="49.01582" lon="7.04895">
        <ele>222</ele>
        <time>2013-03-24T08:35:32Z</time>
      </trkpt>
      <trkpt lat="49.01583" lon="7.0489">
        <ele>218</ele>
        <time>2013-03-24T08:35:40Z</time>
      </trkpt>
      <trkpt lat="49.01581" lon="7.04891">
        <ele>218</ele>
        <time>2013-03-24T08:35:47Z</time>
      </trkpt>
      <trkpt lat="49.01577" lon="7.04893">
        <ele>218</ele>
        <time>2013-03-24T08:35:54Z</time>
      </trkpt>
      <trkpt lat="49.01573" lon="7.04889">
        <ele>215</ele>
        <time>2013-03-24T08:36:00Z</time>
      </trkpt>
      <trkpt lat="49.01564" lon="7.04888">
        <ele>213</ele>
        <time>2013-03-24T08:36:06Z</time>
      </trkpt>
      <trkpt lat="49.01555" lon="7.04889">
        <ele>213</ele>
        <time>2013-03-24T08:36:12Z</time>
      </trkpt>
      <trkpt lat="49.01546" lon="7.04889">
        <ele>212</ele>
        <time>2013-03-24T08:36:18Z</time>
      </trkpt>
      <trkpt lat="49.01537" lon="7.0489">
        <ele>212</ele>
        <time>2013-03-24T08:36:24Z</time>
      </trkpt>
      <trkpt lat="49.01527" lon="7.04893">
        <ele>212</ele>
        <time>2013-03-24T08:36:30Z</time>
      </trkpt>
      <trkpt lat="49.0152" lon="7.0489">
        <ele>212</ele>
        <time>2013-03-24T08:36:36Z</time>
      </trkpt>
      <trkpt lat="49.01512" lon="7.04887">
        <ele>212</ele>
        <time>2013-03-24T08:36:42Z</time>
      </trkpt>
      <trkpt lat="49.01504" lon="7.0488">
        <ele>212</ele>
        <time>2013-03-24T08:36:48Z</time>
      </trkpt>
      <trkpt lat="49.01497" lon="7.04873">
        <ele>212</ele>
        <time>2013-03-24T08:36:54Z</time>
      </trkpt>
      <trkpt lat="49.0149" lon="7.04867">
        <ele>212</ele>
        <time>2013-03-24T08:37:01Z</time>
      </trkpt>
      <trkpt lat="49.01484" lon="7.04856">
        <ele>211</ele>
        <time>2013-03-24T08:37:08Z</time>
      </trkpt>
      <trkpt lat="49.01477" lon="7.04846">
        <ele>211</ele>
        <time>2013-03-24T08:37:14Z</time>
      </trkpt>
      <trkpt lat="49.01471" lon="7.04835">
        <ele>211</ele>
        <time>2013-03-24T08:37:20Z</time>
      </trkpt>
      <trkpt lat="49.01464" lon="7.04826">
        <ele>211</ele>
        <time>2013-03-24T08:37:26Z</time>
      </trkpt>
      <trkpt lat="49.01458" lon="7.04818">
        <ele>211</ele>
        <time>2013-03-24T08:37:32Z</time>
      </trkpt>
      <trkpt lat="49.0145" lon="7.0481">
        <ele>211</ele>
        <time>2013-03-24T08:37:38Z</time>
      </trkpt>
      <trkpt lat="49.01442" lon="7.04811">
        <ele>211</ele>
        <time>2013-03-24T08:37:45Z</time>
      </trkpt>
      <trkpt lat="49.01437" lon="7.04821">
        <ele>210</ele>
        <time>2013-03-24T08:37:51Z</time>
      </trkpt>
      <trkpt lat="49.01436" lon="7.04834">
        <ele>210</ele>
        <time>2013-03-24T08:37:57Z</time>
      </trkpt>
      <trkpt lat="49.01437" lon="7.04848">
        <ele>209</ele>
        <time>2013-03-24T08:38:03Z</time>
      </trkpt>
      <trkpt lat="49.0144" lon="7.04862">
        <ele>209</ele>
        <time>2013-03-24T08:38:09Z</time>
      </trkpt>
      <trkpt lat="49.01443" lon="7.04876">
        <ele>209</ele>
        <time>2013-03-24T08:38:15Z</time>
      </trkpt>
      <trkpt lat="49.01446" lon="7.04889">
        <ele>209</ele>
        <time>2013-03-24T08:38:21Z</time>
      </trkpt>
      <trkpt lat="49.01449" lon="7.04902">
        <ele>209</ele>
        <time>2013-03-24T08:38:27Z</time>
      </trkpt>
      <trkpt lat="49.01452" lon="7.04914">
        <ele>209</ele>
        <time>2013-03-24T08:38:33Z</time>
      </trkpt>
      <trkpt lat="49.01457" lon="7.04927">
        <ele>209</ele>
        <time>2013-03-24T08:38:39Z</time>
      </trkpt>
      <trkpt lat="49.01461" lon="7.04941">
        <ele>209</ele>
        <time>2013-03-24T08:38:45Z</time>
      </trkpt>
      <trkpt lat="49.01464" lon="7.04954">
        <ele>209</ele>
        <time>2013-03-24T08:38:51Z</time>
      </trkpt>
      <trkpt lat="49.01467" lon="7.04967">
        <ele>209</ele>
        <time>2013-03-24T08:38:57Z</time>
      </trkpt>
      <trkpt lat="49.01471" lon="7.04981">
        <ele>209</ele>
        <time>2013-03-24T08:39:03Z</time>
      </trkpt>
      <trkpt lat="49.01475" lon="7.04995">
        <ele>209</ele>
        <time>2013-03-24T08:39:09Z</time>
      </trkpt>
      <trkpt lat="49.01478" lon="7.05008">
        <ele>209</ele>
        <time>2013-03-24T08:39:15Z</time>
      </trkpt>
      <trkpt lat="49.01481" lon="7.05021">
        <ele>209</ele>
        <time>2013-03-24T08:39:21Z</time>
      </trkpt>
      <trkpt lat="49.01484" lon="7.05035">
        <ele>209</ele>
        <time>2013-03-24T08:39:27Z</time>
      </trkpt>
      <trkpt lat="49.01487" lon="7.05048">
        <ele>209</ele>
        <time>2013-03-24T08:39:33Z</time>
      </trkpt>
      <trkpt lat="49.01491" lon="7.05061">
        <ele>209</ele>
        <time>2013-03-24T08:39:39Z</time>
      </trkpt>
      <trkpt lat="49.01494" lon="7.05074">
        <ele>209</ele>
        <time>2013-03-24T08:39:45Z</time>
      </trkpt>
      <trkpt lat="49.01497" lon="7.05087">
        <ele>209</ele>
        <time>2013-03-24T08:39:51Z</time>
      </trkpt>
      <trkpt lat="49.01498" lon="7.05102">
        <ele>209</ele>
        <time>2013-03-24T08:39:57Z</time>
      </trkpt>
      <trkpt lat="49.01499" lon="7.05115">
        <ele>209</ele>
        <time>2013-03-24T08:40:03Z</time>
      </trkpt>
      <trkpt lat="49.015" lon="7.05129">
        <ele>209</ele>
        <time>2013-03-24T08:40:09Z</time>
      </trkpt>
      <trkpt lat="49.01502" lon="7.05142">
        <ele>209</ele>
        <time>2013-03-24T08:40:15Z</time>
      </trkpt>
      <trkpt lat="49.01504" lon="7.05157">
        <ele>209</ele>
        <time>2013-03-24T08:40:21Z</time>
      </trkpt>
      <trkpt lat="49.01506" lon="7.05172">
        <ele>209</ele>
        <time>2013-03-24T08:40:27Z</time>
      </trkpt>
      <trkpt lat="49.01508" lon="7.05185">
        <ele>209</ele>
        <time>2013-03-24T08:40:33Z</time>
      </trkpt>
      <trkpt lat="49.01508" lon="7.05199">
        <ele>209</ele>
        <time>2013-03-24T08:40:39Z</time>
      </trkpt>
      <trkpt lat="49.01511" lon="7.05214">
        <ele>209</ele>
        <time>2013-03-24T08:40:45Z</time>
      </trkpt>
      <trkpt lat="49.01511" lon="7.05229">
        <ele>209</ele>
        <time>2013-03-24T08:40:51Z</time>
      </trkpt>
      <trkpt lat="49.01512" lon="7.05242">
        <ele>209</ele>
        <time>2013-03-24T08:40:57Z</time>
      </trkpt>
      <trkpt lat="49.01512" lon="7.05257">
        <ele>209</ele>
        <time>2013-03-24T08:41:03Z</time>
      </trkpt>
      <trkpt lat="49.01514" lon="7.05271">
        <ele>209</ele>
        <time>2013-03-24T08:41:09Z</time>
      </trkpt>
      <trkpt lat="49.01515" lon="7.05287">
        <ele>209</ele>
        <time>2013-03-24T08:41:15Z</time>
      </trkpt>
      <trkpt lat="49.01516" lon="7.05303">
        <ele>209</ele>
        <time>2013-03-24T08:41:21Z</time>
      </trkpt>
      <trkpt lat="49.01516" lon="7.05318">
        <ele>209</ele>
        <time>2013-03-24T08:41:27Z</time>
      </trkpt>
      <trkpt lat="49.01517" lon="7.05331">
        <ele>209</ele>
        <time>2013-03-24T08:41:33Z</time>
      </trkpt>
      <trkpt lat="49.01517" lon="7.05345">
        <ele>209</ele>
        <time>2013-03-24T08:41:39Z</time>
      </trkpt>
      <trkpt lat="49.01519" lon="7.05361">
        <ele>209</ele>
        <time>2013-03-24T08:41:46Z</time>
      </trkpt>
      <trkpt lat="49.0152" lon="7.05374">
        <ele>209</ele>
        <time>2013-03-24T08:41:52Z</time>
      </trkpt>
      <trkpt lat="49.01521" lon="7.05388">
        <ele>208</ele>
        <time>2013-03-24T08:41:58Z</time>
      </trkpt>
      <trkpt lat="49.01521" lon="7.05405">
        <ele>208</ele>
        <time>2013-03-24T08:42:04Z</time>
      </trkpt>
      <trkpt lat="49.0152" lon="7.05421">
        <ele>208</ele>
        <time>2013-03-24T08:42:10Z</time>
      </trkpt>
      <trkpt lat="49.01521" lon="7.05439">
        <ele>208</ele>
        <time>2013-03-24T08:42:17Z</time>
      </trkpt>
      <trkpt lat="49.01522" lon="7.05456">
        <ele>208</ele>
        <time>2013-03-24T08:42:23Z</time>
      </trkpt>
      <trkpt lat="49.01524" lon="7.05471">
        <ele>208</ele>
        <time>2013-03-24T08:42:29Z</time>
      </trkpt>
      <trkpt lat="49.01524" lon="7.05485">
        <ele>208</ele>
        <time>2013-03-24T08:42:35Z</time>
      </trkpt>
      <trkpt lat="49.01524" lon="7.05499">
        <ele>208</ele>
        <time>2013-03-24T08:42:42Z</time>
      </trkpt>
      <trkpt lat="49.01524" lon="7.05515">
        <ele>208</ele>
        <time>2013-03-24T08:42:48Z</time>
      </trkpt>
      <trkpt lat="49.01524" lon="7.05529">
        <ele>208</ele>
        <time>2013-03-24T08:42:54Z</time>
      </trkpt>
      <trkpt lat="49.01525" lon="7.05542">
        <ele>208</ele>
        <time>2013-03-24T08:43:00Z</time>
      </trkpt>
      <trkpt lat="49.01526" lon="7.05557">
        <ele>208</ele>
        <time>2013-03-24T08:43:07Z</time>
      </trkpt>
      <trkpt lat="49.01527" lon="7.05575">
        <ele>208</ele>
        <time>2013-03-24T08:43:13Z</time>
      </trkpt>
      <trkpt lat="49.01526" lon="7.05589">
        <ele>208</ele>
        <time>2013-03-24T08:43:19Z</time>
      </trkpt>
      <trkpt lat="49.01527" lon="7.05603">
        <ele>207</ele>
        <time>2013-03-24T08:43:25Z</time>
      </trkpt>
      <trkpt lat="49.01528" lon="7.05618">
        <ele>207</ele>
        <time>2013-03-24T08:43:32Z</time>
      </trkpt>
      <trkpt lat="49.01529" lon="7.05634">
        <ele>207</ele>
        <time>2013-03-24T08:43:38Z</time>
      </trkpt>
      <trkpt lat="49.01529" lon="7.05649">
        <ele>207</ele>
        <time>2013-03-24T08:43:44Z</time>
      </trkpt>
      <trkpt lat="49.01532" lon="7.05663">
        <ele>207</ele>
        <time>2013-03-24T08:43:50Z</time>
      </trkpt>
      <trkpt lat="49.01532" lon="7.05679">
        <ele>207</ele>
        <time>2013-03-24T08:43:57Z</time>
      </trkpt>
      <trkpt lat="49.01532" lon="7.05696">
        <ele>207</ele>
        <time>2013-03-24T08:44:03Z</time>
      </trkpt>
      <trkpt lat="49.01531" lon="7.05711">
        <ele>207</ele>
        <time>2013-03-24T08:44:09Z</time>
      </trkpt>
      <trkpt lat="49.01533" lon="7.05726">
        <ele>207</ele>
        <time>2013-03-24T08:44:16Z</time>
      </trkpt>
      <trkpt lat="49.01534" lon="7.0574">
        <ele>207</ele>
        <time>2013-03-24T08:44:22Z</time>
      </trkpt>
      <trkpt lat="49.01535" lon="7.05757">
        <ele>207</ele>
        <time>2013-03-24T08:44:29Z</time>
      </trkpt>
      <trkpt lat="49.01535" lon="7.05774">
        <ele>207</ele>
        <time>2013-03-24T08:44:35Z</time>
      </trkpt>
      <trkpt lat="49.01535" lon="7.05787">
        <ele>207</ele>
        <time>2013-03-24T08:44:42Z</time>
      </trkpt>
      <trkpt lat="49.01537" lon="7.05806">
        <ele>207</ele>
        <time>2013-03-24T08:44:48Z</time>
      </trkpt>
      <trkpt lat="49.01538" lon="7.0582">
        <ele>207</ele>
        <time>2013-03-24T08:44:54Z</time>
      </trkpt>
      <trkpt lat="49.01538" lon="7.05834">
        <ele>207</ele>
        <time>2013-03-24T08:45:00Z</time>
      </trkpt>
      <trkpt lat="49.01539" lon="7.05847">
        <ele>207</ele>
        <time>2013-03-24T08:45:07Z</time>
      </trkpt>
      <trkpt lat="49.0154" lon="7.05863">
        <ele>207</ele>
        <time>2013-03-24T08:45:13Z</time>
      </trkpt>
      <trkpt lat="49.0154" lon="7.05877">
        <ele>207</ele>
        <time>2013-03-24T08:45:19Z</time>
      </trkpt>
      <trkpt lat="49.01541" lon="7.05893">
        <ele>207</ele>
        <time>2013-03-24T08:45:25Z</time>
      </trkpt>
      <trkpt lat="49.01544" lon="7.05908">
        <ele>207</ele>
        <time>2013-03-24T08:45:32Z</time>
      </trkpt>
      <trkpt lat="49.01545" lon="7.05923">
        <ele>207</ele>
        <time>2013-03-24T08:45:38Z</time>
      </trkpt>
      <trkpt lat="49.01545" lon="7.0594">
        <ele>207</ele>
        <time>2013-03-24T08:45:45Z</time>
      </trkpt>
      <trkpt lat="49.01547" lon="7.05955">
        <ele>207</ele>
        <time>2013-03-24T08:45:51Z</time>
      </trkpt>
      <trkpt lat="49.01549" lon="7.05971">
        <ele>207</ele>
        <time>2013-03-24T08:45:58Z</time>
      </trkpt>
      <trkpt lat="49.0155" lon="7.05983">
        <ele>207</ele>
        <time>2013-03-24T08:46:04Z</time>
      </trkpt>
      <trkpt lat="49.01552" lon="7.05997">
        <ele>207</ele>
        <time>2013-03-24T08:46:10Z</time>
      </trkpt>
      <trkpt lat="49.01555" lon="7.06012">
        <ele>207</ele>
        <time>2013-03-24T08:46:16Z</time>
      </trkpt>
      <trkpt lat="49.01558" lon="7.06027">
        <ele>207</ele>
        <time>2013-03-24T08:46:22Z</time>
      </trkpt>
      <trkpt lat="49.01562" lon="7.06044">
        <ele>207</ele>
        <time>2013-03-24T08:46:29Z</time>
      </trkpt>
      <trkpt lat="49.01564" lon="7.06061">
        <ele>207</ele>
        <time>2013-03-24T08:46:36Z</time>
      </trkpt>
      <trkpt lat="49.01568" lon="7.06074">
        <ele>207</ele>
        <time>2013-03-24T08:46:42Z</time>
      </trkpt>
      <trkpt lat="49.01571" lon="7.06091">
        <ele>207</ele>
        <time>2013-03-24T08:46:49Z</time>
      </trkpt>
      <trkpt lat="49.01574" lon="7.06107">
        <ele>207</ele>
        <time>2013-03-24T08:46:55Z</time>
      </trkpt>
      <trkpt lat="49.01578" lon="7.06121">
        <ele>207</ele>
        <time>2013-03-24T08:47:02Z</time>
      </trkpt>
      <trkpt lat="49.01581" lon="7.06133">
        <ele>207</ele>
        <time>2013-03-24T08:47:08Z</time>
      </trkpt>
      <trkpt lat="49.01586" lon="7.06148">
        <ele>207</ele>
        <time>2013-03-24T08:47:14Z</time>
      </trkpt>
      <trkpt lat="49.0159" lon="7.06161">
        <ele>207</ele>
        <time>2013-03-24T08:47:20Z</time>
      </trkpt>
      <trkpt lat="49.01594" lon="7.06174">
        <ele>207</ele>
        <time>2013-03-24T08:47:26Z</time>
      </trkpt>
      <trkpt lat="49.01598" lon="7.06187">
        <ele>207</ele>
        <time>2013-03-24T08:47:32Z</time>
      </trkpt>
      <trkpt lat="49.01602" lon="7.06199">
        <ele>207</ele>
        <time>2013-03-24T08:47:39Z</time>
      </trkpt>
      <trkpt lat="49.01607" lon="7.06215">
        <ele>207</ele>
        <time>2013-03-24T08:47:45Z</time>
      </trkpt>
      <trkpt lat="49.01613" lon="7.06229">
        <ele>207</ele>
        <time>2013-03-24T08:47:51Z</time>
      </trkpt>
      <trkpt lat="49.01618" lon="7.06242">
        <ele>207</ele>
        <time>2013-03-24T08:47:57Z</time>
      </trkpt>
      <trkpt lat="49.01623" lon="7.06255">
        <ele>207</ele>
        <time>2013-03-24T08:48:03Z</time>
      </trkpt>
      <trkpt lat="49.01626" lon="7.06267">
        <ele>207</ele>
        <time>2013-03-24T08:48:10Z</time>
      </trkpt>
      <trkpt lat="49.01633" lon="7.06282">
        <ele>207</ele>
        <time>2013-03-24T08:48:16Z</time>
      </trkpt>
      <trkpt lat="49.01637" lon="7.06295">
        <ele>207</ele>
        <time>2013-03-24T08:48:22Z</time>
      </trkpt>
      <trkpt lat="49.01642" lon="7.06307">
        <ele>207</ele>
        <time>2013-03-24T08:48:28Z</time>
      </trkpt>
      <trkpt lat="49.01647" lon="7.06319">
        <ele>207</ele>
        <time>2013-03-24T08:48:35Z</time>
      </trkpt>
      <trkpt lat="49.01653" lon="7.06333">
        <ele>207</ele>
        <time>2013-03-24T08:48:41Z</time>
      </trkpt>
      <trkpt lat="49.01657" lon="7.06346">
        <ele>207</ele>
        <time>2013-03-24T08:48:47Z</time>
      </trkpt>
      <trkpt lat="49.01662" lon="7.06358">
        <ele>207</ele>
        <time>2013-03-24T08:48:53Z</time>
      </trkpt>
      <trkpt lat="49.01666" lon="7.0637">
        <ele>207</ele>
        <time>2013-03-24T08:49:00Z</time>
      </trkpt>
      <trkpt lat="49.01672" lon="7.06385">
        <ele>207</ele>
        <time>2013-03-24T08:49:06Z</time>
      </trkpt>
      <trkpt lat="49.01676" lon="7.06397">
        <ele>207</ele>
        <time>2013-03-24T08:49:12Z</time>
      </trkpt>
      <trkpt lat="49.0168" lon="7.06409">
        <ele>207</ele>
        <time>2013-03-24T08:49:19Z</time>
      </trkpt>
      <trkpt lat="49.01684" lon="7.06422">
        <ele>207</ele>
        <time>2013-03-24T08:49:25Z</time>
      </trkpt>
      <trkpt lat="49.0169" lon="7.06436">
        <ele>207</ele>
        <time>2013-03-24T08:49:31Z</time>
      </trkpt>
      <trkpt lat="49.01695" lon="7.06447">
        <ele>207</ele>
        <time>2013-03-24T08:49:37Z</time>
      </trkpt>
      <trkpt lat="49.017" lon="7.06459">
        <ele>207</ele>
        <time>2013-03-24T08:49:43Z</time>
      </trkpt>
      <trkpt lat="49.01705" lon="7.06472">
        <ele>207</ele>
        <time>2013-03-24T08:49:50Z</time>
      </trkpt>
      <trkpt lat="49.0171" lon="7.06486">
        <ele>207</ele>
        <time>2013-03-24T08:49:56Z</time>
      </trkpt>
      <trkpt lat="49.01714" lon="7.06497">
        <ele>207</ele>
        <time>2013-03-24T08:50:02Z</time>
      </trkpt>
      <trkpt lat="49.01719" lon="7.0651">
        <ele>207</ele>
        <time>2013-03-24T08:50:08Z</time>
      </trkpt>
      <trkpt lat="49.01723" lon="7.06521">
        <ele>207</ele>
        <time>2013-03-24T08:50:15Z</time>
      </trkpt>
      <trkpt lat="49.01727" lon="7.06535">
        <ele>207</ele>
        <time>2013-03-24T08:50:21Z</time>
      </trkpt>
      <trkpt lat="49.01732" lon="7.06546">
        <ele>207</ele>
        <time>2013-03-24T08:50:27Z</time>
      </trkpt>
      <trkpt lat="49.01737" lon="7.06558">
        <ele>207</ele>
        <time>2013-03-24T08:50:33Z</time>
      </trkpt>
      <trkpt lat="49.01742" lon="7.0657">
        <ele>207</ele>
        <time>2013-03-24T08:50:40Z</time>
      </trkpt>
      <trkpt lat="49.01747" lon="7.06585">
        <ele>207</ele>
        <time>2013-03-24T08:50:46Z</time>
      </trkpt>
      <trkpt lat="49.01752" lon="7.06597">
        <ele>207</ele>
        <time>2013-03-24T08:50:52Z</time>
      </trkpt>
      <trkpt lat="49.01757" lon="7.0661">
        <ele>207</ele>
        <time>2013-03-24T08:50:58Z</time>
      </trkpt>
      <trkpt lat="49.01761" lon="7.06623">
        <ele>207</ele>
        <time>2013-03-24T08:51:05Z</time>
      </trkpt>
      <trkpt lat="49.01767" lon="7.06638">
        <ele>207</ele>
        <time>2013-03-24T08:51:11Z</time>
      </trkpt>
      <trkpt lat="49.01771" lon="7.06646">
        <ele>208</ele>
        <time>2013-03-24T08:51:30Z</time>
      </trkpt>
      <trkpt lat="49.01774" lon="7.06656">
        <ele>208</ele>
        <time>2013-03-24T08:51:36Z</time>
      </trkpt>
      <trkpt lat="49.01779" lon="7.06669">
        <ele>208</ele>
        <time>2013-03-24T08:51:42Z</time>
      </trkpt>
      <trkpt lat="49.01783" lon="7.06683">
        <ele>208</ele>
        <time>2013-03-24T08:51:48Z</time>
      </trkpt>
      <trkpt lat="49.01789" lon="7.06696">
        <ele>208</ele>
        <time>2013-03-24T08:51:54Z</time>
      </trkpt>
      <trkpt lat="49.01794" lon="7.06708">
        <ele>208</ele>
        <time>2013-03-24T08:52:01Z</time>
      </trkpt>
      <trkpt lat="49.01801" lon="7.06723">
        <ele>208</ele>
        <time>2013-03-24T08:52:07Z</time>
      </trkpt>
      <trkpt lat="49.01805" lon="7.06736">
        <ele>208</ele>
        <time>2013-03-24T08:52:13Z</time>
      </trkpt>
      <trkpt lat="49.0181" lon="7.06749">
        <ele>208</ele>
        <time>2013-03-24T08:52:19Z</time>
      </trkpt>
      <trkpt lat="49.01815" lon="7.06762">
        <ele>208</ele>
        <time>2013-03-24T08:52:26Z</time>
      </trkpt>
      <trkpt lat="49.01821" lon="7.06778">
        <ele>208</ele>
        <time>2013-03-24T08:52:32Z</time>
      </trkpt>
      <trkpt lat="49.01826" lon="7.0679">
        <ele>208</ele>
        <time>2013-03-24T08:52:38Z</time>
      </trkpt>
      <trkpt lat="49.01831" lon="7.06803">
        <ele>208</ele>
        <time>2013-03-24T08:52:44Z</time>
      </trkpt>
      <trkpt lat="49.01836" lon="7.06816">
        <ele>208</ele>
        <time>2013-03-24T08:52:50Z</time>
      </trkpt>
      <trkpt lat="49.01841" lon="7.06829">
        <ele>208</ele>
        <time>2013-03-24T08:52:56Z</time>
      </trkpt>
      <trkpt lat="49.01845" lon="7.06842">
        <ele>208</ele>
        <time>2013-03-24T08:53:02Z</time>
      </trkpt>
      <trkpt lat="49.0185" lon="7.06855">
        <ele>208</ele>
        <time>2013-03-24T08:53:08Z</time>
      </trkpt>
      <trkpt lat="49.01855" lon="7.06868">
        <ele>208</ele>
        <time>2013-03-24T08:53:14Z</time>
      </trkpt>
      <trkpt lat="49.0186" lon="7.06879">
        <ele>208</ele>
        <time>2013-03-24T08:53:20Z</time>
      </trkpt>
      <trkpt lat="49.01869" lon="7.06878">
        <ele>208</ele>
        <time>2013-03-24T08:53:26Z</time>
      </trkpt>
      <trkpt lat="49.01878" lon="7.06874">
        <ele>208</ele>
        <time>2013-03-24T08:53:32Z</time>
      </trkpt>
      <trkpt lat="49.01884" lon="7.06871">
        <ele>208</ele>
        <time>2013-03-24T08:53:38Z</time>
      </trkpt>
      <trkpt lat="49.01894" lon="7.06875">
        <ele>208</ele>
        <time>2013-03-24T08:53:44Z</time>
      </trkpt>
      <trkpt lat="49.01903" lon="7.06882">
        <ele>207</ele>
        <time>2013-03-24T08:53:50Z</time>
      </trkpt>
      <trkpt lat="49.01909" lon="7.06893">
        <ele>206</ele>
        <time>2013-03-24T08:53:56Z</time>
      </trkpt>
      <trkpt lat="49.01907" lon="7.06905">
        <ele>206</ele>
        <time>2013-03-24T08:54:02Z</time>
      </trkpt>
      <trkpt lat="49.01906" lon="7.0692">
        <ele>206</ele>
        <time>2013-03-24T08:54:08Z</time>
      </trkpt>
      <trkpt lat="49.01906" lon="7.06936">
        <ele>206</ele>
        <time>2013-03-24T08:54:14Z</time>
      </trkpt>
      <trkpt lat="49.01907" lon="7.06952">
        <ele>206</ele>
        <time>2013-03-24T08:54:21Z</time>
      </trkpt>
      <trkpt lat="49.0191" lon="7.06968">
        <ele>206</ele>
        <time>2013-03-24T08:54:27Z</time>
      </trkpt>
      <trkpt lat="49.01912" lon="7.06982">
        <ele>206</ele>
        <time>2013-03-24T08:54:33Z</time>
      </trkpt>
      <trkpt lat="49.01916" lon="7.06995">
        <ele>206</ele>
        <time>2013-03-24T08:54:39Z</time>
      </trkpt>
      <trkpt lat="49.0192" lon="7.07007">
        <ele>206</ele>
        <time>2013-03-24T08:54:46Z</time>
      </trkpt>
      <trkpt lat="49.01926" lon="7.07021">
        <ele>206</ele>
        <time>2013-03-24T08:54:52Z</time>
      </trkpt>
      <trkpt lat="49.01933" lon="7.07031">
        <ele>206</ele>
        <time>2013-03-24T08:54:58Z</time>
      </trkpt>
      <trkpt lat="49.01939" lon="7.0704">
        <ele>206</ele>
        <time>2013-03-24T08:55:04Z</time>
      </trkpt>
      <trkpt lat="49.01945" lon="7.07051">
        <ele>206</ele>
        <time>2013-03-24T08:55:10Z</time>
      </trkpt>
      <trkpt lat="49.01949" lon="7.07062">
        <ele>206</ele>
        <time>2013-03-24T08:55:16Z</time>
      </trkpt>
      <trkpt lat="49.01989" lon="7.07086">
        <ele>205</ele>
        <time>2013-03-24T08:55:36Z</time>
      </trkpt>
      <trkpt lat="49.0198" lon="7.07114">
        <ele>200</ele>
        <time>2013-03-24T08:55:42Z</time>
      </trkpt>
      <trkpt lat="49.01977" lon="7.07132">
        <ele>200</ele>
        <time>2013-03-24T08:55:48Z</time>
      </trkpt>
      <trkpt lat="49.01979" lon="7.07146">
        <ele>200</ele>
        <time>2013-03-24T08:55:54Z</time>
      </trkpt>
      <trkpt lat="49.0198" lon="7.07161">
        <ele>202</ele>
        <time>2013-03-24T08:56:00Z</time>
      </trkpt>
      <trkpt lat="49.01984" lon="7.07174">
        <ele>202</ele>
        <time>2013-03-24T08:56:06Z</time>
      </trkpt>
      <trkpt lat="49.01986" lon="7.07188">
        <ele>202</ele>
        <time>2013-03-24T08:56:12Z</time>
      </trkpt>
      <trkpt lat="49.0199" lon="7.07201">
        <ele>202</ele>
        <time>2013-03-24T08:56:18Z</time>
      </trkpt>
      <trkpt lat="49.01993" lon="7.07215">
        <ele>202</ele>
        <time>2013-03-24T08:56:24Z</time>
      </trkpt>
      <trkpt lat="49.01997" lon="7.07228">
        <ele>202</ele>
        <time>2013-03-24T08:56:30Z</time>
      </trkpt>
      <trkpt lat="49.01999" lon="7.07242">
        <ele>203</ele>
        <time>2013-03-24T08:56:36Z</time>
      </trkpt>
      <trkpt lat="49.02002" lon="7.07255">
        <ele>203</ele>
        <time>2013-03-24T08:56:42Z</time>
      </trkpt>
      <trkpt lat="49.02004" lon="7.07269">
        <ele>203</ele>
        <time>2013-03-24T08:56:48Z</time>
      </trkpt>
      <trkpt lat="49.02006" lon="7.07284">
        <ele>204</ele>
        <time>2013-03-24T08:56:54Z</time>
      </trkpt>
      <trkpt lat="49.02008" lon="7.07297">
        <ele>204</ele>
        <time>2013-03-24T08:57:00Z</time>
      </trkpt>
      <trkpt lat="49.02008" lon="7.07311">
        <ele>204</ele>
        <time>2013-03-24T08:57:06Z</time>
      </trkpt>
      <trkpt lat="49.02009" lon="7.07325">
        <ele>204</ele>
        <time>2013-03-24T08:57:12Z</time>
      </trkpt>
      <trkpt lat="49.0201" lon="7.07339">
        <ele>204</ele>
        <time>2013-03-24T08:57:18Z</time>
      </trkpt>
      <trkpt lat="49.02011" lon="7.07352">
        <ele>204</ele>
        <time>2013-03-24T08:57:24Z</time>
      </trkpt>
      <trkpt lat="49.02011" lon="7.07366">
        <ele>204</ele>
        <time>2013-03-24T08:57:30Z</time>
      </trkpt>
      <trkpt lat="49.0201" lon="7.0738">
        <ele>204</ele>
        <time>2013-03-24T08:57:36Z</time>
      </trkpt>
      <trkpt lat="49.0201" lon="7.07394">
        <ele>204</ele>
        <time>2013-03-24T08:57:42Z</time>
      </trkpt>
      <trkpt lat="49.0201" lon="7.07408">
        <ele>204</ele>
        <time>2013-03-24T08:57:48Z</time>
      </trkpt>
      <trkpt lat="49.0201" lon="7.07421">
        <ele>204</ele>
        <time>2013-03-24T08:57:54Z</time>
      </trkpt>
      <trkpt lat="49.0201" lon="7.07435">
        <ele>205</ele>
        <time>2013-03-24T08:58:00Z</time>
      </trkpt>
      <trkpt lat="49.0201" lon="7.07449">
        <ele>205</ele>
        <time>2013-03-24T08:58:06Z</time>
      </trkpt>
      <trkpt lat="49.02011" lon="7.07462">
        <ele>206</ele>
        <time>2013-03-24T08:58:12Z</time>
      </trkpt>
      <trkpt lat="49.02013" lon="7.07475">
        <ele>206</ele>
        <time>2013-03-24T08:58:18Z</time>
      </trkpt>
      <trkpt lat="49.02014" lon="7.07489">
        <ele>206</ele>
        <time>2013-03-24T08:58:24Z</time>
      </trkpt>
      <trkpt lat="49.02016" lon="7.07502">
        <ele>206</ele>
        <time>2013-03-24T08:58:30Z</time>
      </trkpt>
      <trkpt lat="49.02018" lon="7.07515">
        <ele>207</ele>
        <time>2013-03-24T08:58:37Z</time>
      </trkpt>
      <trkpt lat="49.0202" lon="7.07531">
        <ele>207</ele>
        <time>2013-03-24T08:58:43Z</time>
      </trkpt>
      <trkpt lat="49.02022" lon="7.07543">
        <ele>207</ele>
        <time>2013-03-24T08:58:49Z</time>
      </trkpt>
      <trkpt lat="49.02024" lon="7.07556">
        <ele>207</ele>
        <time>2013-03-24T08:58:55Z</time>
      </trkpt>
      <trkpt lat="49.02028" lon="7.07566">
        <ele>207</ele>
        <time>2013-03-24T08:59:01Z</time>
      </trkpt>
      <trkpt lat="49.02035" lon="7.07575">
        <ele>207</ele>
        <time>2013-03-24T08:59:07Z</time>
      </trkpt>
      <trkpt lat="49.02043" lon="7.07582">
        <ele>207</ele>
        <time>2013-03-24T08:59:13Z</time>
      </trkpt>
      <trkpt lat="49.02051" lon="7.07587">
        <ele>207</ele>
        <time>2013-03-24T08:59:19Z</time>
      </trkpt>
      <trkpt lat="49.02059" lon="7.07594">
        <ele>207</ele>
        <time>2013-03-24T08:59:25Z</time>
      </trkpt>
      <trkpt lat="49.02068" lon="7.076">
        <ele>208</ele>
        <time>2013-03-24T08:59:31Z</time>
      </trkpt>
      <trkpt lat="49.02077" lon="7.07608">
        <ele>209</ele>
        <time>2013-03-24T08:59:37Z</time>
      </trkpt>
      <trkpt lat="49.02084" lon="7.07615">
        <ele>210</ele>
        <time>2013-03-24T08:59:43Z</time>
      </trkpt>
      <trkpt lat="49.02092" lon="7.07623">
        <ele>210</ele>
        <time>2013-03-24T08:59:49Z</time>
      </trkpt>
      <trkpt lat="49.02099" lon="7.0763">
        <ele>210</ele>
        <time>2013-03-24T08:59:55Z</time>
      </trkpt>
      <trkpt lat="49.02107" lon="7.07637">
        <ele>210</ele>
        <time>2013-03-24T09:00:01Z</time>
      </trkpt>
      <trkpt lat="49.02116" lon="7.07643">
        <ele>210</ele>
        <time>2013-03-24T09:00:08Z</time>
      </trkpt>
      <trkpt lat="49.02123" lon="7.07651">
        <ele>210</ele>
        <time>2013-03-24T09:00:14Z</time>
      </trkpt>
      <trkpt lat="49.02133" lon="7.07657">
        <ele>210</ele>
        <time>2013-03-24T09:00:20Z</time>
      </trkpt>
      <trkpt lat="49.0214" lon="7.07664">
        <ele>210</ele>
        <time>2013-03-24T09:00:26Z</time>
      </trkpt>
      <trkpt lat="49.02148" lon="7.07672">
        <ele>210</ele>
        <time>2013-03-24T09:00:32Z</time>
      </trkpt>
      <trkpt lat="49.02157" lon="7.07679">
        <ele>210</ele>
        <time>2013-03-24T09:00:38Z</time>
      </trkpt>
      <trkpt lat="49.02165" lon="7.07686">
        <ele>210</ele>
        <time>2013-03-24T09:00:44Z</time>
      </trkpt>
      <trkpt lat="49.02174" lon="7.07692">
        <ele>210</ele>
        <time>2013-03-24T09:00:50Z</time>
      </trkpt>
      <trkpt lat="49.02182" lon="7.07697">
        <ele>210</ele>
        <time>2013-03-24T09:00:56Z</time>
      </trkpt>
      <trkpt lat="49.02192" lon="7.077">
        <ele>210</ele>
        <time>2013-03-24T09:01:02Z</time>
      </trkpt>
      <trkpt lat="49.022" lon="7.07703">
        <ele>210</ele>
        <time>2013-03-24T09:01:08Z</time>
      </trkpt>
      <trkpt lat="49.02209" lon="7.077">
        <ele>210</ele>
        <time>2013-03-24T09:01:14Z</time>
      </trkpt>
      <trkpt lat="49.02217" lon="7.07692">
        <ele>210</ele>
        <time>2013-03-24T09:01:20Z</time>
      </trkpt>
      <trkpt lat="49.02225" lon="7.07682">
        <ele>210</ele>
        <time>2013-03-24T09:01:26Z</time>
      </trkpt>
      <trkpt lat="49.02233" lon="7.07674">
        <ele>212</ele>
        <time>2013-03-24T09:01:32Z</time>
      </trkpt>
      <trkpt lat="49.0224" lon="7.07665">
        <ele>212</ele>
        <time>2013-03-24T09:01:38Z</time>
      </trkpt>
      <trkpt lat="49.02247" lon="7.07655">
        <ele>212</ele>
        <time>2013-03-24T09:01:44Z</time>
      </trkpt>
      <trkpt lat="49.02254" lon="7.07645">
        <ele>212</ele>
        <time>2013-03-24T09:01:50Z</time>
      </trkpt>
      <trkpt lat="49.02262" lon="7.07635">
        <ele>213</ele>
        <time>2013-03-24T09:01:56Z</time>
      </trkpt>
      <trkpt lat="49.02269" lon="7.07625">
        <ele>213</ele>
        <time>2013-03-24T09:02:02Z</time>
      </trkpt>
      <trkpt lat="49.02274" lon="7.07614">
        <ele>213</ele>
        <time>2013-03-24T09:02:08Z</time>
      </trkpt>
      <trkpt lat="49.02279" lon="7.07602">
        <ele>213</ele>
        <time>2013-03-24T09:02:14Z</time>
      </trkpt>
      <trkpt lat="49.02284" lon="7.07591">
        <ele>213</ele>
        <time>2013-03-24T09:02:20Z</time>
      </trkpt>
      <trkpt lat="49.02289" lon="7.07579">
        <ele>213</ele>
        <time>2013-03-24T09:02:26Z</time>
      </trkpt>
      <trkpt lat="49.02293" lon="7.07566">
        <ele>213</ele>
        <time>2013-03-24T09:02:32Z</time>
      </trkpt>
      <trkpt lat="49.02298" lon="7.07553">
        <ele>213</ele>
        <time>2013-03-24T09:02:38Z</time>
      </trkpt>
      <trkpt lat="49.02303" lon="7.0754">
        <ele>213</ele>
        <time>2013-03-24T09:02:44Z</time>
      </trkpt>
      <trkpt lat="49.02308" lon="7.07526">
        <ele>213</ele>
        <time>2013-03-24T09:02:50Z</time>
      </trkpt>
      <trkpt lat="49.02312" lon="7.07512">
        <ele>213</ele>
        <time>2013-03-24T09:02:56Z</time>
      </trkpt>
      <trkpt lat="49.02316" lon="7.07499">
        <ele>213</ele>
        <time>2013-03-24T09:03:02Z</time>
      </trkpt>
      <trkpt lat="49.02321" lon="7.07486">
        <ele>213</ele>
        <time>2013-03-24T09:03:08Z</time>
      </trkpt>
      <trkpt lat="49.02325" lon="7.07474">
        <ele>213</ele>
        <time>2013-03-24T09:03:14Z</time>
      </trkpt>
      <trkpt lat="49.02331" lon="7.07465">
        <ele>213</ele>
        <time>2013-03-24T09:03:20Z</time>
      </trkpt>
      <trkpt lat="49.02337" lon="7.07453">
        <ele>213</ele>
        <time>2013-03-24T09:03:26Z</time>
      </trkpt>
      <trkpt lat="49.02343" lon="7.0744">
        <ele>213</ele>
        <time>2013-03-24T09:03:32Z</time>
      </trkpt>
      <trkpt lat="49.0235" lon="7.0743">
        <ele>213</ele>
        <time>2013-03-24T09:03:38Z</time>
      </trkpt>
      <trkpt lat="49.02358" lon="7.07422">
        <ele>213</ele>
        <time>2013-03-24T09:03:44Z</time>
      </trkpt>
      <trkpt lat="49.02366" lon="7.07414">
        <ele>213</ele>
        <time>2013-03-24T09:03:50Z</time>
      </trkpt>
      <trkpt lat="49.02375" lon="7.07408">
        <ele>213</ele>
        <time>2013-03-24T09:03:56Z</time>
      </trkpt>
      <trkpt lat="49.02384" lon="7.07402">
        <ele>213</ele>
        <time>2013-03-24T09:04:02Z</time>
      </trkpt>
      <trkpt lat="49.02392" lon="7.07394">
        <ele>213</ele>
        <time>2013-03-24T09:04:08Z</time>
      </trkpt>
      <trkpt lat="49.02401" lon="7.07388">
        <ele>213</ele>
        <time>2013-03-24T09:04:14Z</time>
      </trkpt>
      <trkpt lat="49.02409" lon="7.0738">
        <ele>213</ele>
        <time>2013-03-24T09:04:20Z</time>
      </trkpt>
      <trkpt lat="49.02418" lon="7.07374">
        <ele>213</ele>
        <time>2013-03-24T09:04:26Z</time>
      </trkpt>
      <trkpt lat="49.02427" lon="7.07367">
        <ele>213</ele>
        <time>2013-03-24T09:04:32Z</time>
      </trkpt>
      <trkpt lat="49.02435" lon="7.0736">
        <ele>213</ele>
        <time>2013-03-24T09:04:38Z</time>
      </trkpt>
      <trkpt lat="49.02443" lon="7.07353">
        <ele>213</ele>
        <time>2013-03-24T09:04:44Z</time>
      </trkpt>
      <trkpt lat="49.02451" lon="7.07345">
        <ele>213</ele>
        <time>2013-03-24T09:04:50Z</time>
      </trkpt>
      <trkpt lat="49.0246" lon="7.07337">
        <ele>213</ele>
        <time>2013-03-24T09:04:56Z</time>
      </trkpt>
      <trkpt lat="49.02469" lon="7.0733">
        <ele>213</ele>
        <time>2013-03-24T09:05:02Z</time>
      </trkpt>
      <trkpt lat="49.02477" lon="7.07323">
        <ele>213</ele>
        <time>2013-03-24T09:05:08Z</time>
      </trkpt>
      <trkpt lat="49.02485" lon="7.07315">
        <ele>213</ele>
        <time>2013-03-24T09:05:14Z</time>
      </trkpt>
      <trkpt lat="49.02493" lon="7.07308">
        <ele>213</ele>
        <time>2013-03-24T09:05:20Z</time>
      </trkpt>
      <trkpt lat="49.02502" lon="7.073">
        <ele>214</ele>
        <time>2013-03-24T09:05:26Z</time>
      </trkpt>
      <trkpt lat="49.0251" lon="7.07293">
        <ele>215</ele>
        <time>2013-03-24T09:05:32Z</time>
      </trkpt>
      <trkpt lat="49.02518" lon="7.07285">
        <ele>216</ele>
        <time>2013-03-24T09:05:38Z</time>
      </trkpt>
      <trkpt lat="49.02526" lon="7.07279">
        <ele>217</ele>
        <time>2013-03-24T09:05:44Z</time>
      </trkpt>
      <trkpt lat="49.02534" lon="7.07272">
        <ele>218</ele>
        <time>2013-03-24T09:05:50Z</time>
      </trkpt>
      <trkpt lat="49.02542" lon="7.07265">
        <ele>219</ele>
        <time>2013-03-24T09:05:56Z</time>
      </trkpt>
      <trkpt lat="49.0255" lon="7.07258">
        <ele>220</ele>
        <time>2013-03-24T09:06:02Z</time>
      </trkpt>
      <trkpt lat="49.02559" lon="7.07251">
        <ele>220</ele>
        <time>2013-03-24T09:06:08Z</time>
      </trkpt>
      <trkpt lat="49.02567" lon="7.07245">
        <ele>220</ele>
        <time>2013-03-24T09:06:14Z</time>
      </trkpt>
      <trkpt lat="49.02576" lon="7.07237">
        <ele>220</ele>
        <time>2013-03-24T09:06:20Z</time>
      </trkpt>
      <trkpt lat="49.02584" lon="7.07231">
        <ele>220</ele>
        <time>2013-03-24T09:06:26Z</time>
      </trkpt>
      <trkpt lat="49.02592" lon="7.07225">
        <ele>220</ele>
        <time>2013-03-24T09:06:32Z</time>
      </trkpt>
      <trkpt lat="49.026" lon="7.07219">
        <ele>220</ele>
        <time>2013-03-24T09:06:38Z</time>
      </trkpt>
      <trkpt lat="49.02608" lon="7.07212">
        <ele>220</ele>
        <time>2013-03-24T09:06:44Z</time>
      </trkpt>
      <trkpt lat="49.02617" lon="7.07206">
        <ele>220</ele>
        <time>2013-03-24T09:06:50Z</time>
      </trkpt>
      <trkpt lat="49.02625" lon="7.072">
        <ele>220</ele>
        <time>2013-03-24T09:06:56Z</time>
      </trkpt>
      <trkpt lat="49.02633" lon="7.07194">
        <ele>221</ele>
        <time>2013-03-24T09:07:02Z</time>
      </trkpt>
      <trkpt lat="49.02642" lon="7.07187">
        <ele>221</ele>
        <time>2013-03-24T09:07:08Z</time>
      </trkpt>
      <trkpt lat="49.0265" lon="7.0718">
        <ele>221</ele>
        <time>2013-03-24T09:07:14Z</time>
      </trkpt>
      <trkpt lat="49.02658" lon="7.07175">
        <ele>221</ele>
        <time>2013-03-24T09:07:20Z</time>
      </trkpt>
      <trkpt lat="49.02666" lon="7.07168">
        <ele>222</ele>
        <time>2013-03-24T09:07:26Z</time>
      </trkpt>
      <trkpt lat="49.02674" lon="7.07161">
        <ele>223</ele>
        <time>2013-03-24T09:07:32Z</time>
      </trkpt>
      <trkpt lat="49.02682" lon="7.07154">
        <ele>224</ele>
        <time>2013-03-24T09:07:38Z</time>
      </trkpt>
      <trkpt lat="49.02691" lon="7.0715">
        <ele>225</ele>
        <time>2013-03-24T09:07:44Z</time>
      </trkpt>
      <trkpt lat="49.027" lon="7.07144">
        <ele>225</ele>
        <time>2013-03-24T09:07:50Z</time>
      </trkpt>
      <trkpt lat="49.02708" lon="7.07138">
        <ele>225</ele>
        <time>2013-03-24T09:07:56Z</time>
      </trkpt>
      <trkpt lat="49.02717" lon="7.07131">
        <ele>225</ele>
        <time>2013-03-24T09:08:02Z</time>
      </trkpt>
      <trkpt lat="49.02725" lon="7.07125">
        <ele>226</ele>
        <time>2013-03-24T09:08:08Z</time>
      </trkpt>
      <trkpt lat="49.02733" lon="7.07119">
        <ele>227</ele>
        <time>2013-03-24T09:08:14Z</time>
      </trkpt>
      <trkpt lat="49.02742" lon="7.07114">
        <ele>227</ele>
        <time>2013-03-24T09:08:20Z</time>
      </trkpt>
      <trkpt lat="49.0275" lon="7.07108">
        <ele>228</ele>
        <time>2013-03-24T09:08:26Z</time>
      </trkpt>
      <trkpt lat="49.02759" lon="7.07102">
        <ele>228</ele>
        <time>2013-03-24T09:08:32Z</time>
      </trkpt>
      <trkpt lat="49.02767" lon="7.07098">
        <ele>229</ele>
        <time>2013-03-24T09:08:38Z</time>
      </trkpt>
      <trkpt lat="49.02776" lon="7.07091">
        <ele>230</ele>
        <time>2013-03-24T09:08:44Z</time>
      </trkpt>
      <trkpt lat="49.02785" lon="7.07087">
        <ele>230</ele>
        <time>2013-03-24T09:08:50Z</time>
      </trkpt>
      <trkpt lat="49.02794" lon="7.07082">
        <ele>230</ele>
        <time>2013-03-24T09:08:56Z</time>
      </trkpt>
      <trkpt lat="49.02802" lon="7.07075">
        <ele>230</ele>
        <time>2013-03-24T09:09:02Z</time>
      </trkpt>
      <trkpt lat="49.0281" lon="7.07069">
        <ele>230</ele>
        <time>2013-03-24T09:09:08Z</time>
      </trkpt>
      <trkpt lat="49.02819" lon="7.07066">
        <ele>230</ele>
        <time>2013-03-24T09:09:14Z</time>
      </trkpt>
      <trkpt lat="49.02827" lon="7.07061">
        <ele>230</ele>
        <time>2013-03-24T09:09:20Z</time>
      </trkpt>
      <trkpt lat="49.02837" lon="7.07055">
        <ele>230</ele>
        <time>2013-03-24T09:09:26Z</time>
      </trkpt>
      <trkpt lat="49.02845" lon="7.07045">
        <ele>230</ele>
        <time>2013-03-24T09:09:32Z</time>
      </trkpt>
      <trkpt lat="49.02854" lon="7.07039">
        <ele>230</ele>
        <time>2013-03-24T09:09:38Z</time>
      </trkpt>
      <trkpt lat="49.02863" lon="7.07033">
        <ele>230</ele>
        <time>2013-03-24T09:09:44Z</time>
      </trkpt>
      <trkpt lat="49.02873" lon="7.07024">
        <ele>231</ele>
        <time>2013-03-24T09:09:51Z</time>
      </trkpt>
      <trkpt lat="49.02883" lon="7.07017">
        <ele>233</ele>
        <time>2013-03-24T09:09:57Z</time>
      </trkpt>
      <trkpt lat="49.02892" lon="7.07012">
        <ele>233</ele>
        <time>2013-03-24T09:10:03Z</time>
      </trkpt>
      <trkpt lat="49.02901" lon="7.07006">
        <ele>233</ele>
        <time>2013-03-24T09:10:09Z</time>
      </trkpt>
      <trkpt lat="49.0291" lon="7.07004">
        <ele>233</ele>
        <time>2013-03-24T09:10:15Z</time>
      </trkpt>
      <trkpt lat="49.02919" lon="7.07001">
        <ele>233</ele>
        <time>2013-03-24T09:10:21Z</time>
      </trkpt>
      <trkpt lat="49.02929" lon="7.06999">
        <ele>234</ele>
        <time>2013-03-24T09:10:27Z</time>
      </trkpt>
      <trkpt lat="49.02937" lon="7.06994">
        <ele>234</ele>
        <time>2013-03-24T09:10:33Z</time>
      </trkpt>
      <trkpt lat="49.02947" lon="7.06995">
        <ele>235</ele>
        <time>2013-03-24T09:10:39Z</time>
      </trkpt>
      <trkpt lat="49.02954" lon="7.06992">
        <ele>235</ele>
        <time>2013-03-24T09:10:45Z</time>
      </trkpt>
      <trkpt lat="49.02965" lon="7.0699">
        <ele>236</ele>
        <time>2013-03-24T09:10:51Z</time>
      </trkpt>
      <trkpt lat="49.02973" lon="7.06988">
        <ele>237</ele>
        <time>2013-03-24T09:10:57Z</time>
      </trkpt>
      <trkpt lat="49.02982" lon="7.06983">
        <ele>238</ele>
        <time>2013-03-24T09:11:03Z</time>
      </trkpt>
      <trkpt lat="49.0299" lon="7.06982">
        <ele>238</ele>
        <time>2013-03-24T09:11:09Z</time>
      </trkpt>
      <trkpt lat="49.03001" lon="7.06983">
        <ele>240</ele>
        <time>2013-03-24T09:11:15Z</time>
      </trkpt>
      <trkpt lat="49.03008" lon="7.06979">
        <ele>241</ele>
        <time>2013-03-24T09:11:21Z</time>
      </trkpt>
      <trkpt lat="49.03017" lon="7.06976">
        <ele>241</ele>
        <time>2013-03-24T09:11:27Z</time>
      </trkpt>
      <trkpt lat="49.03026" lon="7.06973">
        <ele>241</ele>
        <time>2013-03-24T09:11:33Z</time>
      </trkpt>
      <trkpt lat="49.03035" lon="7.06971">
        <ele>241</ele>
        <time>2013-03-24T09:11:39Z</time>
      </trkpt>
      <trkpt lat="49.03046" lon="7.06968">
        <ele>241</ele>
        <time>2013-03-24T09:11:45Z</time>
      </trkpt>
      <trkpt lat="49.03056" lon="7.06968">
        <ele>241</ele>
        <time>2013-03-24T09:11:51Z</time>
      </trkpt>
      <trkpt lat="49.03068" lon="7.06967">
        <ele>241</ele>
        <time>2013-03-24T09:11:57Z</time>
      </trkpt>
      <trkpt lat="49.03079" lon="7.06967">
        <ele>241</ele>
        <time>2013-03-24T09:12:03Z</time>
      </trkpt>
      <trkpt lat="49.03089" lon="7.06965">
        <ele>241</ele>
        <time>2013-03-24T09:12:09Z</time>
      </trkpt>
      <trkpt lat="49.03099" lon="7.06965">
        <ele>241</ele>
        <time>2013-03-24T09:12:15Z</time>
      </trkpt>
      <trkpt lat="49.03109" lon="7.06964">
        <ele>241</ele>
        <time>2013-03-24T09:12:21Z</time>
      </trkpt>
      <trkpt lat="49.03118" lon="7.06961">
        <ele>241</ele>
        <time>2013-03-24T09:12:27Z</time>
      </trkpt>
      <trkpt lat="49.03128" lon="7.06959">
        <ele>241</ele>
        <time>2013-03-24T09:12:33Z</time>
      </trkpt>
      <trkpt lat="49.03137" lon="7.06957">
        <ele>241</ele>
        <time>2013-03-24T09:12:39Z</time>
      </trkpt>
      <trkpt lat="49.03147" lon="7.06953">
        <ele>241</ele>
        <time>2013-03-24T09:12:45Z</time>
      </trkpt>
      <trkpt lat="49.03156" lon="7.0695">
        <ele>241</ele>
        <time>2013-03-24T09:12:51Z</time>
      </trkpt>
      <trkpt lat="49.03165" lon="7.06947">
        <ele>241</ele>
        <time>2013-03-24T09:12:57Z</time>
      </trkpt>
      <trkpt lat="49.03175" lon="7.06945">
        <ele>241</ele>
        <time>2013-03-24T09:13:03Z</time>
      </trkpt>
      <trkpt lat="49.03184" lon="7.06943">
        <ele>241</ele>
        <time>2013-03-24T09:13:09Z</time>
      </trkpt>
      <trkpt lat="49.03195" lon="7.06941">
        <ele>241</ele>
        <time>2013-03-24T09:13:15Z</time>
      </trkpt>
      <trkpt lat="49.03204" lon="7.06939">
        <ele>241</ele>
        <time>2013-03-24T09:13:21Z</time>
      </trkpt>
      <trkpt lat="49.03214" lon="7.06938">
        <ele>241</ele>
        <time>2013-03-24T09:13:27Z</time>
      </trkpt>
      <trkpt lat="49.03223" lon="7.06937">
        <ele>239</ele>
        <time>2013-03-24T09:13:33Z</time>
      </trkpt>
      <trkpt lat="49.03231" lon="7.06937">
        <ele>235</ele>
        <time>2013-03-24T09:13:39Z</time>
      </trkpt>
      <trkpt lat="49.03239" lon="7.06935">
        <ele>234</ele>
        <time>2013-03-24T09:13:45Z</time>
      </trkpt>
      <trkpt lat="49.03249" lon="7.0693">
        <ele>234</ele>
        <time>2013-03-24T09:13:51Z</time>
      </trkpt>
      <trkpt lat="49.03259" lon="7.06924">
        <ele>234</ele>
        <time>2013-03-24T09:13:57Z</time>
      </trkpt>
      <trkpt lat="49.03271" lon="7.06922">
        <ele>234</ele>
        <time>2013-03-24T09:14:03Z</time>
      </trkpt>
      <trkpt lat="49.03281" lon="7.0692">
        <ele>234</ele>
        <time>2013-03-24T09:14:09Z</time>
      </trkpt>
      <trkpt lat="49.03289" lon="7.06918">
        <ele>234</ele>
        <time>2013-03-24T09:14:15Z</time>
      </trkpt>
      <trkpt lat="49.03299" lon="7.06916">
        <ele>234</ele>
        <time>2013-03-24T09:14:21Z</time>
      </trkpt>
      <trkpt lat="49.0331" lon="7.06911">
        <ele>234</ele>
        <time>2013-03-24T09:14:27Z</time>
      </trkpt>
      <trkpt lat="49.03319" lon="7.06909">
        <ele>234</ele>
        <time>2013-03-24T09:14:33Z</time>
      </trkpt>
      <trkpt lat="49.03328" lon="7.06907">
        <ele>233</ele>
        <time>2013-03-24T09:14:39Z</time>
      </trkpt>
      <trkpt lat="49.03339" lon="7.06903">
        <ele>233</ele>
        <time>2013-03-24T09:14:45Z</time>
      </trkpt>
      <trkpt lat="49.03349" lon="7.06901">
        <ele>232</ele>
        <time>2013-03-24T09:14:51Z</time>
      </trkpt>
      <trkpt lat="49.03356" lon="7.06895">
        <ele>232</ele>
        <time>2013-03-24T09:14:57Z</time>
      </trkpt>
      <trkpt lat="49.03365" lon="7.06889">
        <ele>232</ele>
        <time>2013-03-24T09:15:03Z</time>
      </trkpt>
      <trkpt lat="49.03374" lon="7.06886">
        <ele>232</ele>
        <time>2013-03-24T09:15:09Z</time>
      </trkpt>
      <trkpt lat="49.03383" lon="7.0688">
        <ele>231</ele>
        <time>2013-03-24T09:15:15Z</time>
      </trkpt>
      <trkpt lat="49.03392" lon="7.06876">
        <ele>231</ele>
        <time>2013-03-24T09:15:21Z</time>
      </trkpt>
      <trkpt lat="49.034" lon="7.06872">
        <ele>230</ele>
        <time>2013-03-24T09:15:27Z</time>
      </trkpt>
      <trkpt lat="49.03408" lon="7.06869">
        <ele>228</ele>
        <time>2013-03-24T09:15:33Z</time>
      </trkpt>
      <trkpt lat="49.03419" lon="7.06866">
        <ele>228</ele>
        <time>2013-03-24T09:15:39Z</time>
      </trkpt>
      <trkpt lat="49.03426" lon="7.06869">
        <ele>226</ele>
        <time>2013-03-24T09:15:45Z</time>
      </trkpt>
      <trkpt lat="49.03432" lon="7.06874">
        <ele>225</ele>
        <time>2013-03-24T09:15:51Z</time>
      </trkpt>
      <trkpt lat="49.03441" lon="7.0688">
        <ele>225</ele>
        <time>2013-03-24T09:15:57Z</time>
      </trkpt>
      <trkpt lat="49.03449" lon="7.06887">
        <ele>225</ele>
        <time>2013-03-24T09:16:03Z</time>
      </trkpt>
      <trkpt lat="49.0346" lon="7.06893">
        <ele>226</ele>
        <time>2013-03-24T09:16:09Z</time>
      </trkpt>
      <trkpt lat="49.03467" lon="7.06898">
        <ele>228</ele>
        <time>2013-03-24T09:16:15Z</time>
      </trkpt>
      <trkpt lat="49.03474" lon="7.06904">
        <ele>229</ele>
        <time>2013-03-24T09:16:21Z</time>
      </trkpt>
      <trkpt lat="49.03482" lon="7.0691">
        <ele>231</ele>
        <time>2013-03-24T09:16:28Z</time>
      </trkpt>
      <trkpt lat="49.03492" lon="7.06915">
        <ele>232</ele>
        <time>2013-03-24T09:16:34Z</time>
      </trkpt>
      <trkpt lat="49.03499" lon="7.06919">
        <ele>233</ele>
        <time>2013-03-24T09:16:40Z</time>
      </trkpt>
      <trkpt lat="49.03506" lon="7.06925">
        <ele>234</ele>
        <time>2013-03-24T09:16:46Z</time>
      </trkpt>
      <trkpt lat="49.03513" lon="7.0693">
        <ele>234</ele>
        <time>2013-03-24T09:16:52Z</time>
      </trkpt>
      <trkpt lat="49.03519" lon="7.06937">
        <ele>234</ele>
        <time>2013-03-24T09:16:58Z</time>
      </trkpt>
      <trkpt lat="49.03527" lon="7.06941">
        <ele>236</ele>
        <time>2013-03-24T09:17:04Z</time>
      </trkpt>
      <trkpt lat="49.03537" lon="7.06949">
        <ele>241</ele>
        <time>2013-03-24T09:17:10Z</time>
      </trkpt>
      <trkpt lat="49.03545" lon="7.06955">
        <ele>243</ele>
        <time>2013-03-24T09:17:16Z</time>
      </trkpt>
      <trkpt lat="49.03552" lon="7.0696">
        <ele>245</ele>
        <time>2013-03-24T09:17:22Z</time>
      </trkpt>
      <trkpt lat="49.03559" lon="7.06966">
        <ele>245</ele>
        <time>2013-03-24T09:17:28Z</time>
      </trkpt>
      <trkpt lat="49.03566" lon="7.0697">
        <ele>245</ele>
        <time>2013-03-24T09:17:34Z</time>
      </trkpt>
      <trkpt lat="49.03573" lon="7.06976">
        <ele>245</ele>
        <time>2013-03-24T09:17:40Z</time>
      </trkpt>
      <trkpt lat="49.03581" lon="7.06981">
        <ele>245</ele>
        <time>2013-03-24T09:17:46Z</time>
      </trkpt>
      <trkpt lat="49.03591" lon="7.06991">
        <ele>246</ele>
        <time>2013-03-24T09:17:53Z</time>
      </trkpt>
      <trkpt lat="49.03597" lon="7.06999">
        <ele>246</ele>
        <time>2013-03-24T09:17:59Z</time>
      </trkpt>
      <trkpt lat="49.03604" lon="7.07004">
        <ele>246</ele>
        <time>2013-03-24T09:18:05Z</time>
      </trkpt>
      <trkpt lat="49.03612" lon="7.07011">
        <ele>246</ele>
        <time>2013-03-24T09:18:11Z</time>
      </trkpt>
      <trkpt lat="49.0362" lon="7.07019">
        <ele>246</ele>
        <time>2013-03-24T09:18:17Z</time>
      </trkpt>
      <trkpt lat="49.0363" lon="7.07026">
        <ele>245</ele>
        <time>2013-03-24T09:18:23Z</time>
      </trkpt>
      <trkpt lat="49.03638" lon="7.07033">
        <ele>242</ele>
        <time>2013-03-24T09:18:29Z</time>
      </trkpt>
      <trkpt lat="49.03647" lon="7.0704">
        <ele>242</ele>
        <time>2013-03-24T09:18:35Z</time>
      </trkpt>
      <trkpt lat="49.03654" lon="7.07048">
        <ele>240</ele>
        <time>2013-03-24T09:18:41Z</time>
      </trkpt>
      <trkpt lat="49.03661" lon="7.07054">
        <ele>240</ele>
        <time>2013-03-24T09:18:47Z</time>
      </trkpt>
      <trkpt lat="49.03667" lon="7.07059">
        <ele>240</ele>
        <time>2013-03-24T09:18:54Z</time>
      </trkpt>
      <trkpt lat="49.03673" lon="7.07064">
        <ele>240</ele>
        <time>2013-03-24T09:19:00Z</time>
      </trkpt>
      <trkpt lat="49.03681" lon="7.07068">
        <ele>241</ele>
        <time>2013-03-24T09:19:06Z</time>
      </trkpt>
      <trkpt lat="49.0369" lon="7.07074">
        <ele>244</ele>
        <time>2013-03-24T09:19:13Z</time>
      </trkpt>
      <trkpt lat="49.03701" lon="7.07078">
        <ele>247</ele>
        <time>2013-03-24T09:19:19Z</time>
      </trkpt>
      <trkpt lat="49.0371" lon="7.07083">
        <ele>249</ele>
        <time>2013-03-24T09:19:25Z</time>
      </trkpt>
      <trkpt lat="49.03717" lon="7.07089">
        <ele>250</ele>
        <time>2013-03-24T09:19:31Z</time>
      </trkpt>
      <trkpt lat="49.03725" lon="7.07094">
        <ele>250</ele>
        <time>2013-03-24T09:19:37Z</time>
      </trkpt>
      <trkpt lat="49.03734" lon="7.07098">
        <ele>250</ele>
        <time>2013-03-24T09:19:43Z</time>
      </trkpt>
      <trkpt lat="49.03742" lon="7.07103">
        <ele>250</ele>
        <time>2013-03-24T09:19:49Z</time>
      </trkpt>
      <trkpt lat="49.03751" lon="7.07107">
        <ele>250</ele>
        <time>2013-03-24T09:19:56Z</time>
      </trkpt>
      <trkpt lat="49.03765" lon="7.07113">
        <ele>251</ele>
        <time>2013-03-24T09:20:02Z</time>
      </trkpt>
      <trkpt lat="49.03774" lon="7.07117">
        <ele>254</ele>
        <time>2013-03-24T09:20:08Z</time>
      </trkpt>
      <trkpt lat="49.03782" lon="7.07122">
        <ele>254</ele>
        <time>2013-03-24T09:20:14Z</time>
      </trkpt>
      <trkpt lat="49.03791" lon="7.07128">
        <ele>255</ele>
        <time>2013-03-24T09:20:20Z</time>
      </trkpt>
      <trkpt lat="49.03798" lon="7.0713">
        <ele>255</ele>
        <time>2013-03-24T09:20:26Z</time>
      </trkpt>
      <trkpt lat="49.03806" lon="7.07135">
        <ele>255</ele>
        <time>2013-03-24T09:20:32Z</time>
      </trkpt>
      <trkpt lat="49.03814" lon="7.07138">
        <ele>255</ele>
        <time>2013-03-24T09:20:38Z</time>
      </trkpt>
      <trkpt lat="49.03823" lon="7.07144">
        <ele>255</ele>
        <time>2013-03-24T09:20:44Z</time>
      </trkpt>
      <trkpt lat="49.03833" lon="7.07148">
        <ele>254</ele>
        <time>2013-03-24T09:20:50Z</time>
      </trkpt>
      <trkpt lat="49.03843" lon="7.07153">
        <ele>254</ele>
        <time>2013-03-24T09:20:56Z</time>
      </trkpt>
      <trkpt lat="49.03852" lon="7.07156">
        <ele>254</ele>
        <time>2013-03-24T09:21:02Z</time>
      </trkpt>
      <trkpt lat="49.03861" lon="7.0716">
        <ele>252</ele>
        <time>2013-03-24T09:21:08Z</time>
      </trkpt>
      <trkpt lat="49.03871" lon="7.07165">
        <ele>252</ele>
        <time>2013-03-24T09:21:14Z</time>
      </trkpt>
      <trkpt lat="49.03879" lon="7.0717">
        <ele>251</ele>
        <time>2013-03-24T09:21:20Z</time>
      </trkpt>
      <trkpt lat="49.03889" lon="7.07175">
        <ele>251</ele>
        <time>2013-03-24T09:21:26Z</time>
      </trkpt>
      <trkpt lat="49.039" lon="7.07181">
        <ele>249</ele>
        <time>2013-03-24T09:21:32Z</time>
      </trkpt>
      <trkpt lat="49.03909" lon="7.07187">
        <ele>246</ele>
        <time>2013-03-24T09:21:38Z</time>
      </trkpt>
      <trkpt lat="49.03917" lon="7.0719">
        <ele>245</ele>
        <time>2013-03-24T09:21:44Z</time>
      </trkpt>
      <trkpt lat="49.03927" lon="7.07193">
        <ele>245</ele>
        <time>2013-03-24T09:21:50Z</time>
      </trkpt>
      <trkpt lat="49.03937" lon="7.07198">
        <ele>245</ele>
        <time>2013-03-24T09:21:56Z</time>
      </trkpt>
      <trkpt lat="49.03949" lon="7.07202">
        <ele>245</ele>
        <time>2013-03-24T09:22:02Z</time>
      </trkpt>
      <trkpt lat="49.0396" lon="7.07204">
        <ele>245</ele>
        <time>2013-03-24T09:22:08Z</time>
      </trkpt>
      <trkpt lat="49.03969" lon="7.0721">
        <ele>245</ele>
        <time>2013-03-24T09:22:14Z</time>
      </trkpt>
      <trkpt lat="49.03976" lon="7.07216">
        <ele>245</ele>
        <time>2013-03-24T09:22:20Z</time>
      </trkpt>
      <trkpt lat="49.03985" lon="7.07219">
        <ele>245</ele>
        <time>2013-03-24T09:22:27Z</time>
      </trkpt>
      <trkpt lat="49.03994" lon="7.07222">
        <ele>245</ele>
        <time>2013-03-24T09:22:33Z</time>
      </trkpt>
      <trkpt lat="49.04005" lon="7.07224">
        <ele>245</ele>
        <time>2013-03-24T09:22:39Z</time>
      </trkpt>
      <trkpt lat="49.04014" lon="7.07228">
        <ele>245</ele>
        <time>2013-03-24T09:22:45Z</time>
      </trkpt>
      <trkpt lat="49.04023" lon="7.07232">
        <ele>245</ele>
        <time>2013-03-24T09:22:51Z</time>
      </trkpt>
      <trkpt lat="49.04027" lon="7.07237">
        <ele>242</ele>
        <time>2013-03-24T09:22:58Z</time>
      </trkpt>
      <trkpt lat="49.0404" lon="7.07245">
        <ele>240</ele>
        <time>2013-03-24T09:23:04Z</time>
      </trkpt>
      <trkpt lat="49.04051" lon="7.07254">
        <ele>240</ele>
        <time>2013-03-24T09:23:10Z</time>
      </trkpt>
      <trkpt lat="49.04062" lon="7.07262">
        <ele>238</ele>
        <time>2013-03-24T09:23:16Z</time>
      </trkpt>
      <trkpt lat="49.04071" lon="7.07271">
        <ele>234</ele>
        <time>2013-03-24T09:23:23Z</time>
      </trkpt>
      <trkpt lat="49.0408" lon="7.07279">
        <ele>229</ele>
        <time>2013-03-24T09:23:30Z</time>
      </trkpt>
      <trkpt lat="49.04087" lon="7.07287">
        <ele>226</ele>
        <time>2013-03-24T09:23:37Z</time>
      </trkpt>
      <trkpt lat="49.041" lon="7.07291">
        <ele>226</ele>
        <time>2013-03-24T09:23:43Z</time>
      </trkpt>
      <trkpt lat="49.04109" lon="7.07299">
        <ele>228</ele>
        <time>2013-03-24T09:23:49Z</time>
      </trkpt>
      <trkpt lat="49.0412" lon="7.07307">
        <ele>231</ele>
        <time>2013-03-24T09:23:55Z</time>
      </trkpt>
      <trkpt lat="49.04129" lon="7.07318">
        <ele>234</ele>
        <time>2013-03-24T09:24:02Z</time>
      </trkpt>
      <trkpt lat="49.04136" lon="7.07326">
        <ele>235</ele>
        <time>2013-03-24T09:24:08Z</time>
      </trkpt>
      <trkpt lat="49.04145" lon="7.07334">
        <ele>235</ele>
        <time>2013-03-24T09:24:15Z</time>
      </trkpt>
      <trkpt lat="49.04149" lon="7.07342">
        <ele>235</ele>
        <time>2013-03-24T09:24:21Z</time>
      </trkpt>
      <trkpt lat="49.04156" lon="7.07352">
        <ele>235</ele>
        <time>2013-03-24T09:24:27Z</time>
      </trkpt>
      <trkpt lat="49.04164" lon="7.07361">
        <ele>235</ele>
        <time>2013-03-24T09:24:33Z</time>
      </trkpt>
      <trkpt lat="49.04171" lon="7.07369">
        <ele>235</ele>
        <time>2013-03-24T09:24:39Z</time>
      </trkpt>
      <trkpt lat="49.04181" lon="7.07378">
        <ele>236</ele>
        <time>2013-03-24T09:24:45Z</time>
      </trkpt>
      <trkpt lat="49.04188" lon="7.07386">
        <ele>236</ele>
        <time>2013-03-24T09:24:51Z</time>
      </trkpt>
      <trkpt lat="49.04196" lon="7.07393">
        <ele>236</ele>
        <time>2013-03-24T09:24:57Z</time>
      </trkpt>
      <trkpt lat="49.04204" lon="7.07401">
        <ele>236</ele>
        <time>2013-03-24T09:25:03Z</time>
      </trkpt>
      <trkpt lat="49.04213" lon="7.07409">
        <ele>239</ele>
        <time>2013-03-24T09:25:10Z</time>
      </trkpt>
      <trkpt lat="49.04222" lon="7.0742">
        <ele>239</ele>
        <time>2013-03-24T09:25:17Z</time>
      </trkpt>
      <trkpt lat="49.04228" lon="7.07429">
        <ele>239</ele>
        <time>2013-03-24T09:25:23Z</time>
      </trkpt>
      <trkpt lat="49.04235" lon="7.07439">
        <ele>239</ele>
        <time>2013-03-24T09:25:29Z</time>
      </trkpt>
      <trkpt lat="49.04239" lon="7.07446">
        <ele>241</ele>
        <time>2013-03-24T09:25:35Z</time>
      </trkpt>
      <trkpt lat="49.04245" lon="7.07456">
        <ele>242</ele>
        <time>2013-03-24T09:25:41Z</time>
      </trkpt>
      <trkpt lat="49.04251" lon="7.07465">
        <ele>242</ele>
        <time>2013-03-24T09:25:47Z</time>
      </trkpt>
      <trkpt lat="49.04259" lon="7.07475">
        <ele>242</ele>
        <time>2013-03-24T09:25:54Z</time>
      </trkpt>
      <trkpt lat="49.04268" lon="7.07486">
        <ele>243</ele>
        <time>2013-03-24T09:26:01Z</time>
      </trkpt>
      <trkpt lat="49.04274" lon="7.07494">
        <ele>247</ele>
        <time>2013-03-24T09:26:07Z</time>
      </trkpt>
      <trkpt lat="49.0428" lon="7.07504">
        <ele>250</ele>
        <time>2013-03-24T09:26:13Z</time>
      </trkpt>
      <trkpt lat="49.04288" lon="7.07512">
        <ele>251</ele>
        <time>2013-03-24T09:26:19Z</time>
      </trkpt>
      <trkpt lat="49.04296" lon="7.07522">
        <ele>251</ele>
        <time>2013-03-24T09:26:25Z</time>
      </trkpt>
      <trkpt lat="49.04302" lon="7.07533">
        <ele>253</ele>
        <time>2013-03-24T09:26:31Z</time>
      </trkpt>
      <trkpt lat="49.04308" lon="7.07543">
        <ele>254</ele>
        <time>2013-03-24T09:26:37Z</time>
      </trkpt>
      <trkpt lat="49.04316" lon="7.07553">
        <ele>254</ele>
        <time>2013-03-24T09:26:43Z</time>
      </trkpt>
      <trkpt lat="49.04323" lon="7.07564">
        <ele>256</ele>
        <time>2013-03-24T09:26:50Z</time>
      </trkpt>
      <trkpt lat="49.04328" lon="7.07574">
        <ele>256</ele>
        <time>2013-03-24T09:26:56Z</time>
      </trkpt>
      <trkpt lat="49.04334" lon="7.07585">
        <ele>257</ele>
        <time>2013-03-24T09:27:02Z</time>
      </trkpt>
      <trkpt lat="49.04341" lon="7.07595">
        <ele>257</ele>
        <time>2013-03-24T09:27:08Z</time>
      </trkpt>
      <trkpt lat="49.0435" lon="7.07607">
        <ele>257</ele>
        <time>2013-03-24T09:27:15Z</time>
      </trkpt>
      <trkpt lat="49.04357" lon="7.07618">
        <ele>257</ele>
        <time>2013-03-24T09:27:21Z</time>
      </trkpt>
      <trkpt lat="49.04364" lon="7.07628">
        <ele>257</ele>
        <time>2013-03-24T09:27:27Z</time>
      </trkpt>
      <trkpt lat="49.04371" lon="7.07639">
        <ele>257</ele>
        <time>2013-03-24T09:27:33Z</time>
      </trkpt>
      <trkpt lat="49.04377" lon="7.0765">
        <ele>257</ele>
        <time>2013-03-24T09:27:39Z</time>
      </trkpt>
      <trkpt lat="49.04383" lon="7.0766">
        <ele>257</ele>
        <time>2013-03-24T09:27:45Z</time>
      </trkpt>
      <trkpt lat="49.04389" lon="7.07671">
        <ele>256</ele>
        <time>2013-03-24T09:27:51Z</time>
      </trkpt>
      <trkpt lat="49.04397" lon="7.07682">
        <ele>256</ele>
        <time>2013-03-24T09:27:57Z</time>
      </trkpt>
      <trkpt lat="49.04404" lon="7.07695">
        <ele>255</ele>
        <time>2013-03-24T09:28:04Z</time>
      </trkpt>
      <trkpt lat="49.04411" lon="7.07703">
        <ele>255</ele>
        <time>2013-03-24T09:28:10Z</time>
      </trkpt>
      <trkpt lat="49.04418" lon="7.07711">
        <ele>255</ele>
        <time>2013-03-24T09:28:16Z</time>
      </trkpt>
      <trkpt lat="49.04425" lon="7.07719">
        <ele>255</ele>
        <time>2013-03-24T09:28:22Z</time>
      </trkpt>
      <trkpt lat="49.04431" lon="7.07725">
        <ele>254</ele>
        <time>2013-03-24T09:28:28Z</time>
      </trkpt>
      <trkpt lat="49.04439" lon="7.07734">
        <ele>252</ele>
        <time>2013-03-24T09:28:34Z</time>
      </trkpt>
      <trkpt lat="49.04446" lon="7.07742">
        <ele>250</ele>
        <time>2013-03-24T09:28:40Z</time>
      </trkpt>
      <trkpt lat="49.04453" lon="7.07752">
        <ele>249</ele>
        <time>2013-03-24T09:28:46Z</time>
      </trkpt>
      <trkpt lat="49.04461" lon="7.0776">
        <ele>249</ele>
        <time>2013-03-24T09:28:52Z</time>
      </trkpt>
      <trkpt lat="49.0447" lon="7.07768">
        <ele>248</ele>
        <time>2013-03-24T09:28:58Z</time>
      </trkpt>
      <trkpt lat="49.04479" lon="7.07779">
        <ele>248</ele>
        <time>2013-03-24T09:29:04Z</time>
      </trkpt>
      <trkpt lat="49.04486" lon="7.07788">
        <ele>248</ele>
        <time>2013-03-24T09:29:10Z</time>
      </trkpt>
      <trkpt lat="49.04492" lon="7.07796">
        <ele>248</ele>
        <time>2013-03-24T09:29:16Z</time>
      </trkpt>
      <trkpt lat="49.04502" lon="7.07806">
        <ele>245</ele>
        <time>2013-03-24T09:29:23Z</time>
      </trkpt>
      <trkpt lat="49.04511" lon="7.07814">
        <ele>244</ele>
        <time>2013-03-24T09:29:29Z</time>
      </trkpt>
      <trkpt lat="49.0452" lon="7.0782">
        <ele>242</ele>
        <time>2013-03-24T09:29:35Z</time>
      </trkpt>
      <trkpt lat="49.04527" lon="7.07829">
        <ele>240</ele>
        <time>2013-03-24T09:29:41Z</time>
      </trkpt>
      <trkpt lat="49.04533" lon="7.07841">
        <ele>239</ele>
        <time>2013-03-24T09:29:47Z</time>
      </trkpt>
      <trkpt lat="49.04532" lon="7.07856">
        <ele>236</ele>
        <time>2013-03-24T09:29:53Z</time>
      </trkpt>
      <trkpt lat="49.04531" lon="7.07871">
        <ele>234</ele>
        <time>2013-03-24T09:29:59Z</time>
      </trkpt>
      <trkpt lat="49.04528" lon="7.07884">
        <ele>232</ele>
        <time>2013-03-24T09:30:05Z</time>
      </trkpt>
      <trkpt lat="49.04523" lon="7.07895">
        <ele>232</ele>
        <time>2013-03-24T09:30:11Z</time>
      </trkpt>
      <trkpt lat="49.04518" lon="7.07906">
        <ele>232</ele>
        <time>2013-03-24T09:30:17Z</time>
      </trkpt>
      <trkpt lat="49.04513" lon="7.07916">
        <ele>232</ele>
        <time>2013-03-24T09:30:23Z</time>
      </trkpt>
      <trkpt lat="49.04507" lon="7.07929">
        <ele>235</ele>
        <time>2013-03-24T09:30:29Z</time>
      </trkpt>
      <trkpt lat="49.04504" lon="7.07942">
        <ele>236</ele>
        <time>2013-03-24T09:30:36Z</time>
      </trkpt>
      <trkpt lat="49.045" lon="7.07953">
        <ele>236</ele>
        <time>2013-03-24T09:30:42Z</time>
      </trkpt>
      <trkpt lat="49.04495" lon="7.07963">
        <ele>236</ele>
        <time>2013-03-24T09:30:48Z</time>
      </trkpt>
      <trkpt lat="49.0449" lon="7.07973">
        <ele>236</ele>
        <time>2013-03-24T09:30:54Z</time>
      </trkpt>
      <trkpt lat="49.04484" lon="7.07984">
        <ele>236</ele>
        <time>2013-03-24T09:31:00Z</time>
      </trkpt>
      <trkpt lat="49.04477" lon="7.07998">
        <ele>236</ele>
        <time>2013-03-24T09:31:07Z</time>
      </trkpt>
      <trkpt lat="49.04472" lon="7.08009">
        <ele>236</ele>
        <time>2013-03-24T09:31:13Z</time>
      </trkpt>
      <trkpt lat="49.04468" lon="7.08021">
        <ele>236</ele>
        <time>2013-03-24T09:31:19Z</time>
      </trkpt>
      <trkpt lat="49.04465" lon="7.08031">
        <ele>235</ele>
        <time>2013-03-24T09:31:25Z</time>
      </trkpt>
      <trkpt lat="49.04463" lon="7.08041">
        <ele>233</ele>
        <time>2013-03-24T09:31:31Z</time>
      </trkpt>
      <trkpt lat="49.04465" lon="7.08042">
        <ele>233</ele>
        <time>2013-03-24T09:31:38Z</time>
      </trkpt>
      <trkpt lat="49.04467" lon="7.08046">
        <ele>233</ele>
        <time>2013-03-24T09:31:45Z</time>
      </trkpt>
      <trkpt lat="49.04466" lon="7.08047">
        <ele>233</ele>
        <time>2013-03-24T09:32:13Z</time>
      </trkpt>
      <trkpt lat="49.04468" lon="7.08044">
        <ele>235</ele>
        <time>2013-03-24T09:32:27Z</time>
      </trkpt>
      <trkpt lat="49.04469" lon="7.08043">
        <ele>237</ele>
        <time>2013-03-24T09:32:36Z</time>
      </trkpt>
      <trkpt lat="49.04469" lon="7.08042">
        <ele>238</ele>
        <time>2013-03-24T09:32:57Z</time>
      </trkpt>
      <trkpt lat="49.04466" lon="7.08038">
        <ele>238</ele>
        <time>2013-03-24T09:33:04Z</time>
      </trkpt>
      <trkpt lat="49.04463" lon="7.08036">
        <ele>238</ele>
        <time>2013-03-24T09:33:15Z</time>
      </trkpt>
      <trkpt lat="49.04463" lon="7.08038">
        <ele>238</ele>
        <time>2013-03-24T09:33:21Z</time>
      </trkpt>
      <trkpt lat="49.04462" lon="7.0804">
        <ele>238</ele>
        <time>2013-03-24T09:33:32Z</time>
      </trkpt>
      <trkpt lat="49.04464" lon="7.08041">
        <ele>242</ele>
        <time>2013-03-24T09:33:40Z</time>
      </trkpt>
      <trkpt lat="49.04462" lon="7.08041">
        <ele>245</ele>
        <time>2013-03-24T09:33:51Z</time>
      </trkpt>
      <trkpt lat="49.04457" lon="7.08045">
        <ele>245</ele>
        <time>2013-03-24T09:33:58Z</time>
      </trkpt>
      <trkpt lat="49.04453" lon="7.08053">
        <ele>245</ele>
        <time>2013-03-24T09:34:05Z</time>
      </trkpt>
      <trkpt lat="49.04454" lon="7.08066">
        <ele>243</ele>
        <time>2013-03-24T09:34:11Z</time>
      </trkpt>
      <trkpt lat="49.04452" lon="7.0808">
        <ele>243</ele>
        <time>2013-03-24T09:34:17Z</time>
      </trkpt>
      <trkpt lat="49.04451" lon="7.08094">
        <ele>242</ele>
        <time>2013-03-24T09:34:23Z</time>
      </trkpt>
      <trkpt lat="49.04451" lon="7.08109">
        <ele>241</ele>
        <time>2013-03-24T09:34:29Z</time>
      </trkpt>
      <trkpt lat="49.04453" lon="7.08122">
        <ele>241</ele>
        <time>2013-03-24T09:34:35Z</time>
      </trkpt>
      <trkpt lat="49.04455" lon="7.08138">
        <ele>241</ele>
        <time>2013-03-24T09:34:41Z</time>
      </trkpt>
      <trkpt lat="49.04456" lon="7.08152">
        <ele>241</ele>
        <time>2013-03-24T09:34:47Z</time>
      </trkpt>
      <trkpt lat="49.04455" lon="7.08167">
        <ele>241</ele>
        <time>2013-03-24T09:34:53Z</time>
      </trkpt>
      <trkpt lat="49.04454" lon="7.08182">
        <ele>241</ele>
        <time>2013-03-24T09:34:59Z</time>
      </trkpt>
      <trkpt lat="49.04455" lon="7.08195">
        <ele>242</ele>
        <time>2013-03-24T09:35:05Z</time>
      </trkpt>
      <trkpt lat="49.04459" lon="7.08207">
        <ele>242</ele>
        <time>2013-03-24T09:35:11Z</time>
      </trkpt>
      <trkpt lat="49.04461" lon="7.08221">
        <ele>242</ele>
        <time>2013-03-24T09:35:17Z</time>
      </trkpt>
      <trkpt lat="49.04462" lon="7.08237">
        <ele>242</ele>
        <time>2013-03-24T09:35:23Z</time>
      </trkpt>
      <trkpt lat="49.04465" lon="7.08252">
        <ele>241</ele>
        <time>2013-03-24T09:35:29Z</time>
      </trkpt>
      <trkpt lat="49.04465" lon="7.08267">
        <ele>240</ele>
        <time>2013-03-24T09:35:35Z</time>
      </trkpt>
      <trkpt lat="49.04463" lon="7.08283">
        <ele>240</ele>
        <time>2013-03-24T09:35:41Z</time>
      </trkpt>
      <trkpt lat="49.04462" lon="7.08299">
        <ele>240</ele>
        <time>2013-03-24T09:35:47Z</time>
      </trkpt>
      <trkpt lat="49.04461" lon="7.08314">
        <ele>240</ele>
        <time>2013-03-24T09:35:53Z</time>
      </trkpt>
      <trkpt lat="49.04459" lon="7.08328">
        <ele>240</ele>
        <time>2013-03-24T09:35:59Z</time>
      </trkpt>
      <trkpt lat="49.04456" lon="7.08342">
        <ele>240</ele>
        <time>2013-03-24T09:36:05Z</time>
      </trkpt>
      <trkpt lat="49.04452" lon="7.08355">
        <ele>238</ele>
        <time>2013-03-24T09:36:11Z</time>
      </trkpt>
      <trkpt lat="49.04446" lon="7.08369">
        <ele>237</ele>
        <time>2013-03-24T09:36:17Z</time>
      </trkpt>
      <trkpt lat="49.04439" lon="7.08386">
        <ele>237</ele>
        <time>2013-03-24T09:36:24Z</time>
      </trkpt>
      <trkpt lat="49.04433" lon="7.08399">
        <ele>237</ele>
        <time>2013-03-24T09:36:30Z</time>
      </trkpt>
      <trkpt lat="49.0443" lon="7.08411">
        <ele>237</ele>
        <time>2013-03-24T09:36:36Z</time>
      </trkpt>
      <trkpt lat="49.04429" lon="7.08426">
        <ele>237</ele>
        <time>2013-03-24T09:36:42Z</time>
      </trkpt>
      <trkpt lat="49.04427" lon="7.08438">
        <ele>237</ele>
        <time>2013-03-24T09:36:48Z</time>
      </trkpt>
      <trkpt lat="49.04427" lon="7.08453">
        <ele>237</ele>
        <time>2013-03-24T09:36:54Z</time>
      </trkpt>
      <trkpt lat="49.04426" lon="7.08466">
        <ele>237</ele>
        <time>2013-03-24T09:37:00Z</time>
      </trkpt>
      <trkpt lat="49.04427" lon="7.0848">
        <ele>235</ele>
        <time>2013-03-24T09:37:06Z</time>
      </trkpt>
      <trkpt lat="49.04426" lon="7.08493">
        <ele>234</ele>
        <time>2013-03-24T09:37:12Z</time>
      </trkpt>
      <trkpt lat="49.04425" lon="7.08506">
        <ele>234</ele>
        <time>2013-03-24T09:37:18Z</time>
      </trkpt>
      <trkpt lat="49.04423" lon="7.08521">
        <ele>234</ele>
        <time>2013-03-24T09:37:24Z</time>
      </trkpt>
      <trkpt lat="49.04424" lon="7.08535">
        <ele>234</ele>
        <time>2013-03-24T09:37:30Z</time>
      </trkpt>
      <trkpt lat="49.04422" lon="7.08551">
        <ele>234</ele>
        <time>2013-03-24T09:37:37Z</time>
      </trkpt>
      <trkpt lat="49.04421" lon="7.08565">
        <ele>234</ele>
        <time>2013-03-24T09:37:43Z</time>
      </trkpt>
      <trkpt lat="49.0442" lon="7.08578">
        <ele>234</ele>
        <time>2013-03-24T09:37:49Z</time>
      </trkpt>
      <trkpt lat="49.04419" lon="7.08591">
        <ele>234</ele>
        <time>2013-03-24T09:37:55Z</time>
      </trkpt>
      <trkpt lat="49.04417" lon="7.08606">
        <ele>234</ele>
        <time>2013-03-24T09:38:02Z</time>
      </trkpt>
      <trkpt lat="49.04417" lon="7.08621">
        <ele>235</ele>
        <time>2013-03-24T09:38:08Z</time>
      </trkpt>
      <trkpt lat="49.04416" lon="7.08636">
        <ele>235</ele>
        <time>2013-03-24T09:38:15Z</time>
      </trkpt>
      <trkpt lat="49.04412" lon="7.08651">
        <ele>238</ele>
        <time>2013-03-24T09:38:22Z</time>
      </trkpt>
      <trkpt lat="49.04411" lon="7.08664">
        <ele>240</ele>
        <time>2013-03-24T09:38:28Z</time>
      </trkpt>
      <trkpt lat="49.04408" lon="7.08679">
        <ele>243</ele>
        <time>2013-03-24T09:38:35Z</time>
      </trkpt>
      <trkpt lat="49.04408" lon="7.08695">
        <ele>244</ele>
        <time>2013-03-24T09:38:42Z</time>
      </trkpt>
      <trkpt lat="49.04408" lon="7.08708">
        <ele>244</ele>
        <time>2013-03-24T09:38:48Z</time>
      </trkpt>
      <trkpt lat="49.04406" lon="7.0872">
        <ele>244</ele>
        <time>2013-03-24T09:38:54Z</time>
      </trkpt>
      <trkpt lat="49.04405" lon="7.08733">
        <ele>244</ele>
        <time>2013-03-24T09:39:00Z</time>
      </trkpt>
      <trkpt lat="49.04406" lon="7.08749">
        <ele>245</ele>
        <time>2013-03-24T09:39:07Z</time>
      </trkpt>
      <trkpt lat="49.04404" lon="7.08761">
        <ele>245</ele>
        <time>2013-03-24T09:39:13Z</time>
      </trkpt>
      <trkpt lat="49.04406" lon="7.08773">
        <ele>247</ele>
        <time>2013-03-24T09:39:19Z</time>
      </trkpt>
      <trkpt lat="49.04406" lon="7.08789">
        <ele>248</ele>
        <time>2013-03-24T09:39:26Z</time>
      </trkpt>
      <trkpt lat="49.04406" lon="7.08801">
        <ele>249</ele>
        <time>2013-03-24T09:39:32Z</time>
      </trkpt>
      <trkpt lat="49.04403" lon="7.08814">
        <ele>252</ele>
        <time>2013-03-24T09:39:38Z</time>
      </trkpt>
      <trkpt lat="49.04401" lon="7.08827">
        <ele>256</ele>
        <time>2013-03-24T09:39:44Z</time>
      </trkpt>
      <trkpt lat="49.04399" lon="7.08839">
        <ele>257</ele>
        <time>2013-03-24T09:39:50Z</time>
      </trkpt>
      <trkpt lat="49.044" lon="7.08853">
        <ele>258</ele>
        <time>2013-03-24T09:39:57Z</time>
      </trkpt>
      <trkpt lat="49.04399" lon="7.08864">
        <ele>259</ele>
        <time>2013-03-24T09:40:03Z</time>
      </trkpt>
      <trkpt lat="49.04403" lon="7.08877">
        <ele>259</ele>
        <time>2013-03-24T09:40:09Z</time>
      </trkpt>
      <trkpt lat="49.04404" lon="7.08889">
        <ele>259</ele>
        <time>2013-03-24T09:40:15Z</time>
      </trkpt>
      <trkpt lat="49.04398" lon="7.08904">
        <ele>259</ele>
        <time>2013-03-24T09:40:22Z</time>
      </trkpt>
      <trkpt lat="49.04395" lon="7.08916">
        <ele>259</ele>
        <time>2013-03-24T09:40:28Z</time>
      </trkpt>
      <trkpt lat="49.04395" lon="7.08928">
        <ele>259</ele>
        <time>2013-03-24T09:40:34Z</time>
      </trkpt>
      <trkpt lat="49.04395" lon="7.0894">
        <ele>260</ele>
        <time>2013-03-24T09:40:40Z</time>
      </trkpt>
      <trkpt lat="49.04391" lon="7.08955">
        <ele>260</ele>
        <time>2013-03-24T09:40:47Z</time>
      </trkpt>
      <trkpt lat="49.0439" lon="7.08967">
        <ele>261</ele>
        <time>2013-03-24T09:40:53Z</time>
      </trkpt>
      <trkpt lat="49.04391" lon="7.08979">
        <ele>261</ele>
        <time>2013-03-24T09:40:59Z</time>
      </trkpt>
      <trkpt lat="49.0439" lon="7.0899">
        <ele>261</ele>
        <time>2013-03-24T09:41:05Z</time>
      </trkpt>
      <trkpt lat="49.04393" lon="7.09004">
        <ele>261</ele>
        <time>2013-03-24T09:41:12Z</time>
      </trkpt>
      <trkpt lat="49.04395" lon="7.09018">
        <ele>263</ele>
        <time>2013-03-24T09:41:18Z</time>
      </trkpt>
      <trkpt lat="49.04396" lon="7.09032">
        <ele>266</ele>
        <time>2013-03-24T09:41:25Z</time>
      </trkpt>
      <trkpt lat="49.04395" lon="7.09046">
        <ele>267</ele>
        <time>2013-03-24T09:41:31Z</time>
      </trkpt>
      <trkpt lat="49.04396" lon="7.09062">
        <ele>267</ele>
        <time>2013-03-24T09:41:38Z</time>
      </trkpt>
      <trkpt lat="49.04396" lon="7.09075">
        <ele>267</ele>
        <time>2013-03-24T09:41:44Z</time>
      </trkpt>
      <trkpt lat="49.04398" lon="7.0909">
        <ele>267</ele>
        <time>2013-03-24T09:41:50Z</time>
      </trkpt>
      <trkpt lat="49.044" lon="7.09106">
        <ele>267</ele>
        <time>2013-03-24T09:41:57Z</time>
      </trkpt>
      <trkpt lat="49.04401" lon="7.09121">
        <ele>267</ele>
        <time>2013-03-24T09:42:03Z</time>
      </trkpt>
      <trkpt lat="49.04403" lon="7.09135">
        <ele>267</ele>
        <time>2013-03-24T09:42:09Z</time>
      </trkpt>
      <trkpt lat="49.04404" lon="7.09149">
        <ele>266</ele>
        <time>2013-03-24T09:42:15Z</time>
      </trkpt>
      <trkpt lat="49.04403" lon="7.09163">
        <ele>266</ele>
        <time>2013-03-24T09:42:21Z</time>
      </trkpt>
      <trkpt lat="49.04404" lon="7.09177">
        <ele>266</ele>
        <time>2013-03-24T09:42:27Z</time>
      </trkpt>
      <trkpt lat="49.04404" lon="7.0919">
        <ele>266</ele>
        <time>2013-03-24T09:42:34Z</time>
      </trkpt>
      <trkpt lat="49.04406" lon="7.09202">
        <ele>266</ele>
        <time>2013-03-24T09:42:40Z</time>
      </trkpt>
      <trkpt lat="49.04408" lon="7.09213">
        <ele>266</ele>
        <time>2013-03-24T09:42:47Z</time>
      </trkpt>
      <trkpt lat="49.0441" lon="7.09225">
        <ele>268</ele>
        <time>2013-03-24T09:42:53Z</time>
      </trkpt>
      <trkpt lat="49.04409" lon="7.09241">
        <ele>268</ele>
        <time>2013-03-24T09:42:59Z</time>
      </trkpt>
      <trkpt lat="49.04411" lon="7.09258">
        <ele>269</ele>
        <time>2013-03-24T09:43:05Z</time>
      </trkpt>
      <trkpt lat="49.04411" lon="7.09274">
        <ele>269</ele>
        <time>2013-03-24T09:43:11Z</time>
      </trkpt>
      <trkpt lat="49.04413" lon="7.09287">
        <ele>269</ele>
        <time>2013-03-24T09:43:17Z</time>
      </trkpt>
      <trkpt lat="49.04412" lon="7.093">
        <ele>269</ele>
        <time>2013-03-24T09:43:23Z</time>
      </trkpt>
      <trkpt lat="49.04412" lon="7.09314">
        <ele>269</ele>
        <time>2013-03-24T09:43:29Z</time>
      </trkpt>
      <trkpt lat="49.04411" lon="7.09328">
        <ele>268</ele>
        <time>2013-03-24T09:43:35Z</time>
      </trkpt>
      <trkpt lat="49.04411" lon="7.09341">
        <ele>267</ele>
        <time>2013-03-24T09:43:41Z</time>
      </trkpt>
      <trkpt lat="49.04413" lon="7.09355">
        <ele>267</ele>
        <time>2013-03-24T09:43:47Z</time>
      </trkpt>
      <trkpt lat="49.04414" lon="7.09367">
        <ele>266</ele>
        <time>2013-03-24T09:43:54Z</time>
      </trkpt>
      <trkpt lat="49.04413" lon="7.09383">
        <ele>266</ele>
        <time>2013-03-24T09:44:00Z</time>
      </trkpt>
      <trkpt lat="49.04414" lon="7.09398">
        <ele>266</ele>
        <time>2013-03-24T09:44:06Z</time>
      </trkpt>
      <trkpt lat="49.04415" lon="7.09414">
        <ele>266</ele>
        <time>2013-03-24T09:44:12Z</time>
      </trkpt>
      <trkpt lat="49.04415" lon="7.09431">
        <ele>266</ele>
        <time>2013-03-24T09:44:19Z</time>
      </trkpt>
      <trkpt lat="49.04415" lon="7.09445">
        <ele>266</ele>
        <time>2013-03-24T09:44:25Z</time>
      </trkpt>
      <trkpt lat="49.04414" lon="7.09461">
        <ele>266</ele>
        <time>2013-03-24T09:44:31Z</time>
      </trkpt>
      <trkpt lat="49.04415" lon="7.09475">
        <ele>266</ele>
        <time>2013-03-24T09:44:37Z</time>
      </trkpt>
      <trkpt lat="49.04417" lon="7.09488">
        <ele>266</ele>
        <time>2013-03-24T09:44:43Z</time>
      </trkpt>
      <trkpt lat="49.04417" lon="7.09502">
        <ele>266</ele>
        <time>2013-03-24T09:44:49Z</time>
      </trkpt>
      <trkpt lat="49.04415" lon="7.09517">
        <ele>266</ele>
        <time>2013-03-24T09:44:55Z</time>
      </trkpt>
      <trkpt lat="49.04415" lon="7.0953">
        <ele>266</ele>
        <time>2013-03-24T09:45:01Z</time>
      </trkpt>
      <trkpt lat="49.04417" lon="7.09545">
        <ele>266</ele>
        <time>2013-03-24T09:45:07Z</time>
      </trkpt>
      <trkpt lat="49.04417" lon="7.09558">
        <ele>266</ele>
        <time>2013-03-24T09:45:13Z</time>
      </trkpt>
      <trkpt lat="49.04418" lon="7.09572">
        <ele>266</ele>
        <time>2013-03-24T09:45:19Z</time>
      </trkpt>
      <trkpt lat="49.04419" lon="7.09586">
        <ele>266</ele>
        <time>2013-03-24T09:45:25Z</time>
      </trkpt>
      <trkpt lat="49.04421" lon="7.096">
        <ele>268</ele>
        <time>2013-03-24T09:45:31Z</time>
      </trkpt>
      <trkpt lat="49.04423" lon="7.09616">
        <ele>269</ele>
        <time>2013-03-24T09:45:37Z</time>
      </trkpt>
      <trkpt lat="49.04425" lon="7.09632">
        <ele>269</ele>
        <time>2013-03-24T09:45:43Z</time>
      </trkpt>
      <trkpt lat="49.04425" lon="7.09645">
        <ele>269</ele>
        <time>2013-03-24T09:45:49Z</time>
      </trkpt>
      <trkpt lat="49.04424" lon="7.0966">
        <ele>269</ele>
        <time>2013-03-24T09:45:55Z</time>
      </trkpt>
      <trkpt lat="49.04423" lon="7.09674">
        <ele>269</ele>
        <time>2013-03-24T09:46:01Z</time>
      </trkpt>
      <trkpt lat="49.04421" lon="7.09689">
        <ele>269</ele>
        <time>2013-03-24T09:46:07Z</time>
      </trkpt>
      <trkpt lat="49.04421" lon="7.09701">
        <ele>269</ele>
        <time>2013-03-24T09:46:13Z</time>
      </trkpt>
      <trkpt lat="49.04421" lon="7.09713">
        <ele>269</ele>
        <time>2013-03-24T09:46:19Z</time>
      </trkpt>
      <trkpt lat="49.0442" lon="7.09728">
        <ele>269</ele>
        <time>2013-03-24T09:46:25Z</time>
      </trkpt>
      <trkpt lat="49.04418" lon="7.09742">
        <ele>269</ele>
        <time>2013-03-24T09:46:31Z</time>
      </trkpt>
      <trkpt lat="49.04417" lon="7.09754">
        <ele>271</ele>
        <time>2013-03-24T09:46:37Z</time>
      </trkpt>
      <trkpt lat="49.04418" lon="7.09768">
        <ele>273</ele>
        <time>2013-03-24T09:46:43Z</time>
      </trkpt>
      <trkpt lat="49.04418" lon="7.09782">
        <ele>273</ele>
        <time>2013-03-24T09:46:49Z</time>
      </trkpt>
      <trkpt lat="49.04418" lon="7.09793">
        <ele>273</ele>
        <time>2013-03-24T09:46:55Z</time>
      </trkpt>
      <trkpt lat="49.04419" lon="7.09807">
        <ele>273</ele>
        <time>2013-03-24T09:47:01Z</time>
      </trkpt>
      <trkpt lat="49.04417" lon="7.0982">
        <ele>272</ele>
        <time>2013-03-24T09:47:07Z</time>
      </trkpt>
      <trkpt lat="49.04416" lon="7.09834">
        <ele>272</ele>
        <time>2013-03-24T09:47:13Z</time>
      </trkpt>
      <trkpt lat="49.04414" lon="7.09846">
        <ele>272</ele>
        <time>2013-03-24T09:47:19Z</time>
      </trkpt>
      <trkpt lat="49.04413" lon="7.09858">
        <ele>271</ele>
        <time>2013-03-24T09:47:25Z</time>
      </trkpt>
      <trkpt lat="49.04411" lon="7.09871">
        <ele>270</ele>
        <time>2013-03-24T09:47:31Z</time>
      </trkpt>
      <trkpt lat="49.04406" lon="7.09884">
        <ele>270</ele>
        <time>2013-03-24T09:47:38Z</time>
      </trkpt>
      <trkpt lat="49.04403" lon="7.09896">
        <ele>270</ele>
        <time>2013-03-24T09:47:44Z</time>
      </trkpt>
      <trkpt lat="49.044" lon="7.09909">
        <ele>270</ele>
        <time>2013-03-24T09:47:50Z</time>
      </trkpt>
      <trkpt lat="49.04398" lon="7.09921">
        <ele>270</ele>
        <time>2013-03-24T09:47:56Z</time>
      </trkpt>
      <trkpt lat="49.04396" lon="7.09934">
        <ele>270</ele>
        <time>2013-03-24T09:48:02Z</time>
      </trkpt>
      <trkpt lat="49.04394" lon="7.09947">
        <ele>270</ele>
        <time>2013-03-24T09:48:08Z</time>
      </trkpt>
      <trkpt lat="49.04392" lon="7.0996">
        <ele>270</ele>
        <time>2013-03-24T09:48:14Z</time>
      </trkpt>
      <trkpt lat="49.0439" lon="7.09973">
        <ele>270</ele>
        <time>2013-03-24T09:48:20Z</time>
      </trkpt>
      <trkpt lat="49.04388" lon="7.09985">
        <ele>270</ele>
        <time>2013-03-24T09:48:26Z</time>
      </trkpt>
      <trkpt lat="49.04385" lon="7.09999">
        <ele>270</ele>
        <time>2013-03-24T09:48:32Z</time>
      </trkpt>
      <trkpt lat="49.04383" lon="7.10011">
        <ele>270</ele>
        <time>2013-03-24T09:48:38Z</time>
      </trkpt>
      <trkpt lat="49.04381" lon="7.10024">
        <ele>270</ele>
        <time>2013-03-24T09:48:44Z</time>
      </trkpt>
      <trkpt lat="49.0438" lon="7.10037">
        <ele>270</ele>
        <time>2013-03-24T09:48:50Z</time>
      </trkpt>
      <trkpt lat="49.04377" lon="7.1005">
        <ele>270</ele>
        <time>2013-03-24T09:48:56Z</time>
      </trkpt>
      <trkpt lat="49.04375" lon="7.10062">
        <ele>270</ele>
        <time>2013-03-24T09:49:02Z</time>
      </trkpt>
      <trkpt lat="49.04372" lon="7.10075">
        <ele>270</ele>
        <time>2013-03-24T09:49:08Z</time>
      </trkpt>
      <trkpt lat="49.0437" lon="7.10088">
        <ele>270</ele>
        <time>2013-03-24T09:49:14Z</time>
      </trkpt>
      <trkpt lat="49.04369" lon="7.10101">
        <ele>270</ele>
        <time>2013-03-24T09:49:20Z</time>
      </trkpt>
      <trkpt lat="49.04367" lon="7.10115">
        <ele>270</ele>
        <time>2013-03-24T09:49:26Z</time>
      </trkpt>
      <trkpt lat="49.04367" lon="7.10127">
        <ele>270</ele>
        <time>2013-03-24T09:49:32Z</time>
      </trkpt>
      <trkpt lat="49.04366" lon="7.1014">
        <ele>270</ele>
        <time>2013-03-24T09:49:38Z</time>
      </trkpt>
      <trkpt lat="49.04364" lon="7.10151">
        <ele>270</ele>
        <time>2013-03-24T09:49:44Z</time>
      </trkpt>
      <trkpt lat="49.04362" lon="7.10165">
        <ele>270</ele>
        <time>2013-03-24T09:49:50Z</time>
      </trkpt>
      <trkpt lat="49.0436" lon="7.10178">
        <ele>270</ele>
        <time>2013-03-24T09:49:56Z</time>
      </trkpt>
      <trkpt lat="49.04358" lon="7.10191">
        <ele>270</ele>
        <time>2013-03-24T09:50:02Z</time>
      </trkpt>
      <trkpt lat="49.04355" lon="7.10203">
        <ele>270</ele>
        <time>2013-03-24T09:50:08Z</time>
      </trkpt>
      <trkpt lat="49.0435" lon="7.10214">
        <ele>270</ele>
        <time>2013-03-24T09:50:14Z</time>
      </trkpt>
      <trkpt lat="49.04347" lon="7.10227">
        <ele>270</ele>
        <time>2013-03-24T09:50:20Z</time>
      </trkpt>
      <trkpt lat="49.04346" lon="7.1024">
        <ele>270</ele>
        <time>2013-03-24T09:50:26Z</time>
      </trkpt>
      <trkpt lat="49.04344" lon="7.10253">
        <ele>270</ele>
        <time>2013-03-24T09:50:32Z</time>
      </trkpt>
      <trkpt lat="49.04344" lon="7.10264">
        <ele>270</ele>
        <time>2013-03-24T09:50:38Z</time>
      </trkpt>
      <trkpt lat="49.04341" lon="7.10277">
        <ele>270</ele>
        <time>2013-03-24T09:50:44Z</time>
      </trkpt>
      <trkpt lat="49.04339" lon="7.10289">
        <ele>270</ele>
        <time>2013-03-24T09:50:50Z</time>
      </trkpt>
      <trkpt lat="49.04335" lon="7.10301">
        <ele>270</ele>
        <time>2013-03-24T09:50:57Z</time>
      </trkpt>
      <trkpt lat="49.04328" lon="7.10305">
        <ele>270</ele>
        <time>2013-03-24T09:51:03Z</time>
      </trkpt>
      <trkpt lat="49.0432" lon="7.10307">
        <ele>270</ele>
        <time>2013-03-24T09:51:09Z</time>
      </trkpt>
      <trkpt lat="49.04311" lon="7.10307">
        <ele>270</ele>
        <time>2013-03-24T09:51:15Z</time>
      </trkpt>
      <trkpt lat="49.04302" lon="7.10309">
        <ele>270</ele>
        <time>2013-03-24T09:51:21Z</time>
      </trkpt>
      <trkpt lat="49.04294" lon="7.10309">
        <ele>270</ele>
        <time>2013-03-24T09:51:27Z</time>
      </trkpt>
      <trkpt lat="49.04285" lon="7.1031">
        <ele>270</ele>
        <time>2013-03-24T09:51:33Z</time>
      </trkpt>
      <trkpt lat="49.04277" lon="7.1031">
        <ele>270</ele>
        <time>2013-03-24T09:51:39Z</time>
      </trkpt>
      <trkpt lat="49.04267" lon="7.10308">
        <ele>270</ele>
        <time>2013-03-24T09:51:45Z</time>
      </trkpt>
      <trkpt lat="49.04258" lon="7.10308">
        <ele>270</ele>
        <time>2013-03-24T09:51:51Z</time>
      </trkpt>
      <trkpt lat="49.04249" lon="7.1031">
        <ele>270</ele>
        <time>2013-03-24T09:51:57Z</time>
      </trkpt>
      <trkpt lat="49.04241" lon="7.10312">
        <ele>270</ele>
        <time>2013-03-24T09:52:03Z</time>
      </trkpt>
      <trkpt lat="49.0423" lon="7.10315">
        <ele>270</ele>
        <time>2013-03-24T09:52:11Z</time>
      </trkpt>
      <trkpt lat="49.04226" lon="7.1032">
        <ele>270</ele>
        <time>2013-03-24T09:52:17Z</time>
      </trkpt>
      <trkpt lat="49.04228" lon="7.10331">
        <ele>270</ele>
        <time>2013-03-24T09:52:23Z</time>
      </trkpt>
      <trkpt lat="49.0423" lon="7.10344">
        <ele>270</ele>
        <time>2013-03-24T09:52:30Z</time>
      </trkpt>
      <trkpt lat="49.04233" lon="7.10355">
        <ele>270</ele>
        <time>2013-03-24T09:52:36Z</time>
      </trkpt>
      <trkpt lat="49.04236" lon="7.10367">
        <ele>270</ele>
        <time>2013-03-24T09:52:42Z</time>
      </trkpt>
      <trkpt lat="49.04239" lon="7.10379">
        <ele>270</ele>
        <time>2013-03-24T09:52:48Z</time>
      </trkpt>
      <trkpt lat="49.04242" lon="7.10394">
        <ele>271</ele>
        <time>2013-03-24T09:52:55Z</time>
      </trkpt>
      <trkpt lat="49.04245" lon="7.10407">
        <ele>271</ele>
        <time>2013-03-24T09:53:01Z</time>
      </trkpt>
      <trkpt lat="49.04247" lon="7.10419">
        <ele>271</ele>
        <time>2013-03-24T09:53:07Z</time>
      </trkpt>
      <trkpt lat="49.0425" lon="7.10431">
        <ele>271</ele>
        <time>2013-03-24T09:53:13Z</time>
      </trkpt>
      <trkpt lat="49.04253" lon="7.10446">
        <ele>271</ele>
        <time>2013-03-24T09:53:20Z</time>
      </trkpt>
      <trkpt lat="49.04255" lon="7.10458">
        <ele>272</ele>
        <time>2013-03-24T09:53:26Z</time>
      </trkpt>
      <trkpt lat="49.04257" lon="7.1047">
        <ele>272</ele>
        <time>2013-03-24T09:53:32Z</time>
      </trkpt>
      <trkpt lat="49.04259" lon="7.10483">
        <ele>272</ele>
        <time>2013-03-24T09:53:38Z</time>
      </trkpt>
      <trkpt lat="49.04262" lon="7.10496">
        <ele>272</ele>
        <time>2013-03-24T09:53:44Z</time>
      </trkpt>
      <trkpt lat="49.04264" lon="7.1051">
        <ele>272</ele>
        <time>2013-03-24T09:53:50Z</time>
      </trkpt>
      <trkpt lat="49.04266" lon="7.10525">
        <ele>272</ele>
        <time>2013-03-24T09:53:57Z</time>
      </trkpt>
      <trkpt lat="49.04262" lon="7.10534">
        <ele>272</ele>
        <time>2013-03-24T09:54:03Z</time>
      </trkpt>
      <trkpt lat="49.04255" lon="7.10539">
        <ele>272</ele>
        <time>2013-03-24T09:54:09Z</time>
      </trkpt>
      <trkpt lat="49.04248" lon="7.10547">
        <ele>272</ele>
        <time>2013-03-24T09:54:15Z</time>
      </trkpt>
      <trkpt lat="49.0424" lon="7.10554">
        <ele>273</ele>
        <time>2013-03-24T09:54:22Z</time>
      </trkpt>
      <trkpt lat="49.04231" lon="7.10562">
        <ele>273</ele>
        <time>2013-03-24T09:54:28Z</time>
      </trkpt>
      <trkpt lat="49.04223" lon="7.10569">
        <ele>274</ele>
        <time>2013-03-24T09:54:34Z</time>
      </trkpt>
      <trkpt lat="49.04217" lon="7.10574">
        <ele>274</ele>
        <time>2013-03-24T09:54:40Z</time>
      </trkpt>
      <trkpt lat="49.04212" lon="7.10581">
        <ele>274</ele>
        <time>2013-03-24T09:54:46Z</time>
      </trkpt>
      <trkpt lat="49.04205" lon="7.10587">
        <ele>274</ele>
        <time>2013-03-24T09:54:52Z</time>
      </trkpt>
      <trkpt lat="49.04198" lon="7.10592">
        <ele>274</ele>
        <time>2013-03-24T09:54:58Z</time>
      </trkpt>
      <trkpt lat="49.04191" lon="7.10598">
        <ele>274</ele>
        <time>2013-03-24T09:55:04Z</time>
      </trkpt>
      <trkpt lat="49.04186" lon="7.10605">
        <ele>274</ele>
        <time>2013-03-24T09:55:10Z</time>
      </trkpt>
      <trkpt lat="49.04176" lon="7.10612">
        <ele>274</ele>
        <time>2013-03-24T09:55:17Z</time>
      </trkpt>
      <trkpt lat="49.04168" lon="7.10617">
        <ele>274</ele>
        <time>2013-03-24T09:55:23Z</time>
      </trkpt>
      <trkpt lat="49.0416" lon="7.10619">
        <ele>274</ele>
        <time>2013-03-24T09:55:29Z</time>
      </trkpt>
      <trkpt lat="49.04154" lon="7.10615">
        <ele>274</ele>
        <time>2013-03-24T09:55:35Z</time>
      </trkpt>
      <trkpt lat="49.04149" lon="7.10603">
        <ele>274</ele>
        <time>2013-03-24T09:55:42Z</time>
      </trkpt>
      <trkpt lat="49.04145" lon="7.10591">
        <ele>274</ele>
        <time>2013-03-24T09:55:48Z</time>
      </trkpt>
      <trkpt lat="49.04139" lon="7.10577">
        <ele>274</ele>
        <time>2013-03-24T09:55:55Z</time>
      </trkpt>
      <trkpt lat="49.04134" lon="7.10565">
        <ele>274</ele>
        <time>2013-03-24T09:56:02Z</time>
      </trkpt>
      <trkpt lat="49.04125" lon="7.10556">
        <ele>274</ele>
        <time>2013-03-24T09:56:09Z</time>
      </trkpt>
      <trkpt lat="49.04117" lon="7.10557">
        <ele>274</ele>
        <time>2013-03-24T09:56:15Z</time>
      </trkpt>
      <trkpt lat="49.04107" lon="7.10558">
        <ele>274</ele>
        <time>2013-03-24T09:56:21Z</time>
      </trkpt>
      <trkpt lat="49.04099" lon="7.10551">
        <ele>274</ele>
        <time>2013-03-24T09:56:27Z</time>
      </trkpt>
      <trkpt lat="49.04091" lon="7.10545">
        <ele>274</ele>
        <time>2013-03-24T09:56:33Z</time>
      </trkpt>
      <trkpt lat="49.04082" lon="7.10541">
        <ele>274</ele>
        <time>2013-03-24T09:56:39Z</time>
      </trkpt>
      <trkpt lat="49.04073" lon="7.10543">
        <ele>274</ele>
        <time>2013-03-24T09:56:45Z</time>
      </trkpt>
      <trkpt lat="49.04065" lon="7.1055">
        <ele>277</ele>
        <time>2013-03-24T09:56:51Z</time>
      </trkpt>
      <trkpt lat="49.04054" lon="7.10556">
        <ele>277</ele>
        <time>2013-03-24T09:56:58Z</time>
      </trkpt>
      <trkpt lat="49.04047" lon="7.10564">
        <ele>277</ele>
        <time>2013-03-24T09:57:04Z</time>
      </trkpt>
      <trkpt lat="49.0404" lon="7.10572">
        <ele>277</ele>
        <time>2013-03-24T09:57:10Z</time>
      </trkpt>
      <trkpt lat="49.04034" lon="7.10581">
        <ele>277</ele>
        <time>2013-03-24T09:57:16Z</time>
      </trkpt>
      <trkpt lat="49.04026" lon="7.10589">
        <ele>277</ele>
        <time>2013-03-24T09:57:22Z</time>
      </trkpt>
      <trkpt lat="49.04018" lon="7.10596">
        <ele>277</ele>
        <time>2013-03-24T09:57:28Z</time>
      </trkpt>
      <trkpt lat="49.04009" lon="7.10602">
        <ele>277</ele>
        <time>2013-03-24T09:57:35Z</time>
      </trkpt>
      <trkpt lat="49.04001" lon="7.10608">
        <ele>277</ele>
        <time>2013-03-24T09:57:41Z</time>
      </trkpt>
      <trkpt lat="49.03993" lon="7.10613">
        <ele>277</ele>
        <time>2013-03-24T09:57:47Z</time>
      </trkpt>
      <trkpt lat="49.03985" lon="7.10608">
        <ele>277</ele>
        <time>2013-03-24T09:57:53Z</time>
      </trkpt>
      <trkpt lat="49.03977" lon="7.10596">
        <ele>277</ele>
        <time>2013-03-24T09:58:00Z</time>
      </trkpt>
      <trkpt lat="49.03971" lon="7.10584">
        <ele>277</ele>
        <time>2013-03-24T09:58:06Z</time>
      </trkpt>
      <trkpt lat="49.03965" lon="7.10572">
        <ele>277</ele>
        <time>2013-03-24T09:58:12Z</time>
      </trkpt>
      <trkpt lat="49.03959" lon="7.10561">
        <ele>277</ele>
        <time>2013-03-24T09:58:18Z</time>
      </trkpt>
      <trkpt lat="49.03954" lon="7.1055">
        <ele>277</ele>
        <time>2013-03-24T09:58:24Z</time>
      </trkpt>
      <trkpt lat="49.03948" lon="7.10538">
        <ele>277</ele>
        <time>2013-03-24T09:58:30Z</time>
      </trkpt>
      <trkpt lat="49.03943" lon="7.10526">
        <ele>277</ele>
        <time>2013-03-24T09:58:36Z</time>
      </trkpt>
      <trkpt lat="49.03938" lon="7.10514">
        <ele>277</ele>
        <time>2013-03-24T09:58:42Z</time>
      </trkpt>
      <trkpt lat="49.03933" lon="7.10501">
        <ele>277</ele>
        <time>2013-03-24T09:58:48Z</time>
      </trkpt>
      <trkpt lat="49.03927" lon="7.10489">
        <ele>277</ele>
        <time>2013-03-24T09:58:54Z</time>
      </trkpt>
      <trkpt lat="49.03923" lon="7.10477">
        <ele>277</ele>
        <time>2013-03-24T09:59:00Z</time>
      </trkpt>
      <trkpt lat="49.03919" lon="7.10465">
        <ele>277</ele>
        <time>2013-03-24T09:59:06Z</time>
      </trkpt>
      <trkpt lat="49.03914" lon="7.10454">
        <ele>277</ele>
        <time>2013-03-24T09:59:12Z</time>
      </trkpt>
      <trkpt lat="49.0391" lon="7.10441">
        <ele>277</ele>
        <time>2013-03-24T09:59:18Z</time>
      </trkpt>
      <trkpt lat="49.03905" lon="7.10426">
        <ele>277</ele>
        <time>2013-03-24T09:59:25Z</time>
      </trkpt>
      <trkpt lat="49.039" lon="7.10414">
        <ele>276</ele>
        <time>2013-03-24T09:59:31Z</time>
      </trkpt>
      <trkpt lat="49.03896" lon="7.10401">
        <ele>275</ele>
        <time>2013-03-24T09:59:37Z</time>
      </trkpt>
      <trkpt lat="49.03892" lon="7.10388">
        <ele>274</ele>
        <time>2013-03-24T09:59:43Z</time>
      </trkpt>
      <trkpt lat="49.03888" lon="7.10376">
        <ele>274</ele>
        <time>2013-03-24T09:59:49Z</time>
      </trkpt>
      <trkpt lat="49.03883" lon="7.1036">
        <ele>273</ele>
        <time>2013-03-24T09:59:56Z</time>
      </trkpt>
      <trkpt lat="49.03879" lon="7.10347">
        <ele>273</ele>
        <time>2013-03-24T10:00:02Z</time>
      </trkpt>
      <trkpt lat="49.03875" lon="7.10335">
        <ele>273</ele>
        <time>2013-03-24T10:00:08Z</time>
      </trkpt>
      <trkpt lat="49.0387" lon="7.10321">
        <ele>273</ele>
        <time>2013-03-24T10:00:14Z</time>
      </trkpt>
      <trkpt lat="49.03866" lon="7.10305">
        <ele>273</ele>
        <time>2013-03-24T10:00:21Z</time>
      </trkpt>
      <trkpt lat="49.03862" lon="7.10291">
        <ele>273</ele>
        <time>2013-03-24T10:00:27Z</time>
      </trkpt>
      <trkpt lat="49.03859" lon="7.10278">
        <ele>272</ele>
        <time>2013-03-24T10:00:33Z</time>
      </trkpt>
      <trkpt lat="49.03856" lon="7.10265">
        <ele>272</ele>
        <time>2013-03-24T10:00:39Z</time>
      </trkpt>
      <trkpt lat="49.03851" lon="7.1025">
        <ele>271</ele>
        <time>2013-03-24T10:00:46Z</time>
      </trkpt>
      <trkpt lat="49.03847" lon="7.10238">
        <ele>271</ele>
        <time>2013-03-24T10:00:52Z</time>
      </trkpt>
      <trkpt lat="49.03841" lon="7.10225">
        <ele>270</ele>
        <time>2013-03-24T10:00:58Z</time>
      </trkpt>
      <trkpt lat="49.03836" lon="7.10214">
        <ele>270</ele>
        <time>2013-03-24T10:01:04Z</time>
      </trkpt>
      <trkpt lat="49.03829" lon="7.102">
        <ele>269</ele>
        <time>2013-03-24T10:01:11Z</time>
      </trkpt>
      <trkpt lat="49.03824" lon="7.1019">
        <ele>268</ele>
        <time>2013-03-24T10:01:17Z</time>
      </trkpt>
      <trkpt lat="49.03818" lon="7.1018">
        <ele>267</ele>
        <time>2013-03-24T10:01:23Z</time>
      </trkpt>
      <trkpt lat="49.0381" lon="7.1017">
        <ele>266</ele>
        <time>2013-03-24T10:01:30Z</time>
      </trkpt>
      <trkpt lat="49.03802" lon="7.10172">
        <ele>264</ele>
        <time>2013-03-24T10:01:37Z</time>
      </trkpt>
      <trkpt lat="49.038" lon="7.10174">
        <ele>264</ele>
        <time>2013-03-24T10:01:56Z</time>
      </trkpt>
      <trkpt lat="49.03799" lon="7.10173">
        <ele>264</ele>
        <time>2013-03-24T10:02:33Z</time>
      </trkpt>
      <trkpt lat="49.03799" lon="7.10175">
        <ele>264</ele>
        <time>2013-03-24T10:02:44Z</time>
      </trkpt>
      <trkpt lat="49.038" lon="7.10175">
        <ele>264</ele>
        <time>2013-03-24T10:03:10Z</time>
      </trkpt>
      <trkpt lat="49.03801" lon="7.10176">
        <ele>264</ele>
        <time>2013-03-24T10:03:25Z</time>
      </trkpt>
      <trkpt lat="49.038" lon="7.10176">
        <ele>264</ele>
        <time>2013-03-24T10:04:00Z</time>
      </trkpt>
      <trkpt lat="49.038" lon="7.10175">
        <ele>264</ele>
        <time>2013-03-24T10:04:32Z</time>
      </trkpt>
      <trkpt lat="49.03802" lon="7.10174">
        <ele>264</ele>
        <time>2013-03-24T10:05:07Z</time>
      </trkpt>
      <trkpt lat="49.03801" lon="7.10175">
        <ele>264</ele>
        <time>2013-03-24T10:05:25Z</time>
      </trkpt>
      <trkpt lat="49.03802" lon="7.10174">
        <ele>264</ele>
        <time>2013-03-24T10:05:51Z</time>
      </trkpt>
      <trkpt lat="49.03797" lon="7.10163">
        <ele>264</ele>
        <time>2013-03-24T10:05:57Z</time>
      </trkpt>
      <trkpt lat="49.03789" lon="7.10157">
        <ele>264</ele>
        <time>2013-03-24T10:06:03Z</time>
      </trkpt>
      <trkpt lat="49.0378" lon="7.10151">
        <ele>264</ele>
        <time>2013-03-24T10:06:09Z</time>
      </trkpt>
      <trkpt lat="49.03771" lon="7.10144">
        <ele>264</ele>
        <time>2013-03-24T10:06:15Z</time>
      </trkpt>
      <trkpt lat="49.03762" lon="7.10137">
        <ele>263</ele>
        <time>2013-03-24T10:06:21Z</time>
      </trkpt>
      <trkpt lat="49.03754" lon="7.1013">
        <ele>263</ele>
        <time>2013-03-24T10:06:27Z</time>
      </trkpt>
      <trkpt lat="49.03745" lon="7.10122">
        <ele>262</ele>
        <time>2013-03-24T10:06:33Z</time>
      </trkpt>
      <trkpt lat="49.03736" lon="7.10115">
        <ele>261</ele>
        <time>2013-03-24T10:06:39Z</time>
      </trkpt>
      <trkpt lat="49.03728" lon="7.10106">
        <ele>260</ele>
        <time>2013-03-24T10:06:45Z</time>
      </trkpt>
      <trkpt lat="49.0372" lon="7.10099">
        <ele>260</ele>
        <time>2013-03-24T10:06:51Z</time>
      </trkpt>
      <trkpt lat="49.03712" lon="7.1009">
        <ele>259</ele>
        <time>2013-03-24T10:06:57Z</time>
      </trkpt>
      <trkpt lat="49.03704" lon="7.10081">
        <ele>259</ele>
        <time>2013-03-24T10:07:03Z</time>
      </trkpt>
      <trkpt lat="49.03695" lon="7.10071">
        <ele>258</ele>
        <time>2013-03-24T10:07:10Z</time>
      </trkpt>
      <trkpt lat="49.03686" lon="7.10063">
        <ele>257</ele>
        <time>2013-03-24T10:07:16Z</time>
      </trkpt>
      <trkpt lat="49.03678" lon="7.10055">
        <ele>257</ele>
        <time>2013-03-24T10:07:22Z</time>
      </trkpt>
      <trkpt lat="49.0367" lon="7.10046">
        <ele>256</ele>
        <time>2013-03-24T10:07:28Z</time>
      </trkpt>
      <trkpt lat="49.03662" lon="7.10038">
        <ele>256</ele>
        <time>2013-03-24T10:07:34Z</time>
      </trkpt>
      <trkpt lat="49.03654" lon="7.10028">
        <ele>256</ele>
        <time>2013-03-24T10:07:40Z</time>
      </trkpt>
      <trkpt lat="49.03646" lon="7.10019">
        <ele>255</ele>
        <time>2013-03-24T10:07:46Z</time>
      </trkpt>
      <trkpt lat="49.03638" lon="7.1001">
        <ele>253</ele>
        <time>2013-03-24T10:07:52Z</time>
      </trkpt>
      <trkpt lat="49.0363" lon="7.10002">
        <ele>252</ele>
        <time>2013-03-24T10:07:58Z</time>
      </trkpt>
      <trkpt lat="49.03622" lon="7.09993">
        <ele>251</ele>
        <time>2013-03-24T10:08:04Z</time>
      </trkpt>
      <trkpt lat="49.03614" lon="7.09983">
        <ele>250</ele>
        <time>2013-03-24T10:08:10Z</time>
      </trkpt>
      <trkpt lat="49.03607" lon="7.09973">
        <ele>249</ele>
        <time>2013-03-24T10:08:16Z</time>
      </trkpt>
      <trkpt lat="49.03599" lon="7.09962">
        <ele>249</ele>
        <time>2013-03-24T10:08:22Z</time>
      </trkpt>
      <trkpt lat="49.03593" lon="7.09952">
        <ele>249</ele>
        <time>2013-03-24T10:08:28Z</time>
      </trkpt>
      <trkpt lat="49.03586" lon="7.09942">
        <ele>249</ele>
        <time>2013-03-24T10:08:34Z</time>
      </trkpt>
      <trkpt lat="49.0358" lon="7.0993">
        <ele>247</ele>
        <time>2013-03-24T10:08:40Z</time>
      </trkpt>
      <trkpt lat="49.03573" lon="7.09918">
        <ele>246</ele>
        <time>2013-03-24T10:08:46Z</time>
      </trkpt>
      <trkpt lat="49.03567" lon="7.09907">
        <ele>246</ele>
        <time>2013-03-24T10:08:52Z</time>
      </trkpt>
      <trkpt lat="49.0356" lon="7.09894">
        <ele>245</ele>
        <time>2013-03-24T10:08:58Z</time>
      </trkpt>
      <trkpt lat="49.03554" lon="7.09882">
        <ele>245</ele>
        <time>2013-03-24T10:09:04Z</time>
      </trkpt>
      <trkpt lat="49.03548" lon="7.0987">
        <ele>245</ele>
        <time>2013-03-24T10:09:10Z</time>
      </trkpt>
      <trkpt lat="49.03546" lon="7.09858">
        <ele>245</ele>
        <time>2013-03-24T10:09:17Z</time>
      </trkpt>
      <trkpt lat="49.03551" lon="7.09858">
        <ele>244</ele>
        <time>2013-03-24T10:09:31Z</time>
      </trkpt>
      <trkpt lat="49.03549" lon="7.09859">
        <ele>244</ele>
        <time>2013-03-24T10:09:59Z</time>
      </trkpt>
      <trkpt lat="49.03542" lon="7.09859">
        <ele>244</ele>
        <time>2013-03-24T10:10:05Z</time>
      </trkpt>
      <trkpt lat="49.03536" lon="7.09849">
        <ele>244</ele>
        <time>2013-03-24T10:10:11Z</time>
      </trkpt>
      <trkpt lat="49.03531" lon="7.09837">
        <ele>244</ele>
        <time>2013-03-24T10:10:17Z</time>
      </trkpt>
      <trkpt lat="49.03525" lon="7.09824">
        <ele>244</ele>
        <time>2013-03-24T10:10:23Z</time>
      </trkpt>
      <trkpt lat="49.0352" lon="7.0981">
        <ele>244</ele>
        <time>2013-03-24T10:10:29Z</time>
      </trkpt>
      <trkpt lat="49.03515" lon="7.09798">
        <ele>244</ele>
        <time>2013-03-24T10:10:35Z</time>
      </trkpt>
      <trkpt lat="49.0351" lon="7.09784">
        <ele>243</ele>
        <time>2013-03-24T10:10:41Z</time>
      </trkpt>
      <trkpt lat="49.03506" lon="7.0977">
        <ele>242</ele>
        <time>2013-03-24T10:10:47Z</time>
      </trkpt>
      <trkpt lat="49.03502" lon="7.09757">
        <ele>242</ele>
        <time>2013-03-24T10:10:53Z</time>
      </trkpt>
      <trkpt lat="49.03498" lon="7.09743">
        <ele>241</ele>
        <time>2013-03-24T10:10:59Z</time>
      </trkpt>
      <trkpt lat="49.03495" lon="7.09729">
        <ele>241</ele>
        <time>2013-03-24T10:11:05Z</time>
      </trkpt>
      <trkpt lat="49.03491" lon="7.09714">
        <ele>240</ele>
        <time>2013-03-24T10:11:11Z</time>
      </trkpt>
      <trkpt lat="49.03488" lon="7.097">
        <ele>240</ele>
        <time>2013-03-24T10:11:17Z</time>
      </trkpt>
      <trkpt lat="49.03484" lon="7.09687">
        <ele>239</ele>
        <time>2013-03-24T10:11:23Z</time>
      </trkpt>
      <trkpt lat="49.0348" lon="7.09675">
        <ele>239</ele>
        <time>2013-03-24T10:11:29Z</time>
      </trkpt>
      <trkpt lat="49.03473" lon="7.09665">
        <ele>239</ele>
        <time>2013-03-24T10:11:35Z</time>
      </trkpt>
      <trkpt lat="49.03466" lon="7.09656">
        <ele>239</ele>
        <time>2013-03-24T10:11:41Z</time>
      </trkpt>
      <trkpt lat="49.03459" lon="7.09647">
        <ele>238</ele>
        <time>2013-03-24T10:11:47Z</time>
      </trkpt>
      <trkpt lat="49.03452" lon="7.09637">
        <ele>238</ele>
        <time>2013-03-24T10:11:53Z</time>
      </trkpt>
      <trkpt lat="49.03444" lon="7.09629">
        <ele>238</ele>
        <time>2013-03-24T10:11:59Z</time>
      </trkpt>
      <trkpt lat="49.03437" lon="7.0962">
        <ele>238</ele>
        <time>2013-03-24T10:12:05Z</time>
      </trkpt>
      <trkpt lat="49.0343" lon="7.09613">
        <ele>238</ele>
        <time>2013-03-24T10:12:11Z</time>
      </trkpt>
      <trkpt lat="49.03422" lon="7.09607">
        <ele>238</ele>
        <time>2013-03-24T10:12:17Z</time>
      </trkpt>
      <trkpt lat="49.03414" lon="7.09601">
        <ele>238</ele>
        <time>2013-03-24T10:12:23Z</time>
      </trkpt>
      <trkpt lat="49.03405" lon="7.09598">
        <ele>238</ele>
        <time>2013-03-24T10:12:29Z</time>
      </trkpt>
      <trkpt lat="49.03396" lon="7.09595">
        <ele>238</ele>
        <time>2013-03-24T10:12:35Z</time>
      </trkpt>
      <trkpt lat="49.03387" lon="7.09594">
        <ele>238</ele>
        <time>2013-03-24T10:12:41Z</time>
      </trkpt>
      <trkpt lat="49.03378" lon="7.09592">
        <ele>238</ele>
        <time>2013-03-24T10:12:47Z</time>
      </trkpt>
      <trkpt lat="49.03368" lon="7.0959">
        <ele>238</ele>
        <time>2013-03-24T10:12:53Z</time>
      </trkpt>
      <trkpt lat="49.0336" lon="7.09586">
        <ele>238</ele>
        <time>2013-03-24T10:12:59Z</time>
      </trkpt>
      <trkpt lat="49.03351" lon="7.09582">
        <ele>238</ele>
        <time>2013-03-24T10:13:05Z</time>
      </trkpt>
      <trkpt lat="49.03342" lon="7.09579">
        <ele>238</ele>
        <time>2013-03-24T10:13:11Z</time>
      </trkpt>
      <trkpt lat="49.03333" lon="7.09577">
        <ele>238</ele>
        <time>2013-03-24T10:13:17Z</time>
      </trkpt>
      <trkpt lat="49.03323" lon="7.09575">
        <ele>238</ele>
        <time>2013-03-24T10:13:23Z</time>
      </trkpt>
      <trkpt lat="49.03314" lon="7.09576">
        <ele>238</ele>
        <time>2013-03-24T10:13:29Z</time>
      </trkpt>
      <trkpt lat="49.03305" lon="7.09581">
        <ele>238</ele>
        <time>2013-03-24T10:13:35Z</time>
      </trkpt>
      <trkpt lat="49.03296" lon="7.09589">
        <ele>238</ele>
        <time>2013-03-24T10:13:41Z</time>
      </trkpt>
      <trkpt lat="49.03288" lon="7.09597">
        <ele>238</ele>
        <time>2013-03-24T10:13:47Z</time>
      </trkpt>
      <trkpt lat="49.03279" lon="7.09605">
        <ele>238</ele>
        <time>2013-03-24T10:13:53Z</time>
      </trkpt>
      <trkpt lat="49.03271" lon="7.09613">
        <ele>238</ele>
        <time>2013-03-24T10:13:59Z</time>
      </trkpt>
      <trkpt lat="49.03263" lon="7.09621">
        <ele>238</ele>
        <time>2013-03-24T10:14:05Z</time>
      </trkpt>
      <trkpt lat="49.03255" lon="7.0963">
        <ele>238</ele>
        <time>2013-03-24T10:14:11Z</time>
      </trkpt>
      <trkpt lat="49.03247" lon="7.09639">
        <ele>238</ele>
        <time>2013-03-24T10:14:17Z</time>
      </trkpt>
      <trkpt lat="49.03239" lon="7.09646">
        <ele>238</ele>
        <time>2013-03-24T10:14:23Z</time>
      </trkpt>
      <trkpt lat="49.0323" lon="7.09654">
        <ele>238</ele>
        <time>2013-03-24T10:14:29Z</time>
      </trkpt>
      <trkpt lat="49.03221" lon="7.0966">
        <ele>237</ele>
        <time>2013-03-24T10:14:35Z</time>
      </trkpt>
      <trkpt lat="49.03211" lon="7.09661">
        <ele>237</ele>
        <time>2013-03-24T10:14:41Z</time>
      </trkpt>
      <trkpt lat="49.03202" lon="7.09654">
        <ele>236</ele>
        <time>2013-03-24T10:14:47Z</time>
      </trkpt>
      <trkpt lat="49.03195" lon="7.09644">
        <ele>236</ele>
        <time>2013-03-24T10:14:53Z</time>
      </trkpt>
      <trkpt lat="49.03189" lon="7.09632">
        <ele>236</ele>
        <time>2013-03-24T10:14:59Z</time>
      </trkpt>
      <trkpt lat="49.03182" lon="7.0962">
        <ele>236</ele>
        <time>2013-03-24T10:15:05Z</time>
      </trkpt>
      <trkpt lat="49.03176" lon="7.09608">
        <ele>236</ele>
        <time>2013-03-24T10:15:11Z</time>
      </trkpt>
      <trkpt lat="49.0317" lon="7.09596">
        <ele>236</ele>
        <time>2013-03-24T10:15:17Z</time>
      </trkpt>
      <trkpt lat="49.03164" lon="7.09585">
        <ele>236</ele>
        <time>2013-03-24T10:15:23Z</time>
      </trkpt>
      <trkpt lat="49.03158" lon="7.09573">
        <ele>236</ele>
        <time>2013-03-24T10:15:29Z</time>
      </trkpt>
      <trkpt lat="49.03151" lon="7.09562">
        <ele>236</ele>
        <time>2013-03-24T10:15:35Z</time>
      </trkpt>
      <trkpt lat="49.03145" lon="7.09552">
        <ele>236</ele>
        <time>2013-03-24T10:15:41Z</time>
      </trkpt>
      <trkpt lat="49.03139" lon="7.09541">
        <ele>236</ele>
        <time>2013-03-24T10:15:47Z</time>
      </trkpt>
      <trkpt lat="49.03133" lon="7.0953">
        <ele>236</ele>
        <time>2013-03-24T10:15:53Z</time>
      </trkpt>
      <trkpt lat="49.03126" lon="7.09519">
        <ele>236</ele>
        <time>2013-03-24T10:15:59Z</time>
      </trkpt>
      <trkpt lat="49.03119" lon="7.09509">
        <ele>236</ele>
        <time>2013-03-24T10:16:05Z</time>
      </trkpt>
      <trkpt lat="49.03113" lon="7.09498">
        <ele>236</ele>
        <time>2013-03-24T10:16:11Z</time>
      </trkpt>
      <trkpt lat="49.03106" lon="7.09487">
        <ele>236</ele>
        <time>2013-03-24T10:16:17Z</time>
      </trkpt>
      <trkpt lat="49.031" lon="7.09475">
        <ele>236</ele>
        <time>2013-03-24T10:16:23Z</time>
      </trkpt>
      <trkpt lat="49.03093" lon="7.09465">
        <ele>236</ele>
        <time>2013-03-24T10:16:29Z</time>
      </trkpt>
      <trkpt lat="49.03086" lon="7.09454">
        <ele>236</ele>
        <time>2013-03-24T10:16:35Z</time>
      </trkpt>
      <trkpt lat="49.03079" lon="7.09443">
        <ele>235</ele>
        <time>2013-03-24T10:16:41Z</time>
      </trkpt>
      <trkpt lat="49.03073" lon="7.09433">
        <ele>234</ele>
        <time>2013-03-24T10:16:47Z</time>
      </trkpt>
      <trkpt lat="49.03067" lon="7.09421">
        <ele>233</ele>
        <time>2013-03-24T10:16:53Z</time>
      </trkpt>
      <trkpt lat="49.0306" lon="7.0941">
        <ele>231</ele>
        <time>2013-03-24T10:16:59Z</time>
      </trkpt>
      <trkpt lat="49.03054" lon="7.09399">
        <ele>231</ele>
        <time>2013-03-24T10:17:05Z</time>
      </trkpt>
      <trkpt lat="49.03047" lon="7.09388">
        <ele>230</ele>
        <time>2013-03-24T10:17:11Z</time>
      </trkpt>
      <trkpt lat="49.0304" lon="7.09377">
        <ele>229</ele>
        <time>2013-03-24T10:17:17Z</time>
      </trkpt>
      <trkpt lat="49.03034" lon="7.09365">
        <ele>228</ele>
        <time>2013-03-24T10:17:23Z</time>
      </trkpt>
      <trkpt lat="49.03027" lon="7.09353">
        <ele>227</ele>
        <time>2013-03-24T10:17:29Z</time>
      </trkpt>
      <trkpt lat="49.03021" lon="7.09343">
        <ele>226</ele>
        <time>2013-03-24T10:17:35Z</time>
      </trkpt>
      <trkpt lat="49.03014" lon="7.09333">
        <ele>224</ele>
        <time>2013-03-24T10:17:41Z</time>
      </trkpt>
      <trkpt lat="49.03007" lon="7.09322">
        <ele>223</ele>
        <time>2013-03-24T10:17:47Z</time>
      </trkpt>
      <trkpt lat="49.03001" lon="7.09312">
        <ele>222</ele>
        <time>2013-03-24T10:17:53Z</time>
      </trkpt>
      <trkpt lat="49.02994" lon="7.09301">
        <ele>222</ele>
        <time>2013-03-24T10:17:59Z</time>
      </trkpt>
      <trkpt lat="49.02987" lon="7.09291">
        <ele>222</ele>
        <time>2013-03-24T10:18:05Z</time>
      </trkpt>
      <trkpt lat="49.0298" lon="7.0928">
        <ele>222</ele>
        <time>2013-03-24T10:18:12Z</time>
      </trkpt>
      <trkpt lat="49.02972" lon="7.0927">
        <ele>222</ele>
        <time>2013-03-24T10:18:18Z</time>
      </trkpt>
      <trkpt lat="49.02964" lon="7.09263">
        <ele>222</ele>
        <time>2013-03-24T10:18:24Z</time>
      </trkpt>
      <trkpt lat="49.02955" lon="7.09257">
        <ele>222</ele>
        <time>2013-03-24T10:18:30Z</time>
      </trkpt>
      <trkpt lat="49.02947" lon="7.09252">
        <ele>222</ele>
        <time>2013-03-24T10:18:36Z</time>
      </trkpt>
      <trkpt lat="49.02938" lon="7.09249">
        <ele>222</ele>
        <time>2013-03-24T10:18:42Z</time>
      </trkpt>
      <trkpt lat="49.02929" lon="7.09248">
        <ele>222</ele>
        <time>2013-03-24T10:18:48Z</time>
      </trkpt>
      <trkpt lat="49.02919" lon="7.09248">
        <ele>222</ele>
        <time>2013-03-24T10:18:54Z</time>
      </trkpt>
      <trkpt lat="49.02911" lon="7.09248">
        <ele>222</ele>
        <time>2013-03-24T10:19:00Z</time>
      </trkpt>
      <trkpt lat="49.02902" lon="7.09249">
        <ele>222</ele>
        <time>2013-03-24T10:19:06Z</time>
      </trkpt>
      <trkpt lat="49.02892" lon="7.0925">
        <ele>222</ele>
        <time>2013-03-24T10:19:12Z</time>
      </trkpt>
      <trkpt lat="49.02883" lon="7.09251">
        <ele>222</ele>
        <time>2013-03-24T10:19:18Z</time>
      </trkpt>
      <trkpt lat="49.02874" lon="7.09249">
        <ele>222</ele>
        <time>2013-03-24T10:19:24Z</time>
      </trkpt>
      <trkpt lat="49.02866" lon="7.09244">
        <ele>222</ele>
        <time>2013-03-24T10:19:30Z</time>
      </trkpt>
      <trkpt lat="49.02858" lon="7.09236">
        <ele>222</ele>
        <time>2013-03-24T10:19:36Z</time>
      </trkpt>
      <trkpt lat="49.02852" lon="7.09226">
        <ele>222</ele>
        <time>2013-03-24T10:19:42Z</time>
      </trkpt>
      <trkpt lat="49.02846" lon="7.09215">
        <ele>222</ele>
        <time>2013-03-24T10:19:48Z</time>
      </trkpt>
      <trkpt lat="49.02841" lon="7.09203">
        <ele>222</ele>
        <time>2013-03-24T10:19:54Z</time>
      </trkpt>
      <trkpt lat="49.02836" lon="7.09191">
        <ele>222</ele>
        <time>2013-03-24T10:20:00Z</time>
      </trkpt>
      <trkpt lat="49.02829" lon="7.09179">
        <ele>222</ele>
        <time>2013-03-24T10:20:06Z</time>
      </trkpt>
      <trkpt lat="49.02822" lon="7.09166">
        <ele>222</ele>
        <time>2013-03-24T10:20:13Z</time>
      </trkpt>
      <trkpt lat="49.02817" lon="7.09153">
        <ele>223</ele>
        <time>2013-03-24T10:20:19Z</time>
      </trkpt>
      <trkpt lat="49.0281" lon="7.09141">
        <ele>224</ele>
        <time>2013-03-24T10:20:26Z</time>
      </trkpt>
      <trkpt lat="49.02804" lon="7.0913">
        <ele>224</ele>
        <time>2013-03-24T10:20:32Z</time>
      </trkpt>
      <trkpt lat="49.02796" lon="7.0912">
        <ele>224</ele>
        <time>2013-03-24T10:20:38Z</time>
      </trkpt>
      <trkpt lat="49.02788" lon="7.09112">
        <ele>224</ele>
        <time>2013-03-24T10:20:44Z</time>
      </trkpt>
      <trkpt lat="49.02779" lon="7.09107">
        <ele>224</ele>
        <time>2013-03-24T10:20:50Z</time>
      </trkpt>
      <trkpt lat="49.0277" lon="7.09105">
        <ele>224</ele>
        <time>2013-03-24T10:20:56Z</time>
      </trkpt>
      <trkpt lat="49.02761" lon="7.09102">
        <ele>224</ele>
        <time>2013-03-24T10:21:02Z</time>
      </trkpt>
      <trkpt lat="49.02751" lon="7.09098">
        <ele>224</ele>
        <time>2013-03-24T10:21:08Z</time>
      </trkpt>
      <trkpt lat="49.02743" lon="7.09093">
        <ele>224</ele>
        <time>2013-03-24T10:21:14Z</time>
      </trkpt>
      <trkpt lat="49.02734" lon="7.09082">
        <ele>224</ele>
        <time>2013-03-24T10:21:21Z</time>
      </trkpt>
      <trkpt lat="49.02728" lon="7.09072">
        <ele>224</ele>
        <time>2013-03-24T10:21:27Z</time>
      </trkpt>
      <trkpt lat="49.02723" lon="7.09059">
        <ele>224</ele>
        <time>2013-03-24T10:21:33Z</time>
      </trkpt>
      <trkpt lat="49.02717" lon="7.09047">
        <ele>224</ele>
        <time>2013-03-24T10:21:39Z</time>
      </trkpt>
      <trkpt lat="49.02712" lon="7.09035">
        <ele>224</ele>
        <time>2013-03-24T10:21:45Z</time>
      </trkpt>
      <trkpt lat="49.02707" lon="7.09023">
        <ele>224</ele>
        <time>2013-03-24T10:21:51Z</time>
      </trkpt>
      <trkpt lat="49.02701" lon="7.09011">
        <ele>224</ele>
        <time>2013-03-24T10:21:57Z</time>
      </trkpt>
      <trkpt lat="49.02697" lon="7.08998">
        <ele>224</ele>
        <time>2013-03-24T10:22:03Z</time>
      </trkpt>
      <trkpt lat="49.02691" lon="7.08986">
        <ele>224</ele>
        <time>2013-03-24T10:22:09Z</time>
      </trkpt>
      <trkpt lat="49.02685" lon="7.08974">
        <ele>224</ele>
        <time>2013-03-24T10:22:15Z</time>
      </trkpt>
      <trkpt lat="49.02679" lon="7.08963">
        <ele>224</ele>
        <time>2013-03-24T10:22:21Z</time>
      </trkpt>
      <trkpt lat="49.02673" lon="7.08952">
        <ele>224</ele>
        <time>2013-03-24T10:22:27Z</time>
      </trkpt>
      <trkpt lat="49.02667" lon="7.08941">
        <ele>224</ele>
        <time>2013-03-24T10:22:33Z</time>
      </trkpt>
      <trkpt lat="49.02661" lon="7.0893">
        <ele>224</ele>
        <time>2013-03-24T10:22:39Z</time>
      </trkpt>
      <trkpt lat="49.02655" lon="7.08919">
        <ele>224</ele>
        <time>2013-03-24T10:22:45Z</time>
      </trkpt>
      <trkpt lat="49.02648" lon="7.08909">
        <ele>224</ele>
        <time>2013-03-24T10:22:51Z</time>
      </trkpt>
      <trkpt lat="49.02642" lon="7.08898">
        <ele>224</ele>
        <time>2013-03-24T10:22:57Z</time>
      </trkpt>
      <trkpt lat="49.02635" lon="7.08888">
        <ele>224</ele>
        <time>2013-03-24T10:23:03Z</time>
      </trkpt>
      <trkpt lat="49.02628" lon="7.08878">
        <ele>224</ele>
        <time>2013-03-24T10:23:09Z</time>
      </trkpt>
      <trkpt lat="49.02621" lon="7.08869">
        <ele>224</ele>
        <time>2013-03-24T10:23:15Z</time>
      </trkpt>
      <trkpt lat="49.02613" lon="7.08861">
        <ele>224</ele>
        <time>2013-03-24T10:23:21Z</time>
      </trkpt>
      <trkpt lat="49.02605" lon="7.08854">
        <ele>224</ele>
        <time>2013-03-24T10:23:27Z</time>
      </trkpt>
      <trkpt lat="49.02597" lon="7.08848">
        <ele>224</ele>
        <time>2013-03-24T10:23:33Z</time>
      </trkpt>
      <trkpt lat="49.02588" lon="7.08842">
        <ele>223</ele>
        <time>2013-03-24T10:23:39Z</time>
      </trkpt>
      <trkpt lat="49.02579" lon="7.08837">
        <ele>223</ele>
        <time>2013-03-24T10:23:45Z</time>
      </trkpt>
      <trkpt lat="49.0257" lon="7.08832">
        <ele>223</ele>
        <time>2013-03-24T10:23:51Z</time>
      </trkpt>
      <trkpt lat="49.02562" lon="7.08827">
        <ele>222</ele>
        <time>2013-03-24T10:23:57Z</time>
      </trkpt>
      <trkpt lat="49.02553" lon="7.08823">
        <ele>222</ele>
        <time>2013-03-24T10:24:03Z</time>
      </trkpt>
      <trkpt lat="49.02543" lon="7.08819">
        <ele>222</ele>
        <time>2013-03-24T10:24:09Z</time>
      </trkpt>
      <trkpt lat="49.02534" lon="7.08814">
        <ele>222</ele>
        <time>2013-03-24T10:24:15Z</time>
      </trkpt>
      <trkpt lat="49.02524" lon="7.08808">
        <ele>222</ele>
        <time>2013-03-24T10:24:22Z</time>
      </trkpt>
      <trkpt lat="49.02515" lon="7.08803">
        <ele>222</ele>
        <time>2013-03-24T10:24:28Z</time>
      </trkpt>
      <trkpt lat="49.02506" lon="7.08799">
        <ele>222</ele>
        <time>2013-03-24T10:24:34Z</time>
      </trkpt>
      <trkpt lat="49.02497" lon="7.08794">
        <ele>222</ele>
        <time>2013-03-24T10:24:40Z</time>
      </trkpt>
      <trkpt lat="49.02487" lon="7.0879">
        <ele>222</ele>
        <time>2013-03-24T10:24:46Z</time>
      </trkpt>
      <trkpt lat="49.02479" lon="7.08786">
        <ele>222</ele>
        <time>2013-03-24T10:24:52Z</time>
      </trkpt>
      <trkpt lat="49.02469" lon="7.08781">
        <ele>222</ele>
        <time>2013-03-24T10:24:58Z</time>
      </trkpt>
      <trkpt lat="49.0246" lon="7.08777">
        <ele>222</ele>
        <time>2013-03-24T10:25:04Z</time>
      </trkpt>
      <trkpt lat="49.02451" lon="7.08772">
        <ele>222</ele>
        <time>2013-03-24T10:25:10Z</time>
      </trkpt>
      <trkpt lat="49.02442" lon="7.08768">
        <ele>222</ele>
        <time>2013-03-24T10:25:16Z</time>
      </trkpt>
      <trkpt lat="49.02433" lon="7.08763">
        <ele>222</ele>
        <time>2013-03-24T10:25:22Z</time>
      </trkpt>
      <trkpt lat="49.02424" lon="7.08758">
        <ele>222</ele>
        <time>2013-03-24T10:25:28Z</time>
      </trkpt>
      <trkpt lat="49.02415" lon="7.08753">
        <ele>221</ele>
        <time>2013-03-24T10:25:34Z</time>
      </trkpt>
      <trkpt lat="49.02406" lon="7.08748">
        <ele>221</ele>
        <time>2013-03-24T10:25:40Z</time>
      </trkpt>
      <trkpt lat="49.02397" lon="7.08742">
        <ele>221</ele>
        <time>2013-03-24T10:25:46Z</time>
      </trkpt>
      <trkpt lat="49.02389" lon="7.08735">
        <ele>221</ele>
        <time>2013-03-24T10:25:52Z</time>
      </trkpt>
      <trkpt lat="49.0238" lon="7.08727">
        <ele>221</ele>
        <time>2013-03-24T10:25:58Z</time>
      </trkpt>
      <trkpt lat="49.02372" lon="7.0872">
        <ele>220</ele>
        <time>2013-03-24T10:26:04Z</time>
      </trkpt>
      <trkpt lat="49.02364" lon="7.08711">
        <ele>220</ele>
        <time>2013-03-24T10:26:10Z</time>
      </trkpt>
      <trkpt lat="49.02355" lon="7.08702">
        <ele>220</ele>
        <time>2013-03-24T10:26:16Z</time>
      </trkpt>
      <trkpt lat="49.02347" lon="7.08693">
        <ele>220</ele>
        <time>2013-03-24T10:26:22Z</time>
      </trkpt>
      <trkpt lat="49.02339" lon="7.08684">
        <ele>220</ele>
        <time>2013-03-24T10:26:28Z</time>
      </trkpt>
      <trkpt lat="49.02331" lon="7.08675">
        <ele>220</ele>
        <time>2013-03-24T10:26:34Z</time>
      </trkpt>
      <trkpt lat="49.02323" lon="7.08666">
        <ele>220</ele>
        <time>2013-03-24T10:26:40Z</time>
      </trkpt>
      <trkpt lat="49.02315" lon="7.08657">
        <ele>220</ele>
        <time>2013-03-24T10:26:46Z</time>
      </trkpt>
      <trkpt lat="49.02307" lon="7.08649">
        <ele>220</ele>
        <time>2013-03-24T10:26:52Z</time>
      </trkpt>
      <trkpt lat="49.02299" lon="7.08641">
        <ele>220</ele>
        <time>2013-03-24T10:26:58Z</time>
      </trkpt>
      <trkpt lat="49.02292" lon="7.08632">
        <ele>220</ele>
        <time>2013-03-24T10:27:04Z</time>
      </trkpt>
      <trkpt lat="49.02284" lon="7.08624">
        <ele>219</ele>
        <time>2013-03-24T10:27:10Z</time>
      </trkpt>
      <trkpt lat="49.02276" lon="7.08615">
        <ele>219</ele>
        <time>2013-03-24T10:27:16Z</time>
      </trkpt>
      <trkpt lat="49.02269" lon="7.08607">
        <ele>219</ele>
        <time>2013-03-24T10:27:22Z</time>
      </trkpt>
      <trkpt lat="49.02262" lon="7.08598">
        <ele>219</ele>
        <time>2013-03-24T10:27:28Z</time>
      </trkpt>
      <trkpt lat="49.02255" lon="7.08588">
        <ele>219</ele>
        <time>2013-03-24T10:27:34Z</time>
      </trkpt>
      <trkpt lat="49.02249" lon="7.08578">
        <ele>219</ele>
        <time>2013-03-24T10:27:40Z</time>
      </trkpt>
      <trkpt lat="49.02242" lon="7.08566">
        <ele>219</ele>
        <time>2013-03-24T10:27:46Z</time>
      </trkpt>
      <trkpt lat="49.02236" lon="7.08555">
        <ele>219</ele>
        <time>2013-03-24T10:27:52Z</time>
      </trkpt>
      <trkpt lat="49.02231" lon="7.08544">
        <ele>219</ele>
        <time>2013-03-24T10:27:58Z</time>
      </trkpt>
      <trkpt lat="49.02226" lon="7.08532">
        <ele>219</ele>
        <time>2013-03-24T10:28:04Z</time>
      </trkpt>
      <trkpt lat="49.0222" lon="7.0852">
        <ele>219</ele>
        <time>2013-03-24T10:28:10Z</time>
      </trkpt>
      <trkpt lat="49.02215" lon="7.08508">
        <ele>219</ele>
        <time>2013-03-24T10:28:16Z</time>
      </trkpt>
      <trkpt lat="49.02211" lon="7.08495">
        <ele>219</ele>
        <time>2013-03-24T10:28:22Z</time>
      </trkpt>
      <trkpt lat="49.02206" lon="7.08482">
        <ele>219</ele>
        <time>2013-03-24T10:28:28Z</time>
      </trkpt>
      <trkpt lat="49.02201" lon="7.08469">
        <ele>219</ele>
        <time>2013-03-24T10:28:34Z</time>
      </trkpt>
      <trkpt lat="49.02195" lon="7.08457">
        <ele>219</ele>
        <time>2013-03-24T10:28:40Z</time>
      </trkpt>
      <trkpt lat="49.0219" lon="7.08444">
        <ele>219</ele>
        <time>2013-03-24T10:28:46Z</time>
      </trkpt>
      <trkpt lat="49.02184" lon="7.08431">
        <ele>218</ele>
        <time>2013-03-24T10:28:52Z</time>
      </trkpt>
      <trkpt lat="49.02179" lon="7.0842">
        <ele>217</ele>
        <time>2013-03-24T10:28:58Z</time>
      </trkpt>
      <trkpt lat="49.02173" lon="7.08408">
        <ele>217</ele>
        <time>2013-03-24T10:29:04Z</time>
      </trkpt>
      <trkpt lat="49.02167" lon="7.08397">
        <ele>217</ele>
        <time>2013-03-24T10:29:10Z</time>
      </trkpt>
      <trkpt lat="49.02162" lon="7.08385">
        <ele>217</ele>
        <time>2013-03-24T10:29:16Z</time>
      </trkpt>
      <trkpt lat="49.02156" lon="7.08374">
        <ele>216</ele>
        <time>2013-03-24T10:29:22Z</time>
      </trkpt>
      <trkpt lat="49.0215" lon="7.08364">
        <ele>216</ele>
        <time>2013-03-24T10:29:28Z</time>
      </trkpt>
      <trkpt lat="49.02144" lon="7.08353">
        <ele>216</ele>
        <time>2013-03-24T10:29:34Z</time>
      </trkpt>
      <trkpt lat="49.02138" lon="7.08342">
        <ele>216</ele>
        <time>2013-03-24T10:29:40Z</time>
      </trkpt>
      <trkpt lat="49.02132" lon="7.0833">
        <ele>216</ele>
        <time>2013-03-24T10:29:46Z</time>
      </trkpt>
      <trkpt lat="49.02126" lon="7.08318">
        <ele>215</ele>
        <time>2013-03-24T10:29:52Z</time>
      </trkpt>
      <trkpt lat="49.02121" lon="7.08306">
        <ele>214</ele>
        <time>2013-03-24T10:29:58Z</time>
      </trkpt>
      <trkpt lat="49.02116" lon="7.08293">
        <ele>214</ele>
        <time>2013-03-24T10:30:04Z</time>
      </trkpt>
      <trkpt lat="49.02111" lon="7.0828">
        <ele>214</ele>
        <time>2013-03-24T10:30:10Z</time>
      </trkpt>
      <trkpt lat="49.02107" lon="7.08267">
        <ele>214</ele>
        <time>2013-03-24T10:30:16Z</time>
      </trkpt>
      <trkpt lat="49.02105" lon="7.08253">
        <ele>214</ele>
        <time>2013-03-24T10:30:22Z</time>
      </trkpt>
      <trkpt lat="49.02102" lon="7.0824">
        <ele>214</ele>
        <time>2013-03-24T10:30:28Z</time>
      </trkpt>
      <trkpt lat="49.021" lon="7.08227">
        <ele>214</ele>
        <time>2013-03-24T10:30:34Z</time>
      </trkpt>
      <trkpt lat="49.02098" lon="7.08215">
        <ele>214</ele>
        <time>2013-03-24T10:30:40Z</time>
      </trkpt>
      <trkpt lat="49.02096" lon="7.08202">
        <ele>214</ele>
        <time>2013-03-24T10:30:46Z</time>
      </trkpt>
      <trkpt lat="49.02092" lon="7.0819">
        <ele>214</ele>
        <time>2013-03-24T10:30:52Z</time>
      </trkpt>
      <trkpt lat="49.02085" lon="7.08185">
        <ele>214</ele>
        <time>2013-03-24T10:30:58Z</time>
      </trkpt>
      <trkpt lat="49.02076" lon="7.08186">
        <ele>214</ele>
        <time>2013-03-24T10:31:04Z</time>
      </trkpt>
      <trkpt lat="49.0207" lon="7.08177">
        <ele>213</ele>
        <time>2013-03-24T10:31:10Z</time>
      </trkpt>
      <trkpt lat="49.02069" lon="7.08162">
        <ele>212</ele>
        <time>2013-03-24T10:31:16Z</time>
      </trkpt>
      <trkpt lat="49.02066" lon="7.08148">
        <ele>212</ele>
        <time>2013-03-24T10:31:22Z</time>
      </trkpt>
      <trkpt lat="49.02064" lon="7.08133">
        <ele>211</ele>
        <time>2013-03-24T10:31:28Z</time>
      </trkpt>
      <trkpt lat="49.02061" lon="7.08118">
        <ele>211</ele>
        <time>2013-03-24T10:31:34Z</time>
      </trkpt>
      <trkpt lat="49.02058" lon="7.08104">
        <ele>211</ele>
        <time>2013-03-24T10:31:40Z</time>
      </trkpt>
      <trkpt lat="49.02056" lon="7.08091">
        <ele>211</ele>
        <time>2013-03-24T10:31:46Z</time>
      </trkpt>
      <trkpt lat="49.02054" lon="7.08078">
        <ele>211</ele>
        <time>2013-03-24T10:31:52Z</time>
      </trkpt>
      <trkpt lat="49.02051" lon="7.08064">
        <ele>211</ele>
        <time>2013-03-24T10:31:58Z</time>
      </trkpt>
      <trkpt lat="49.02048" lon="7.08051">
        <ele>211</ele>
        <time>2013-03-24T10:32:04Z</time>
      </trkpt>
      <trkpt lat="49.02046" lon="7.08036">
        <ele>211</ele>
        <time>2013-03-24T10:32:10Z</time>
      </trkpt>
      <trkpt lat="49.02044" lon="7.08021">
        <ele>211</ele>
        <time>2013-03-24T10:32:16Z</time>
      </trkpt>
      <trkpt lat="49.02042" lon="7.08006">
        <ele>211</ele>
        <time>2013-03-24T10:32:22Z</time>
      </trkpt>
      <trkpt lat="49.02039" lon="7.07992">
        <ele>211</ele>
        <time>2013-03-24T10:32:28Z</time>
      </trkpt>
      <trkpt lat="49.02036" lon="7.07977">
        <ele>211</ele>
        <time>2013-03-24T10:32:34Z</time>
      </trkpt>
      <trkpt lat="49.02034" lon="7.07962">
        <ele>211</ele>
        <time>2013-03-24T10:32:40Z</time>
      </trkpt>
      <trkpt lat="49.02032" lon="7.07949">
        <ele>211</ele>
        <time>2013-03-24T10:32:46Z</time>
      </trkpt>
      <trkpt lat="49.0203" lon="7.07935">
        <ele>211</ele>
        <time>2013-03-24T10:32:52Z</time>
      </trkpt>
      <trkpt lat="49.02028" lon="7.0792">
        <ele>211</ele>
        <time>2013-03-24T10:32:58Z</time>
      </trkpt>
      <trkpt lat="49.02027" lon="7.07906">
        <ele>211</ele>
        <time>2013-03-24T10:33:04Z</time>
      </trkpt>
      <trkpt lat="49.02025" lon="7.07893">
        <ele>211</ele>
        <time>2013-03-24T10:33:10Z</time>
      </trkpt>
      <trkpt lat="49.02023" lon="7.07879">
        <ele>211</ele>
        <time>2013-03-24T10:33:16Z</time>
      </trkpt>
      <trkpt lat="49.02021" lon="7.07866">
        <ele>211</ele>
        <time>2013-03-24T10:33:22Z</time>
      </trkpt>
      <trkpt lat="49.0202" lon="7.07852">
        <ele>211</ele>
        <time>2013-03-24T10:33:28Z</time>
      </trkpt>
      <trkpt lat="49.02019" lon="7.07837">
        <ele>211</ele>
        <time>2013-03-24T10:33:34Z</time>
      </trkpt>
      <trkpt lat="49.02018" lon="7.07822">
        <ele>211</ele>
        <time>2013-03-24T10:33:40Z</time>
      </trkpt>
      <trkpt lat="49.02017" lon="7.07809">
        <ele>211</ele>
        <time>2013-03-24T10:33:46Z</time>
      </trkpt>
      <trkpt lat="49.02016" lon="7.07794">
        <ele>211</ele>
        <time>2013-03-24T10:33:52Z</time>
      </trkpt>
      <trkpt lat="49.02015" lon="7.07781">
        <ele>211</ele>
        <time>2013-03-24T10:33:58Z</time>
      </trkpt>
      <trkpt lat="49.02014" lon="7.07767">
        <ele>211</ele>
        <time>2013-03-24T10:34:04Z</time>
      </trkpt>
      <trkpt lat="49.02013" lon="7.07753">
        <ele>211</ele>
        <time>2013-03-24T10:34:10Z</time>
      </trkpt>
      <trkpt lat="49.02012" lon="7.07739">
        <ele>211</ele>
        <time>2013-03-24T10:34:16Z</time>
      </trkpt>
      <trkpt lat="49.02011" lon="7.07725">
        <ele>211</ele>
        <time>2013-03-24T10:34:22Z</time>
      </trkpt>
      <trkpt lat="49.0201" lon="7.07712">
        <ele>211</ele>
        <time>2013-03-24T10:34:28Z</time>
      </trkpt>
      <trkpt lat="49.02008" lon="7.07697">
        <ele>212</ele>
        <time>2013-03-24T10:34:34Z</time>
      </trkpt>
      <trkpt lat="49.02006" lon="7.07682">
        <ele>212</ele>
        <time>2013-03-24T10:34:40Z</time>
      </trkpt>
      <trkpt lat="49.02005" lon="7.07668">
        <ele>212</ele>
        <time>2013-03-24T10:34:46Z</time>
      </trkpt>
      <trkpt lat="49.02003" lon="7.07654">
        <ele>212</ele>
        <time>2013-03-24T10:34:52Z</time>
      </trkpt>
      <trkpt lat="49.02" lon="7.07641">
        <ele>212</ele>
        <time>2013-03-24T10:34:58Z</time>
      </trkpt>
      <trkpt lat="49.01998" lon="7.07628">
        <ele>213</ele>
        <time>2013-03-24T10:35:04Z</time>
      </trkpt>
      <trkpt lat="49.01995" lon="7.07615">
        <ele>214</ele>
        <time>2013-03-24T10:35:10Z</time>
      </trkpt>
      <trkpt lat="49.01993" lon="7.07603">
        <ele>215</ele>
        <time>2013-03-24T10:35:16Z</time>
      </trkpt>
      <trkpt lat="49.01992" lon="7.07592">
        <ele>217</ele>
        <time>2013-03-24T10:35:22Z</time>
      </trkpt>
      <trkpt lat="49.01999" lon="7.07589">
        <ele>218</ele>
        <time>2013-03-24T10:35:28Z</time>
      </trkpt>
      <trkpt lat="49.02005" lon="7.07585">
        <ele>218</ele>
        <time>2013-03-24T10:35:34Z</time>
      </trkpt>
      <trkpt lat="49.02012" lon="7.07577">
        <ele>218</ele>
        <time>2013-03-24T10:35:40Z</time>
      </trkpt>
      <trkpt lat="49.02021" lon="7.07578">
        <ele>218</ele>
        <time>2013-03-24T10:35:46Z</time>
      </trkpt>
      <trkpt lat="49.02023" lon="7.07566">
        <ele>218</ele>
        <time>2013-03-24T10:35:53Z</time>
      </trkpt>
      <trkpt lat="49.02022" lon="7.07553">
        <ele>218</ele>
        <time>2013-03-24T10:35:59Z</time>
      </trkpt>
      <trkpt lat="49.0202" lon="7.07541">
        <ele>218</ele>
        <time>2013-03-24T10:36:05Z</time>
      </trkpt>
      <trkpt lat="49.02019" lon="7.07525">
        <ele>218</ele>
        <time>2013-03-24T10:36:11Z</time>
      </trkpt>
      <trkpt lat="49.02018" lon="7.0751">
        <ele>218</ele>
        <time>2013-03-24T10:36:17Z</time>
      </trkpt>
      <trkpt lat="49.02017" lon="7.07494">
        <ele>218</ele>
        <time>2013-03-24T10:36:23Z</time>
      </trkpt>
      <trkpt lat="49.02015" lon="7.0748">
        <ele>218</ele>
        <time>2013-03-24T10:36:29Z</time>
      </trkpt>
      <trkpt lat="49.02014" lon="7.07465">
        <ele>216</ele>
        <time>2013-03-24T10:36:35Z</time>
      </trkpt>
      <trkpt lat="49.02013" lon="7.0745">
        <ele>216</ele>
        <time>2013-03-24T10:36:41Z</time>
      </trkpt>
      <trkpt lat="49.02012" lon="7.07436">
        <ele>215</ele>
        <time>2013-03-24T10:36:47Z</time>
      </trkpt>
      <trkpt lat="49.02012" lon="7.07422">
        <ele>214</ele>
        <time>2013-03-24T10:36:53Z</time>
      </trkpt>
      <trkpt lat="49.02012" lon="7.07407">
        <ele>214</ele>
        <time>2013-03-24T10:36:59Z</time>
      </trkpt>
      <trkpt lat="49.02013" lon="7.07392">
        <ele>214</ele>
        <time>2013-03-24T10:37:05Z</time>
      </trkpt>
      <trkpt lat="49.02014" lon="7.07379">
        <ele>214</ele>
        <time>2013-03-24T10:37:11Z</time>
      </trkpt>
      <trkpt lat="49.02014" lon="7.07363">
        <ele>213</ele>
        <time>2013-03-24T10:37:17Z</time>
      </trkpt>
      <trkpt lat="49.02013" lon="7.07348">
        <ele>213</ele>
        <time>2013-03-24T10:37:23Z</time>
      </trkpt>
      <trkpt lat="49.02013" lon="7.07333">
        <ele>213</ele>
        <time>2013-03-24T10:37:29Z</time>
      </trkpt>
      <trkpt lat="49.02012" lon="7.07318">
        <ele>213</ele>
        <time>2013-03-24T10:37:35Z</time>
      </trkpt>
      <trkpt lat="49.02011" lon="7.07303">
        <ele>213</ele>
        <time>2013-03-24T10:37:41Z</time>
      </trkpt>
      <trkpt lat="49.02009" lon="7.07288">
        <ele>212</ele>
        <time>2013-03-24T10:37:47Z</time>
      </trkpt>
      <trkpt lat="49.02007" lon="7.07274">
        <ele>212</ele>
        <time>2013-03-24T10:37:53Z</time>
      </trkpt>
      <trkpt lat="49.02004" lon="7.07259">
        <ele>212</ele>
        <time>2013-03-24T10:37:59Z</time>
      </trkpt>
      <trkpt lat="49.02002" lon="7.07244">
        <ele>212</ele>
        <time>2013-03-24T10:38:05Z</time>
      </trkpt>
      <trkpt lat="49.01999" lon="7.0723">
        <ele>212</ele>
        <time>2013-03-24T10:38:11Z</time>
      </trkpt>
      <trkpt lat="49.01996" lon="7.07216">
        <ele>212</ele>
        <time>2013-03-24T10:38:17Z</time>
      </trkpt>
      <trkpt lat="49.01992" lon="7.07202">
        <ele>212</ele>
        <time>2013-03-24T10:38:23Z</time>
      </trkpt>
      <trkpt lat="49.01988" lon="7.07189">
        <ele>212</ele>
        <time>2013-03-24T10:38:29Z</time>
      </trkpt>
      <trkpt lat="49.01985" lon="7.07176">
        <ele>212</ele>
        <time>2013-03-24T10:38:35Z</time>
      </trkpt>
      <trkpt lat="49.01982" lon="7.07161">
        <ele>212</ele>
        <time>2013-03-24T10:38:41Z</time>
      </trkpt>
      <trkpt lat="49.01979" lon="7.07146">
        <ele>212</ele>
        <time>2013-03-24T10:38:47Z</time>
      </trkpt>
      <trkpt lat="49.01976" lon="7.07134">
        <ele>212</ele>
        <time>2013-03-24T10:38:53Z</time>
      </trkpt>
      <trkpt lat="49.01973" lon="7.0712">
        <ele>212</ele>
        <time>2013-03-24T10:38:59Z</time>
      </trkpt>
      <trkpt lat="49.01972" lon="7.07114">
        <ele>209</ele>
        <time>2013-03-24T10:39:05Z</time>
      </trkpt>
      <trkpt lat="49.01953" lon="7.07086">
        <ele>195</ele>
        <time>2013-03-24T10:39:24Z</time>
      </trkpt>
      <trkpt lat="49.01948" lon="7.07061">
        <ele>184</ele>
        <time>2013-03-24T10:39:30Z</time>
      </trkpt>
      <trkpt lat="49.01944" lon="7.07041">
        <ele>184</ele>
        <time>2013-03-24T10:39:36Z</time>
      </trkpt>
      <trkpt lat="49.0195" lon="7.07032">
        <ele>190</ele>
        <time>2013-03-24T10:39:42Z</time>
      </trkpt>
      <trkpt lat="49.0196" lon="7.0703">
        <ele>193</ele>
        <time>2013-03-24T10:39:48Z</time>
      </trkpt>
      <trkpt lat="49.01969" lon="7.07026">
        <ele>194</ele>
        <time>2013-03-24T10:39:54Z</time>
      </trkpt>
      <trkpt lat="49.01978" lon="7.07023">
        <ele>195</ele>
        <time>2013-03-24T10:40:00Z</time>
      </trkpt>
      <trkpt lat="49.01988" lon="7.07021">
        <ele>195</ele>
        <time>2013-03-24T10:40:06Z</time>
      </trkpt>
      <trkpt lat="49.01996" lon="7.07018">
        <ele>195</ele>
        <time>2013-03-24T10:40:12Z</time>
      </trkpt>
      <trkpt lat="49.02004" lon="7.07015">
        <ele>196</ele>
        <time>2013-03-24T10:40:18Z</time>
      </trkpt>
      <trkpt lat="49.02012" lon="7.07012">
        <ele>199</ele>
        <time>2013-03-24T10:40:24Z</time>
      </trkpt>
      <trkpt lat="49.0202" lon="7.07007">
        <ele>200</ele>
        <time>2013-03-24T10:40:30Z</time>
      </trkpt>
      <trkpt lat="49.02028" lon="7.07004">
        <ele>201</ele>
        <time>2013-03-24T10:40:36Z</time>
      </trkpt>
      <trkpt lat="49.02038" lon="7.07001">
        <ele>202</ele>
        <time>2013-03-24T10:40:42Z</time>
      </trkpt>
      <trkpt lat="49.02047" lon="7.06997">
        <ele>204</ele>
        <time>2013-03-24T10:40:48Z</time>
      </trkpt>
      <trkpt lat="49.02056" lon="7.06994">
        <ele>207</ele>
        <time>2013-03-24T10:40:54Z</time>
      </trkpt>
      <trkpt lat="49.02065" lon="7.06991">
        <ele>210</ele>
        <time>2013-03-24T10:41:00Z</time>
      </trkpt>
      <trkpt lat="49.02074" lon="7.06989">
        <ele>211</ele>
        <time>2013-03-24T10:41:06Z</time>
      </trkpt>
      <trkpt lat="49.02082" lon="7.06987">
        <ele>212</ele>
        <time>2013-03-24T10:41:12Z</time>
      </trkpt>
      <trkpt lat="49.02091" lon="7.06982">
        <ele>213</ele>
        <time>2013-03-24T10:41:18Z</time>
      </trkpt>
      <trkpt lat="49.021" lon="7.06978">
        <ele>213</ele>
        <time>2013-03-24T10:41:24Z</time>
      </trkpt>
      <trkpt lat="49.02109" lon="7.06975">
        <ele>213</ele>
        <time>2013-03-24T10:41:30Z</time>
      </trkpt>
      <trkpt lat="49.02117" lon="7.06972">
        <ele>213</ele>
        <time>2013-03-24T10:41:36Z</time>
      </trkpt>
      <trkpt lat="49.02126" lon="7.0697">
        <ele>213</ele>
        <time>2013-03-24T10:41:42Z</time>
      </trkpt>
      <trkpt lat="49.02135" lon="7.06969">
        <ele>213</ele>
        <time>2013-03-24T10:41:48Z</time>
      </trkpt>
      <trkpt lat="49.02144" lon="7.06967">
        <ele>213</ele>
        <time>2013-03-24T10:41:54Z</time>
      </trkpt>
      <trkpt lat="49.02152" lon="7.06965">
        <ele>214</ele>
        <time>2013-03-24T10:42:00Z</time>
      </trkpt>
      <trkpt lat="49.02162" lon="7.06963">
        <ele>215</ele>
        <time>2013-03-24T10:42:07Z</time>
      </trkpt>
      <trkpt lat="49.02172" lon="7.0696">
        <ele>215</ele>
        <time>2013-03-24T10:42:14Z</time>
      </trkpt>
      <trkpt lat="49.02181" lon="7.06958">
        <ele>216</ele>
        <time>2013-03-24T10:42:20Z</time>
      </trkpt>
      <trkpt lat="49.0219" lon="7.06956">
        <ele>216</ele>
        <time>2013-03-24T10:42:26Z</time>
      </trkpt>
      <trkpt lat="49.02199" lon="7.06955">
        <ele>217</ele>
        <time>2013-03-24T10:42:32Z</time>
      </trkpt>
      <trkpt lat="49.02207" lon="7.06954">
        <ele>217</ele>
        <time>2013-03-24T10:42:38Z</time>
      </trkpt>
      <trkpt lat="49.02216" lon="7.06955">
        <ele>218</ele>
        <time>2013-03-24T10:42:44Z</time>
      </trkpt>
      <trkpt lat="49.02225" lon="7.06955">
        <ele>218</ele>
        <time>2013-03-24T10:42:50Z</time>
      </trkpt>
      <trkpt lat="49.02234" lon="7.06954">
        <ele>219</ele>
        <time>2013-03-24T10:42:56Z</time>
      </trkpt>
      <trkpt lat="49.02243" lon="7.06953">
        <ele>219</ele>
        <time>2013-03-24T10:43:02Z</time>
      </trkpt>
      <trkpt lat="49.02251" lon="7.06952">
        <ele>220</ele>
        <time>2013-03-24T10:43:08Z</time>
      </trkpt>
      <trkpt lat="49.02261" lon="7.06949">
        <ele>220</ele>
        <time>2013-03-24T10:43:15Z</time>
      </trkpt>
      <trkpt lat="49.02271" lon="7.06948">
        <ele>221</ele>
        <time>2013-03-24T10:43:22Z</time>
      </trkpt>
      <trkpt lat="49.0228" lon="7.06946">
        <ele>221</ele>
        <time>2013-03-24T10:43:28Z</time>
      </trkpt>
      <trkpt lat="49.02288" lon="7.06944">
        <ele>221</ele>
        <time>2013-03-24T10:43:34Z</time>
      </trkpt>
      <trkpt lat="49.02297" lon="7.06942">
        <ele>221</ele>
        <time>2013-03-24T10:43:40Z</time>
      </trkpt>
      <trkpt lat="49.02306" lon="7.06942">
        <ele>221</ele>
        <time>2013-03-24T10:43:46Z</time>
      </trkpt>
      <trkpt lat="49.02314" lon="7.06941">
        <ele>221</ele>
        <time>2013-03-24T10:43:52Z</time>
      </trkpt>
      <trkpt lat="49.02323" lon="7.06939">
        <ele>221</ele>
        <time>2013-03-24T10:43:58Z</time>
      </trkpt>
      <trkpt lat="49.02332" lon="7.06938">
        <ele>221</ele>
        <time>2013-03-24T10:44:04Z</time>
      </trkpt>
      <trkpt lat="49.02341" lon="7.06934">
        <ele>221</ele>
        <time>2013-03-24T10:44:11Z</time>
      </trkpt>
      <trkpt lat="49.0235" lon="7.06931">
        <ele>221</ele>
        <time>2013-03-24T10:44:17Z</time>
      </trkpt>
      <trkpt lat="49.02358" lon="7.06929">
        <ele>221</ele>
        <time>2013-03-24T10:44:23Z</time>
      </trkpt>
      <trkpt lat="49.02366" lon="7.06925">
        <ele>221</ele>
        <time>2013-03-24T10:44:29Z</time>
      </trkpt>
      <trkpt lat="49.02375" lon="7.06923">
        <ele>221</ele>
        <time>2013-03-24T10:44:35Z</time>
      </trkpt>
      <trkpt lat="49.02383" lon="7.06919">
        <ele>221</ele>
        <time>2013-03-24T10:44:41Z</time>
      </trkpt>
      <trkpt lat="49.02392" lon="7.06915">
        <ele>221</ele>
        <time>2013-03-24T10:44:48Z</time>
      </trkpt>
      <trkpt lat="49.024" lon="7.06912">
        <ele>221</ele>
        <time>2013-03-24T10:44:54Z</time>
      </trkpt>
      <trkpt lat="49.02407" lon="7.0691">
        <ele>221</ele>
        <time>2013-03-24T10:45:00Z</time>
      </trkpt>
      <trkpt lat="49.02416" lon="7.06904">
        <ele>221</ele>
        <time>2013-03-24T10:45:06Z</time>
      </trkpt>
      <trkpt lat="49.02424" lon="7.069">
        <ele>221</ele>
        <time>2013-03-24T10:45:12Z</time>
      </trkpt>
      <trkpt lat="49.02432" lon="7.06895">
        <ele>221</ele>
        <time>2013-03-24T10:45:18Z</time>
      </trkpt>
      <trkpt lat="49.02441" lon="7.06891">
        <ele>221</ele>
        <time>2013-03-24T10:45:24Z</time>
      </trkpt>
      <trkpt lat="49.0245" lon="7.06887">
        <ele>221</ele>
        <time>2013-03-24T10:45:30Z</time>
      </trkpt>
      <trkpt lat="49.02459" lon="7.06884">
        <ele>221</ele>
        <time>2013-03-24T10:45:36Z</time>
      </trkpt>
      <trkpt lat="49.02467" lon="7.0688">
        <ele>221</ele>
        <time>2013-03-24T10:45:42Z</time>
      </trkpt>
      <trkpt lat="49.02476" lon="7.06877">
        <ele>221</ele>
        <time>2013-03-24T10:45:48Z</time>
      </trkpt>
      <trkpt lat="49.02485" lon="7.06874">
        <ele>221</ele>
        <time>2013-03-24T10:45:54Z</time>
      </trkpt>
      <trkpt lat="49.02493" lon="7.06871">
        <ele>221</ele>
        <time>2013-03-24T10:46:00Z</time>
      </trkpt>
      <trkpt lat="49.02502" lon="7.06867">
        <ele>221</ele>
        <time>2013-03-24T10:46:06Z</time>
      </trkpt>
      <trkpt lat="49.0251" lon="7.06863">
        <ele>221</ele>
        <time>2013-03-24T10:46:12Z</time>
      </trkpt>
      <trkpt lat="49.02519" lon="7.06861">
        <ele>221</ele>
        <time>2013-03-24T10:46:18Z</time>
      </trkpt>
      <trkpt lat="49.02528" lon="7.06857">
        <ele>221</ele>
        <time>2013-03-24T10:46:24Z</time>
      </trkpt>
      <trkpt lat="49.02537" lon="7.06854">
        <ele>221</ele>
        <time>2013-03-24T10:46:30Z</time>
      </trkpt>
      <trkpt lat="49.02546" lon="7.06852">
        <ele>221</ele>
        <time>2013-03-24T10:46:36Z</time>
      </trkpt>
      <trkpt lat="49.02556" lon="7.0685">
        <ele>221</ele>
        <time>2013-03-24T10:46:43Z</time>
      </trkpt>
      <trkpt lat="49.02566" lon="7.06847">
        <ele>221</ele>
        <time>2013-03-24T10:46:50Z</time>
      </trkpt>
      <trkpt lat="49.02575" lon="7.06841">
        <ele>221</ele>
        <time>2013-03-24T10:46:57Z</time>
      </trkpt>
      <trkpt lat="49.02585" lon="7.06839">
        <ele>222</ele>
        <time>2013-03-24T10:47:03Z</time>
      </trkpt>
      <trkpt lat="49.02594" lon="7.06837">
        <ele>224</ele>
        <time>2013-03-24T10:47:10Z</time>
      </trkpt>
      <trkpt lat="49.02603" lon="7.06834">
        <ele>224</ele>
        <time>2013-03-24T10:47:16Z</time>
      </trkpt>
      <trkpt lat="49.0261" lon="7.06831">
        <ele>224</ele>
        <time>2013-03-24T10:47:22Z</time>
      </trkpt>
      <trkpt lat="49.02619" lon="7.06829">
        <ele>224</ele>
        <time>2013-03-24T10:47:28Z</time>
      </trkpt>
      <trkpt lat="49.02628" lon="7.06827">
        <ele>224</ele>
        <time>2013-03-24T10:47:34Z</time>
      </trkpt>
      <trkpt lat="49.02638" lon="7.06821">
        <ele>224</ele>
        <time>2013-03-24T10:47:41Z</time>
      </trkpt>
      <trkpt lat="49.02647" lon="7.06818">
        <ele>224</ele>
        <time>2013-03-24T10:47:47Z</time>
      </trkpt>
      <trkpt lat="49.02654" lon="7.06816">
        <ele>225</ele>
        <time>2013-03-24T10:47:53Z</time>
      </trkpt>
      <trkpt lat="49.02662" lon="7.06811">
        <ele>227</ele>
        <time>2013-03-24T10:47:59Z</time>
      </trkpt>
      <trkpt lat="49.02671" lon="7.06805">
        <ele>229</ele>
        <time>2013-03-24T10:48:05Z</time>
      </trkpt>
      <trkpt lat="49.02678" lon="7.068">
        <ele>233</ele>
        <time>2013-03-24T10:48:11Z</time>
      </trkpt>
      <trkpt lat="49.02686" lon="7.06794">
        <ele>234</ele>
        <time>2013-03-24T10:48:18Z</time>
      </trkpt>
      <trkpt lat="49.02697" lon="7.06788">
        <ele>234</ele>
        <time>2013-03-24T10:48:25Z</time>
      </trkpt>
      <trkpt lat="49.02705" lon="7.06783">
        <ele>234</ele>
        <time>2013-03-24T10:48:31Z</time>
      </trkpt>
      <trkpt lat="49.02715" lon="7.06778">
        <ele>234</ele>
        <time>2013-03-24T10:48:38Z</time>
      </trkpt>
      <trkpt lat="49.02723" lon="7.06775">
        <ele>234</ele>
        <time>2013-03-24T10:48:44Z</time>
      </trkpt>
      <trkpt lat="49.02732" lon="7.06773">
        <ele>233</ele>
        <time>2013-03-24T10:48:50Z</time>
      </trkpt>
      <trkpt lat="49.0274" lon="7.06769">
        <ele>233</ele>
        <time>2013-03-24T10:48:56Z</time>
      </trkpt>
      <trkpt lat="49.02749" lon="7.06766">
        <ele>232</ele>
        <time>2013-03-24T10:49:03Z</time>
      </trkpt>
      <trkpt lat="49.02757" lon="7.06763">
        <ele>231</ele>
        <time>2013-03-24T10:49:09Z</time>
      </trkpt>
      <trkpt lat="49.02766" lon="7.06761">
        <ele>231</ele>
        <time>2013-03-24T10:49:15Z</time>
      </trkpt>
      <trkpt lat="49.02776" lon="7.06753">
        <ele>230</ele>
        <time>2013-03-24T10:49:21Z</time>
      </trkpt>
      <trkpt lat="49.02786" lon="7.06751">
        <ele>230</ele>
        <time>2013-03-24T10:49:28Z</time>
      </trkpt>
      <trkpt lat="49.02794" lon="7.06751">
        <ele>230</ele>
        <time>2013-03-24T10:49:34Z</time>
      </trkpt>
      <trkpt lat="49.02804" lon="7.06748">
        <ele>228</ele>
        <time>2013-03-24T10:49:40Z</time>
      </trkpt>
      <trkpt lat="49.02815" lon="7.06746">
        <ele>227</ele>
        <time>2013-03-24T10:49:46Z</time>
      </trkpt>
      <trkpt lat="49.02822" lon="7.0674">
        <ele>227</ele>
        <time>2013-03-24T10:49:53Z</time>
      </trkpt>
      <trkpt lat="49.0283" lon="7.0673">
        <ele>223</ele>
        <time>2013-03-24T10:50:00Z</time>
      </trkpt>
      <trkpt lat="49.02836" lon="7.06721">
        <ele>223</ele>
        <time>2013-03-24T10:50:06Z</time>
      </trkpt>
      <trkpt lat="49.02841" lon="7.06712">
        <ele>224</ele>
        <time>2013-03-24T10:50:13Z</time>
      </trkpt>
      <trkpt lat="49.02848" lon="7.067">
        <ele>224</ele>
        <time>2013-03-24T10:50:19Z</time>
      </trkpt>
      <trkpt lat="49.02855" lon="7.06692">
        <ele>223</ele>
        <time>2013-03-24T10:50:25Z</time>
      </trkpt>
      <trkpt lat="49.02865" lon="7.06685">
        <ele>220</ele>
        <time>2013-03-24T10:50:31Z</time>
      </trkpt>
      <trkpt lat="49.02872" lon="7.06675">
        <ele>220</ele>
        <time>2013-03-24T10:50:38Z</time>
      </trkpt>
      <trkpt lat="49.0288" lon="7.06665">
        <ele>219</ele>
        <time>2013-03-24T10:50:45Z</time>
      </trkpt>
      <trkpt lat="49.02889" lon="7.06658">
        <ele>219</ele>
        <time>2013-03-24T10:50:51Z</time>
      </trkpt>
      <trkpt lat="49.02897" lon="7.06655">
        <ele>219</ele>
        <time>2013-03-24T10:50:57Z</time>
      </trkpt>
      <trkpt lat="49.02904" lon="7.06649">
        <ele>219</ele>
        <time>2013-03-24T10:51:04Z</time>
      </trkpt>
      <trkpt lat="49.02907" lon="7.06638">
        <ele>219</ele>
        <time>2013-03-24T10:51:11Z</time>
      </trkpt>
      <trkpt lat="49.0291" lon="7.06621">
        <ele>222</ele>
        <time>2013-03-24T10:51:18Z</time>
      </trkpt>
      <trkpt lat="49.02912" lon="7.06604">
        <ele>222</ele>
        <time>2013-03-24T10:51:24Z</time>
      </trkpt>
      <trkpt lat="49.02913" lon="7.06587">
        <ele>222</ele>
        <time>2013-03-24T10:51:31Z</time>
      </trkpt>
      <trkpt lat="49.02912" lon="7.06572">
        <ele>221</ele>
        <time>2013-03-24T10:51:37Z</time>
      </trkpt>
      <trkpt lat="49.02911" lon="7.06558">
        <ele>219</ele>
        <time>2013-03-24T10:51:43Z</time>
      </trkpt>
      <trkpt lat="49.02909" lon="7.06547">
        <ele>219</ele>
        <time>2013-03-24T10:51:50Z</time>
      </trkpt>
      <trkpt lat="49.02908" lon="7.06534">
        <ele>219</ele>
        <time>2013-03-24T10:51:57Z</time>
      </trkpt>
      <trkpt lat="49.02908" lon="7.06519">
        <ele>219</ele>
        <time>2013-03-24T10:52:03Z</time>
      </trkpt>
      <trkpt lat="49.02908" lon="7.06504">
        <ele>219</ele>
        <time>2013-03-24T10:52:09Z</time>
      </trkpt>
      <trkpt lat="49.0291" lon="7.06489">
        <ele>219</ele>
        <time>2013-03-24T10:52:15Z</time>
      </trkpt>
      <trkpt lat="49.0291" lon="7.06471">
        <ele>217</ele>
        <time>2013-03-24T10:52:22Z</time>
      </trkpt>
      <trkpt lat="49.02909" lon="7.06456">
        <ele>217</ele>
        <time>2013-03-24T10:52:28Z</time>
      </trkpt>
      <trkpt lat="49.02907" lon="7.06442">
        <ele>217</ele>
        <time>2013-03-24T10:52:34Z</time>
      </trkpt>
      <trkpt lat="49.02903" lon="7.06428">
        <ele>217</ele>
        <time>2013-03-24T10:52:41Z</time>
      </trkpt>
      <trkpt lat="49.029" lon="7.06417">
        <ele>217</ele>
        <time>2013-03-24T10:52:47Z</time>
      </trkpt>
      <trkpt lat="49.02896" lon="7.06406">
        <ele>217</ele>
        <time>2013-03-24T10:52:53Z</time>
      </trkpt>
      <trkpt lat="49.02893" lon="7.06394">
        <ele>217</ele>
        <time>2013-03-24T10:52:59Z</time>
      </trkpt>
      <trkpt lat="49.02892" lon="7.06378">
        <ele>217</ele>
        <time>2013-03-24T10:53:05Z</time>
      </trkpt>
      <trkpt lat="49.0289" lon="7.06365">
        <ele>217</ele>
        <time>2013-03-24T10:53:11Z</time>
      </trkpt>
      <trkpt lat="49.02887" lon="7.06352">
        <ele>217</ele>
        <time>2013-03-24T10:53:17Z</time>
      </trkpt>
      <trkpt lat="49.02885" lon="7.06339">
        <ele>219</ele>
        <time>2013-03-24T10:53:23Z</time>
      </trkpt>
      <trkpt lat="49.02884" lon="7.06327">
        <ele>220</ele>
        <time>2013-03-24T10:53:29Z</time>
      </trkpt>
      <trkpt lat="49.02882" lon="7.06315">
        <ele>220</ele>
        <time>2013-03-24T10:53:35Z</time>
      </trkpt>
      <trkpt lat="49.02879" lon="7.06304">
        <ele>220</ele>
        <time>2013-03-24T10:53:42Z</time>
      </trkpt>
      <trkpt lat="49.02876" lon="7.06293">
        <ele>220</ele>
        <time>2013-03-24T10:53:48Z</time>
      </trkpt>
      <trkpt lat="49.02876" lon="7.0628">
        <ele>220</ele>
        <time>2013-03-24T10:53:54Z</time>
      </trkpt>
      <trkpt lat="49.02875" lon="7.06268">
        <ele>220</ele>
        <time>2013-03-24T10:54:00Z</time>
      </trkpt>
      <trkpt lat="49.02872" lon="7.06255">
        <ele>221</ele>
        <time>2013-03-24T10:54:06Z</time>
      </trkpt>
      <trkpt lat="49.0287" lon="7.06243">
        <ele>223</ele>
        <time>2013-03-24T10:54:12Z</time>
      </trkpt>
      <trkpt lat="49.02868" lon="7.06231">
        <ele>224</ele>
        <time>2013-03-24T10:54:18Z</time>
      </trkpt>
      <trkpt lat="49.02868" lon="7.06219">
        <ele>226</ele>
        <time>2013-03-24T10:54:24Z</time>
      </trkpt>
      <trkpt lat="49.02868" lon="7.06206">
        <ele>230</ele>
        <time>2013-03-24T10:54:30Z</time>
      </trkpt>
      <trkpt lat="49.02866" lon="7.06195">
        <ele>235</ele>
        <time>2013-03-24T10:54:36Z</time>
      </trkpt>
      <trkpt lat="49.0286" lon="7.06184">
        <ele>240</ele>
        <time>2013-03-24T10:54:43Z</time>
      </trkpt>
      <trkpt lat="49.02861" lon="7.06168">
        <ele>241</ele>
        <time>2013-03-24T10:54:49Z</time>
      </trkpt>
      <trkpt lat="49.02857" lon="7.06157">
        <ele>243</ele>
        <time>2013-03-24T10:54:55Z</time>
      </trkpt>
      <trkpt lat="49.02857" lon="7.06144">
        <ele>244</ele>
        <time>2013-03-24T10:55:01Z</time>
      </trkpt>
      <trkpt lat="49.02858" lon="7.06127">
        <ele>244</ele>
        <time>2013-03-24T10:55:07Z</time>
      </trkpt>
      <trkpt lat="49.02856" lon="7.06112">
        <ele>242</ele>
        <time>2013-03-24T10:55:13Z</time>
      </trkpt>
      <trkpt lat="49.02855" lon="7.061">
        <ele>241</ele>
        <time>2013-03-24T10:55:19Z</time>
      </trkpt>
      <trkpt lat="49.02853" lon="7.06089">
        <ele>240</ele>
        <time>2013-03-24T10:55:25Z</time>
      </trkpt>
      <trkpt lat="49.02851" lon="7.06073">
        <ele>240</ele>
        <time>2013-03-24T10:55:31Z</time>
      </trkpt>
      <trkpt lat="49.02851" lon="7.06059">
        <ele>239</ele>
        <time>2013-03-24T10:55:37Z</time>
      </trkpt>
      <trkpt lat="49.02847" lon="7.0605">
        <ele>239</ele>
        <time>2013-03-24T10:55:43Z</time>
      </trkpt>
      <trkpt lat="49.02847" lon="7.06037">
        <ele>241</ele>
        <time>2013-03-24T10:55:49Z</time>
      </trkpt>
      <trkpt lat="49.02843" lon="7.0602">
        <ele>241</ele>
        <time>2013-03-24T10:55:55Z</time>
      </trkpt>
      <trkpt lat="49.02836" lon="7.06008">
        <ele>241</ele>
        <time>2013-03-24T10:56:01Z</time>
      </trkpt>
      <trkpt lat="49.02828" lon="7.06001">
        <ele>239</ele>
        <time>2013-03-24T10:56:07Z</time>
      </trkpt>
      <trkpt lat="49.0282" lon="7.05996">
        <ele>238</ele>
        <time>2013-03-24T10:56:13Z</time>
      </trkpt>
      <trkpt lat="49.02813" lon="7.05992">
        <ele>237</ele>
        <time>2013-03-24T10:56:19Z</time>
      </trkpt>
      <trkpt lat="49.02807" lon="7.05992">
        <ele>236</ele>
        <time>2013-03-24T10:56:25Z</time>
      </trkpt>
      <trkpt lat="49.02799" lon="7.05991">
        <ele>236</ele>
        <time>2013-03-24T10:56:31Z</time>
      </trkpt>
      <trkpt lat="49.02789" lon="7.0599">
        <ele>236</ele>
        <time>2013-03-24T10:56:37Z</time>
      </trkpt>
      <trkpt lat="49.02775" lon="7.05988">
        <ele>235</ele>
        <time>2013-03-24T10:56:43Z</time>
      </trkpt>
      <trkpt lat="49.02767" lon="7.05984">
        <ele>232</ele>
        <time>2013-03-24T10:56:49Z</time>
      </trkpt>
      <trkpt lat="49.02759" lon="7.0598">
        <ele>229</ele>
        <time>2013-03-24T10:56:55Z</time>
      </trkpt>
      <trkpt lat="49.02751" lon="7.05975">
        <ele>228</ele>
        <time>2013-03-24T10:57:01Z</time>
      </trkpt>
      <trkpt lat="49.02744" lon="7.05971">
        <ele>226</ele>
        <time>2013-03-24T10:57:07Z</time>
      </trkpt>
      <trkpt lat="49.02735" lon="7.05969">
        <ele>225</ele>
        <time>2013-03-24T10:57:13Z</time>
      </trkpt>
      <trkpt lat="49.02727" lon="7.05968">
        <ele>223</ele>
        <time>2013-03-24T10:57:19Z</time>
      </trkpt>
      <trkpt lat="49.02717" lon="7.05966">
        <ele>218</ele>
        <time>2013-03-24T10:57:25Z</time>
      </trkpt>
      <trkpt lat="49.02705" lon="7.05961">
        <ele>217</ele>
        <time>2013-03-24T10:57:31Z</time>
      </trkpt>
      <trkpt lat="49.02696" lon="7.05953">
        <ele>220</ele>
        <time>2013-03-24T10:57:37Z</time>
      </trkpt>
      <trkpt lat="49.02689" lon="7.05943">
        <ele>223</ele>
        <time>2013-03-24T10:57:43Z</time>
      </trkpt>
      <trkpt lat="49.02682" lon="7.05934">
        <ele>223</ele>
        <time>2013-03-24T10:57:49Z</time>
      </trkpt>
      <trkpt lat="49.02676" lon="7.05923">
        <ele>223</ele>
        <time>2013-03-24T10:57:55Z</time>
      </trkpt>
      <trkpt lat="49.0267" lon="7.05913">
        <ele>223</ele>
        <time>2013-03-24T10:58:01Z</time>
      </trkpt>
      <trkpt lat="49.02664" lon="7.05902">
        <ele>223</ele>
        <time>2013-03-24T10:58:07Z</time>
      </trkpt>
      <trkpt lat="49.02656" lon="7.0589">
        <ele>223</ele>
        <time>2013-03-24T10:58:14Z</time>
      </trkpt>
      <trkpt lat="49.02649" lon="7.0588">
        <ele>221</ele>
        <time>2013-03-24T10:58:20Z</time>
      </trkpt>
      <trkpt lat="49.02643" lon="7.05872">
        <ele>219</ele>
        <time>2013-03-24T10:58:26Z</time>
      </trkpt>
      <trkpt lat="49.02637" lon="7.05861">
        <ele>218</ele>
        <time>2013-03-24T10:58:32Z</time>
      </trkpt>
      <trkpt lat="49.02632" lon="7.0585">
        <ele>218</ele>
        <time>2013-03-24T10:58:38Z</time>
      </trkpt>
      <trkpt lat="49.02624" lon="7.05838">
        <ele>218</ele>
        <time>2013-03-24T10:58:45Z</time>
      </trkpt>
      <trkpt lat="49.02618" lon="7.05829">
        <ele>218</ele>
        <time>2013-03-24T10:58:51Z</time>
      </trkpt>
      <trkpt lat="49.02611" lon="7.05819">
        <ele>218</ele>
        <time>2013-03-24T10:58:57Z</time>
      </trkpt>
      <trkpt lat="49.02605" lon="7.05809">
        <ele>218</ele>
        <time>2013-03-24T10:59:03Z</time>
      </trkpt>
      <trkpt lat="49.02598" lon="7.05799">
        <ele>215</ele>
        <time>2013-03-24T10:59:09Z</time>
      </trkpt>
      <trkpt lat="49.02591" lon="7.0579">
        <ele>213</ele>
        <time>2013-03-24T10:59:15Z</time>
      </trkpt>
      <trkpt lat="49.02584" lon="7.0578">
        <ele>213</ele>
        <time>2013-03-24T10:59:21Z</time>
      </trkpt>
      <trkpt lat="49.02577" lon="7.0577">
        <ele>213</ele>
        <time>2013-03-24T10:59:28Z</time>
      </trkpt>
      <trkpt lat="49.02572" lon="7.05761">
        <ele>212</ele>
        <time>2013-03-24T10:59:34Z</time>
      </trkpt>
      <trkpt lat="49.02565" lon="7.05751">
        <ele>211</ele>
        <time>2013-03-24T10:59:40Z</time>
      </trkpt>
      <trkpt lat="49.02557" lon="7.05741">
        <ele>211</ele>
        <time>2013-03-24T10:59:47Z</time>
      </trkpt>
      <trkpt lat="49.02549" lon="7.0573">
        <ele>209</ele>
        <time>2013-03-24T10:59:54Z</time>
      </trkpt>
      <trkpt lat="49.02542" lon="7.0572">
        <ele>207</ele>
        <time>2013-03-24T11:00:00Z</time>
      </trkpt>
      <trkpt lat="49.02535" lon="7.05711">
        <ele>207</ele>
        <time>2013-03-24T11:00:06Z</time>
      </trkpt>
      <trkpt lat="49.02528" lon="7.057">
        <ele>206</ele>
        <time>2013-03-24T11:00:12Z</time>
      </trkpt>
      <trkpt lat="49.0252" lon="7.05691">
        <ele>205</ele>
        <time>2013-03-24T11:00:18Z</time>
      </trkpt>
      <trkpt lat="49.02515" lon="7.0568">
        <ele>205</ele>
        <time>2013-03-24T11:00:24Z</time>
      </trkpt>
      <trkpt lat="49.0251" lon="7.05667">
        <ele>205</ele>
        <time>2013-03-24T11:00:30Z</time>
      </trkpt>
      <trkpt lat="49.02506" lon="7.05653">
        <ele>205</ele>
        <time>2013-03-24T11:00:36Z</time>
      </trkpt>
      <trkpt lat="49.02501" lon="7.05636">
        <ele>205</ele>
        <time>2013-03-24T11:00:43Z</time>
      </trkpt>
      <trkpt lat="49.02499" lon="7.0562">
        <ele>207</ele>
        <time>2013-03-24T11:00:50Z</time>
      </trkpt>
      <trkpt lat="49.02496" lon="7.05604">
        <ele>209</ele>
        <time>2013-03-24T11:00:57Z</time>
      </trkpt>
      <trkpt lat="49.02491" lon="7.0559">
        <ele>211</ele>
        <time>2013-03-24T11:01:04Z</time>
      </trkpt>
      <trkpt lat="49.02492" lon="7.05575">
        <ele>211</ele>
        <time>2013-03-24T11:01:10Z</time>
      </trkpt>
      <trkpt lat="49.02494" lon="7.0556">
        <ele>212</ele>
        <time>2013-03-24T11:01:16Z</time>
      </trkpt>
      <trkpt lat="49.02495" lon="7.05545">
        <ele>212</ele>
        <time>2013-03-24T11:01:22Z</time>
      </trkpt>
      <trkpt lat="49.02499" lon="7.05532">
        <ele>212</ele>
        <time>2013-03-24T11:01:29Z</time>
      </trkpt>
      <trkpt lat="49.02501" lon="7.05519">
        <ele>212</ele>
        <time>2013-03-24T11:01:35Z</time>
      </trkpt>
      <trkpt lat="49.02506" lon="7.0551">
        <ele>212</ele>
        <time>2013-03-24T11:01:41Z</time>
      </trkpt>
      <trkpt lat="49.02512" lon="7.05506">
        <ele>212</ele>
        <time>2013-03-24T11:01:47Z</time>
      </trkpt>
      <trkpt lat="49.02516" lon="7.05506">
        <ele>212</ele>
        <time>2013-03-24T11:01:54Z</time>
      </trkpt>
      <trkpt lat="49.02518" lon="7.05509">
        <ele>212</ele>
        <time>2013-03-24T11:02:11Z</time>
      </trkpt>
      <trkpt lat="49.02517" lon="7.05505">
        <ele>213</ele>
        <time>2013-03-24T11:02:17Z</time>
      </trkpt>
      <trkpt lat="49.02517" lon="7.05503">
        <ele>216</ele>
        <time>2013-03-24T11:02:25Z</time>
      </trkpt>
      <trkpt lat="49.02517" lon="7.05505">
        <ele>216</ele>
        <time>2013-03-24T11:02:38Z</time>
      </trkpt>
      <trkpt lat="49.02517" lon="7.05507">
        <ele>216</ele>
        <time>2013-03-24T11:02:44Z</time>
      </trkpt>
      <trkpt lat="49.02517" lon="7.05505">
        <ele>215</ele>
        <time>2013-03-24T11:03:08Z</time>
      </trkpt>
      <trkpt lat="49.02515" lon="7.05502">
        <ele>215</ele>
        <time>2013-03-24T11:03:21Z</time>
      </trkpt>
      <trkpt lat="49.02513" lon="7.055">
        <ele>219</ele>
        <time>2013-03-24T11:03:34Z</time>
      </trkpt>
      <trkpt lat="49.02513" lon="7.05495">
        <ele>225</ele>
        <time>2013-03-24T11:03:45Z</time>
      </trkpt>
      <trkpt lat="49.02512" lon="7.05499">
        <ele>225</ele>
        <time>2013-03-24T11:03:54Z</time>
      </trkpt>
      <trkpt lat="49.02512" lon="7.05501">
        <ele>225</ele>
        <time>2013-03-24T11:04:02Z</time>
      </trkpt>
      <trkpt lat="49.02513" lon="7.05504">
        <ele>228</ele>
        <time>2013-03-24T11:04:10Z</time>
      </trkpt>
      <trkpt lat="49.02513" lon="7.05505">
        <ele>228</ele>
        <time>2013-03-24T11:04:18Z</time>
      </trkpt>
      <trkpt lat="49.02519" lon="7.05504">
        <ele>228</ele>
        <time>2013-03-24T11:04:27Z</time>
      </trkpt>
      <trkpt lat="49.02516" lon="7.05506">
        <ele>229</ele>
        <time>2013-03-24T11:04:37Z</time>
      </trkpt>
      <trkpt lat="49.02519" lon="7.05507">
        <ele>229</ele>
        <time>2013-03-24T11:04:45Z</time>
      </trkpt>
      <trkpt lat="49.02522" lon="7.05507">
        <ele>229</ele>
        <time>2013-03-24T11:04:52Z</time>
      </trkpt>
      <trkpt lat="49.02523" lon="7.05512">
        <ele>229</ele>
        <time>2013-03-24T11:05:00Z</time>
      </trkpt>
      <trkpt lat="49.02518" lon="7.05514">
        <ele>229</ele>
        <time>2013-03-24T11:05:11Z</time>
      </trkpt>
      <trkpt lat="49.02518" lon="7.0551">
        <ele>231</ele>
        <time>2013-03-24T11:05:25Z</time>
      </trkpt>
      <trkpt lat="49.0252" lon="7.0551">
        <ele>232</ele>
        <time>2013-03-24T11:05:33Z</time>
      </trkpt>
      <trkpt lat="49.02522" lon="7.05507">
        <ele>230</ele>
        <time>2013-03-24T11:05:40Z</time>
      </trkpt>
      <trkpt lat="49.02525" lon="7.05505">
        <ele>228</ele>
        <time>2013-03-24T11:05:46Z</time>
      </trkpt>
      <trkpt lat="49.02523" lon="7.05507">
        <ele>228</ele>
        <time>2013-03-24T11:05:52Z</time>
      </trkpt>
      <trkpt lat="49.02518" lon="7.0551">
        <ele>226</ele>
        <time>2013-03-24T11:06:02Z</time>
      </trkpt>
      <trkpt lat="49.02517" lon="7.05507">
        <ele>221</ele>
        <time>2013-03-24T11:06:17Z</time>
      </trkpt>
      <trkpt lat="49.02515" lon="7.05506">
        <ele>219</ele>
        <time>2013-03-24T11:06:30Z</time>
      </trkpt>
      <trkpt lat="49.02513" lon="7.05508">
        <ele>220</ele>
        <time>2013-03-24T11:06:36Z</time>
      </trkpt>
      <trkpt lat="49.02516" lon="7.05503">
        <ele>221</ele>
        <time>2013-03-24T11:06:44Z</time>
      </trkpt>
      <trkpt lat="49.02518" lon="7.05505">
        <ele>224</ele>
        <time>2013-03-24T11:06:52Z</time>
      </trkpt>
      <trkpt lat="49.02518" lon="7.05502">
        <ele>226</ele>
        <time>2013-03-24T11:06:59Z</time>
      </trkpt>
      <trkpt lat="49.02518" lon="7.05504">
        <ele>227</ele>
        <time>2013-03-24T11:07:08Z</time>
      </trkpt>
      <trkpt lat="49.02518" lon="7.05501">
        <ele>228</ele>
        <time>2013-03-24T11:07:18Z</time>
      </trkpt>
      <trkpt lat="49.02517" lon="7.05497">
        <ele>229</ele>
        <time>2013-03-24T11:07:25Z</time>
      </trkpt>
      <trkpt lat="49.02516" lon="7.05493">
        <ele>230</ele>
        <time>2013-03-24T11:07:33Z</time>
      </trkpt>
      <trkpt lat="49.02517" lon="7.05496">
        <ele>230</ele>
        <time>2013-03-24T11:07:41Z</time>
      </trkpt>
      <trkpt lat="49.02518" lon="7.05502">
        <ele>230</ele>
        <time>2013-03-24T11:07:50Z</time>
      </trkpt>
      <trkpt lat="49.02519" lon="7.055">
        <ele>228</ele>
        <time>2013-03-24T11:07:58Z</time>
      </trkpt>
      <trkpt lat="49.02526" lon="7.05499">
        <ele>227</ele>
        <time>2013-03-24T11:08:05Z</time>
      </trkpt>
      <trkpt lat="49.02534" lon="7.05501">
        <ele>226</ele>
        <time>2013-03-24T11:08:11Z</time>
      </trkpt>
      <trkpt lat="49.02545" lon="7.05506">
        <ele>225</ele>
        <time>2013-03-24T11:08:18Z</time>
      </trkpt>
      <trkpt lat="49.02554" lon="7.0551">
        <ele>225</ele>
        <time>2013-03-24T11:08:24Z</time>
      </trkpt>
      <trkpt lat="49.02564" lon="7.05515">
        <ele>225</ele>
        <time>2013-03-24T11:08:30Z</time>
      </trkpt>
      <trkpt lat="49.02572" lon="7.05524">
        <ele>225</ele>
        <time>2013-03-24T11:08:36Z</time>
      </trkpt>
      <trkpt lat="49.02579" lon="7.05533">
        <ele>225</ele>
        <time>2013-03-24T11:08:43Z</time>
      </trkpt>
      <trkpt lat="49.02588" lon="7.05539">
        <ele>225</ele>
        <time>2013-03-24T11:08:50Z</time>
      </trkpt>
      <trkpt lat="49.02596" lon="7.05542">
        <ele>225</ele>
        <time>2013-03-24T11:08:56Z</time>
      </trkpt>
      <trkpt lat="49.02602" lon="7.05545">
        <ele>225</ele>
        <time>2013-03-24T11:09:02Z</time>
      </trkpt>
      <trkpt lat="49.0261" lon="7.05552">
        <ele>225</ele>
        <time>2013-03-24T11:09:08Z</time>
      </trkpt>
      <trkpt lat="49.02617" lon="7.05562">
        <ele>225</ele>
        <time>2013-03-24T11:09:15Z</time>
      </trkpt>
      <trkpt lat="49.02625" lon="7.05568">
        <ele>225</ele>
        <time>2013-03-24T11:09:21Z</time>
      </trkpt>
      <trkpt lat="49.02632" lon="7.05573">
        <ele>225</ele>
        <time>2013-03-24T11:09:27Z</time>
      </trkpt>
      <trkpt lat="49.02643" lon="7.05576">
        <ele>225</ele>
        <time>2013-03-24T11:09:34Z</time>
      </trkpt>
      <trkpt lat="49.0265" lon="7.05582">
        <ele>222</ele>
        <time>2013-03-24T11:09:40Z</time>
      </trkpt>
      <trkpt lat="49.02658" lon="7.05588">
        <ele>221</ele>
        <time>2013-03-24T11:09:47Z</time>
      </trkpt>
      <trkpt lat="49.02668" lon="7.05589">
        <ele>221</ele>
        <time>2013-03-24T11:09:53Z</time>
      </trkpt>
      <trkpt lat="49.02679" lon="7.05591">
        <ele>221</ele>
        <time>2013-03-24T11:09:59Z</time>
      </trkpt>
      <trkpt lat="49.02688" lon="7.05593">
        <ele>224</ele>
        <time>2013-03-24T11:10:05Z</time>
      </trkpt>
      <trkpt lat="49.02698" lon="7.05597">
        <ele>225</ele>
        <time>2013-03-24T11:10:11Z</time>
      </trkpt>
      <trkpt lat="49.02708" lon="7.05604">
        <ele>226</ele>
        <time>2013-03-24T11:10:19Z</time>
      </trkpt>
      <trkpt lat="49.02717" lon="7.05606">
        <ele>226</ele>
        <time>2013-03-24T11:10:25Z</time>
      </trkpt>
      <trkpt lat="49.02727" lon="7.05609">
        <ele>226</ele>
        <time>2013-03-24T11:10:31Z</time>
      </trkpt>
      <trkpt lat="49.02739" lon="7.05611">
        <ele>226</ele>
        <time>2013-03-24T11:10:38Z</time>
      </trkpt>
      <trkpt lat="49.0275" lon="7.05611">
        <ele>226</ele>
        <time>2013-03-24T11:10:44Z</time>
      </trkpt>
      <trkpt lat="49.02759" lon="7.05607">
        <ele>227</ele>
        <time>2013-03-24T11:10:50Z</time>
      </trkpt>
      <trkpt lat="49.02767" lon="7.056">
        <ele>227</ele>
        <time>2013-03-24T11:10:57Z</time>
      </trkpt>
      <trkpt lat="49.02776" lon="7.056">
        <ele>227</ele>
        <time>2013-03-24T11:11:03Z</time>
      </trkpt>
      <trkpt lat="49.02785" lon="7.056">
        <ele>230</ele>
        <time>2013-03-24T11:11:09Z</time>
      </trkpt>
      <trkpt lat="49.02795" lon="7.056">
        <ele>231</ele>
        <time>2013-03-24T11:11:15Z</time>
      </trkpt>
      <trkpt lat="49.02804" lon="7.05598">
        <ele>231</ele>
        <time>2013-03-24T11:11:22Z</time>
      </trkpt>
      <trkpt lat="49.02811" lon="7.05599">
        <ele>231</ele>
        <time>2013-03-24T11:11:29Z</time>
      </trkpt>
      <trkpt lat="49.0282" lon="7.05599">
        <ele>231</ele>
        <time>2013-03-24T11:11:35Z</time>
      </trkpt>
      <trkpt lat="49.02828" lon="7.05599">
        <ele>231</ele>
        <time>2013-03-24T11:11:42Z</time>
      </trkpt>
      <trkpt lat="49.02835" lon="7.056">
        <ele>233</ele>
        <time>2013-03-24T11:11:48Z</time>
      </trkpt>
      <trkpt lat="49.02844" lon="7.05601">
        <ele>234</ele>
        <time>2013-03-24T11:11:55Z</time>
      </trkpt>
      <trkpt lat="49.02853" lon="7.05604">
        <ele>235</ele>
        <time>2013-03-24T11:12:01Z</time>
      </trkpt>
      <trkpt lat="49.02862" lon="7.05606">
        <ele>235</ele>
        <time>2013-03-24T11:12:07Z</time>
      </trkpt>
      <trkpt lat="49.02872" lon="7.05607">
        <ele>235</ele>
        <time>2013-03-24T11:12:14Z</time>
      </trkpt>
      <trkpt lat="49.02882" lon="7.05606">
        <ele>235</ele>
        <time>2013-03-24T11:12:20Z</time>
      </trkpt>
      <trkpt lat="49.0289" lon="7.05608">
        <ele>235</ele>
        <time>2013-03-24T11:12:26Z</time>
      </trkpt>
      <trkpt lat="49.02901" lon="7.05608">
        <ele>235</ele>
        <time>2013-03-24T11:12:33Z</time>
      </trkpt>
      <trkpt lat="49.02908" lon="7.05612">
        <ele>235</ele>
        <time>2013-03-24T11:12:39Z</time>
      </trkpt>
      <trkpt lat="49.02915" lon="7.05614">
        <ele>235</ele>
        <time>2013-03-24T11:12:45Z</time>
      </trkpt>
      <trkpt lat="49.02923" lon="7.05612">
        <ele>235</ele>
        <time>2013-03-24T11:12:51Z</time>
      </trkpt>
      <trkpt lat="49.02933" lon="7.05608">
        <ele>235</ele>
        <time>2013-03-24T11:12:57Z</time>
      </trkpt>
      <trkpt lat="49.02943" lon="7.05608">
        <ele>235</ele>
        <time>2013-03-24T11:13:04Z</time>
      </trkpt>
      <trkpt lat="49.02951" lon="7.0561">
        <ele>235</ele>
        <time>2013-03-24T11:13:10Z</time>
      </trkpt>
      <trkpt lat="49.0296" lon="7.05611">
        <ele>241</ele>
        <time>2013-03-24T11:13:17Z</time>
      </trkpt>
      <trkpt lat="49.0297" lon="7.05612">
        <ele>245</ele>
        <time>2013-03-24T11:13:23Z</time>
      </trkpt>
      <trkpt lat="49.02979" lon="7.05606">
        <ele>246</ele>
        <time>2013-03-24T11:13:29Z</time>
      </trkpt>
      <trkpt lat="49.02986" lon="7.05599">
        <ele>246</ele>
        <time>2013-03-24T11:13:36Z</time>
      </trkpt>
      <trkpt lat="49.02992" lon="7.0559">
        <ele>246</ele>
        <time>2013-03-24T11:13:42Z</time>
      </trkpt>
      <trkpt lat="49.02999" lon="7.05578">
        <ele>245</ele>
        <time>2013-03-24T11:13:49Z</time>
      </trkpt>
      <trkpt lat="49.03006" lon="7.05569">
        <ele>244</ele>
        <time>2013-03-24T11:13:57Z</time>
      </trkpt>
      <trkpt lat="49.0301" lon="7.05561">
        <ele>243</ele>
        <time>2013-03-24T11:14:03Z</time>
      </trkpt>
      <trkpt lat="49.03014" lon="7.05549">
        <ele>243</ele>
        <time>2013-03-24T11:14:09Z</time>
      </trkpt>
      <trkpt lat="49.03022" lon="7.0554">
        <ele>241</ele>
        <time>2013-03-24T11:14:16Z</time>
      </trkpt>
      <trkpt lat="49.03029" lon="7.0553">
        <ele>241</ele>
        <time>2013-03-24T11:14:23Z</time>
      </trkpt>
      <trkpt lat="49.03036" lon="7.05521">
        <ele>241</ele>
        <time>2013-03-24T11:14:30Z</time>
      </trkpt>
      <trkpt lat="49.03043" lon="7.05514">
        <ele>241</ele>
        <time>2013-03-24T11:14:36Z</time>
      </trkpt>
      <trkpt lat="49.0305" lon="7.05504">
        <ele>241</ele>
        <time>2013-03-24T11:14:43Z</time>
      </trkpt>
      <trkpt lat="49.03055" lon="7.05491">
        <ele>241</ele>
        <time>2013-03-24T11:14:50Z</time>
      </trkpt>
      <trkpt lat="49.03056" lon="7.05478">
        <ele>241</ele>
        <time>2013-03-24T11:14:56Z</time>
      </trkpt>
      <trkpt lat="49.03055" lon="7.05466">
        <ele>241</ele>
        <time>2013-03-24T11:15:02Z</time>
      </trkpt>
      <trkpt lat="49.03054" lon="7.05452">
        <ele>241</ele>
        <time>2013-03-24T11:15:09Z</time>
      </trkpt>
      <trkpt lat="49.03055" lon="7.05437">
        <ele>241</ele>
        <time>2013-03-24T11:15:15Z</time>
      </trkpt>
      <trkpt lat="49.03056" lon="7.05422">
        <ele>241</ele>
        <time>2013-03-24T11:15:21Z</time>
      </trkpt>
      <trkpt lat="49.03056" lon="7.05408">
        <ele>241</ele>
        <time>2013-03-24T11:15:27Z</time>
      </trkpt>
      <trkpt lat="49.03056" lon="7.05394">
        <ele>241</ele>
        <time>2013-03-24T11:15:33Z</time>
      </trkpt>
      <trkpt lat="49.03054" lon="7.05378">
        <ele>241</ele>
        <time>2013-03-24T11:15:39Z</time>
      </trkpt>
      <trkpt lat="49.03051" lon="7.05365">
        <ele>241</ele>
        <time>2013-03-24T11:15:45Z</time>
      </trkpt>
      <trkpt lat="49.03048" lon="7.05351">
        <ele>241</ele>
        <time>2013-03-24T11:15:51Z</time>
      </trkpt>
      <trkpt lat="49.03046" lon="7.05338">
        <ele>241</ele>
        <time>2013-03-24T11:15:57Z</time>
      </trkpt>
      <trkpt lat="49.03043" lon="7.05325">
        <ele>241</ele>
        <time>2013-03-24T11:16:03Z</time>
      </trkpt>
      <trkpt lat="49.0304" lon="7.05312">
        <ele>240</ele>
        <time>2013-03-24T11:16:09Z</time>
      </trkpt>
      <trkpt lat="49.03037" lon="7.05298">
        <ele>239</ele>
        <time>2013-03-24T11:16:15Z</time>
      </trkpt>
      <trkpt lat="49.03035" lon="7.05285">
        <ele>238</ele>
        <time>2013-03-24T11:16:21Z</time>
      </trkpt>
      <trkpt lat="49.03032" lon="7.05271">
        <ele>236</ele>
        <time>2013-03-24T11:16:27Z</time>
      </trkpt>
      <trkpt lat="49.03031" lon="7.05258">
        <ele>234</ele>
        <time>2013-03-24T11:16:33Z</time>
      </trkpt>
      <trkpt lat="49.03028" lon="7.05244">
        <ele>233</ele>
        <time>2013-03-24T11:16:39Z</time>
      </trkpt>
      <trkpt lat="49.03026" lon="7.05229">
        <ele>232</ele>
        <time>2013-03-24T11:16:45Z</time>
      </trkpt>
      <trkpt lat="49.03023" lon="7.05216">
        <ele>231</ele>
        <time>2013-03-24T11:16:51Z</time>
      </trkpt>
      <trkpt lat="49.03021" lon="7.05202">
        <ele>231</ele>
        <time>2013-03-24T11:16:57Z</time>
      </trkpt>
      <trkpt lat="49.03018" lon="7.05188">
        <ele>229</ele>
        <time>2013-03-24T11:17:03Z</time>
      </trkpt>
      <trkpt lat="49.03016" lon="7.05174">
        <ele>228</ele>
        <time>2013-03-24T11:17:09Z</time>
      </trkpt>
      <trkpt lat="49.03014" lon="7.05159">
        <ele>227</ele>
        <time>2013-03-24T11:17:15Z</time>
      </trkpt>
      <trkpt lat="49.03011" lon="7.05144">
        <ele>227</ele>
        <time>2013-03-24T11:17:21Z</time>
      </trkpt>
      <trkpt lat="49.03009" lon="7.05129">
        <ele>226</ele>
        <time>2013-03-24T11:17:27Z</time>
      </trkpt>
      <trkpt lat="49.03007" lon="7.05113">
        <ele>226</ele>
        <time>2013-03-24T11:17:33Z</time>
      </trkpt>
      <trkpt lat="49.03005" lon="7.05098">
        <ele>226</ele>
        <time>2013-03-24T11:17:39Z</time>
      </trkpt>
      <trkpt lat="49.03003" lon="7.05083">
        <ele>226</ele>
        <time>2013-03-24T11:17:45Z</time>
      </trkpt>
      <trkpt lat="49.03" lon="7.05068">
        <ele>226</ele>
        <time>2013-03-24T11:17:51Z</time>
      </trkpt>
      <trkpt lat="49.02998" lon="7.05053">
        <ele>226</ele>
        <time>2013-03-24T11:17:57Z</time>
      </trkpt>
      <trkpt lat="49.02996" lon="7.05039">
        <ele>226</ele>
        <time>2013-03-24T11:18:03Z</time>
      </trkpt>
      <trkpt lat="49.02994" lon="7.05024">
        <ele>226</ele>
        <time>2013-03-24T11:18:09Z</time>
      </trkpt>
      <trkpt lat="49.02992" lon="7.05009">
        <ele>226</ele>
        <time>2013-03-24T11:18:15Z</time>
      </trkpt>
      <trkpt lat="49.0299" lon="7.04994">
        <ele>226</ele>
        <time>2013-03-24T11:18:21Z</time>
      </trkpt>
      <trkpt lat="49.02988" lon="7.04979">
        <ele>226</ele>
        <time>2013-03-24T11:18:27Z</time>
      </trkpt>
      <trkpt lat="49.02986" lon="7.04966">
        <ele>225</ele>
        <time>2013-03-24T11:18:33Z</time>
      </trkpt>
      <trkpt lat="49.02985" lon="7.04952">
        <ele>222</ele>
        <time>2013-03-24T11:18:39Z</time>
      </trkpt>
      <trkpt lat="49.02984" lon="7.04939">
        <ele>221</ele>
        <time>2013-03-24T11:18:45Z</time>
      </trkpt>
      <trkpt lat="49.02983" lon="7.04925">
        <ele>220</ele>
        <time>2013-03-24T11:18:51Z</time>
      </trkpt>
      <trkpt lat="49.02982" lon="7.04912">
        <ele>218</ele>
        <time>2013-03-24T11:18:57Z</time>
      </trkpt>
      <trkpt lat="49.02981" lon="7.04899">
        <ele>215</ele>
        <time>2013-03-24T11:19:03Z</time>
      </trkpt>
      <trkpt lat="49.02977" lon="7.04886">
        <ele>215</ele>
        <time>2013-03-24T11:19:09Z</time>
      </trkpt>
      <trkpt lat="49.02972" lon="7.04872">
        <ele>215</ele>
        <time>2013-03-24T11:19:15Z</time>
      </trkpt>
      <trkpt lat="49.0297" lon="7.04858">
        <ele>215</ele>
        <time>2013-03-24T11:19:21Z</time>
      </trkpt>
      <trkpt lat="49.02967" lon="7.04845">
        <ele>214</ele>
        <time>2013-03-24T11:19:27Z</time>
      </trkpt>
      <trkpt lat="49.02964" lon="7.04831">
        <ele>214</ele>
        <time>2013-03-24T11:19:33Z</time>
      </trkpt>
      <trkpt lat="49.02961" lon="7.04817">
        <ele>214</ele>
        <time>2013-03-24T11:19:39Z</time>
      </trkpt>
      <trkpt lat="49.02956" lon="7.04805">
        <ele>214</ele>
        <time>2013-03-24T11:19:45Z</time>
      </trkpt>
      <trkpt lat="49.02953" lon="7.04791">
        <ele>214</ele>
        <time>2013-03-24T11:19:51Z</time>
      </trkpt>
      <trkpt lat="49.02949" lon="7.04777">
        <ele>214</ele>
        <time>2013-03-24T11:19:57Z</time>
      </trkpt>
      <trkpt lat="49.02947" lon="7.04763">
        <ele>214</ele>
        <time>2013-03-24T11:20:03Z</time>
      </trkpt>
      <trkpt lat="49.02942" lon="7.04749">
        <ele>214</ele>
        <time>2013-03-24T11:20:09Z</time>
      </trkpt>
      <trkpt lat="49.02939" lon="7.04734">
        <ele>214</ele>
        <time>2013-03-24T11:20:15Z</time>
      </trkpt>
      <trkpt lat="49.02937" lon="7.0472">
        <ele>214</ele>
        <time>2013-03-24T11:20:21Z</time>
      </trkpt>
      <trkpt lat="49.02935" lon="7.04707">
        <ele>214</ele>
        <time>2013-03-24T11:20:27Z</time>
      </trkpt>
      <trkpt lat="49.02931" lon="7.04694">
        <ele>214</ele>
        <time>2013-03-24T11:20:33Z</time>
      </trkpt>
      <trkpt lat="49.02923" lon="7.04687">
        <ele>214</ele>
        <time>2013-03-24T11:20:39Z</time>
      </trkpt>
      <trkpt lat="49.02915" lon="7.04685">
        <ele>214</ele>
        <time>2013-03-24T11:20:45Z</time>
      </trkpt>
      <trkpt lat="49.02907" lon="7.04685">
        <ele>213</ele>
        <time>2013-03-24T11:20:51Z</time>
      </trkpt>
      <trkpt lat="49.02899" lon="7.04689">
        <ele>212</ele>
        <time>2013-03-24T11:20:57Z</time>
      </trkpt>
      <trkpt lat="49.02891" lon="7.04691">
        <ele>210</ele>
        <time>2013-03-24T11:21:03Z</time>
      </trkpt>
      <trkpt lat="49.02882" lon="7.04693">
        <ele>210</ele>
        <time>2013-03-24T11:21:09Z</time>
      </trkpt>
      <trkpt lat="49.02874" lon="7.0469">
        <ele>210</ele>
        <time>2013-03-24T11:21:15Z</time>
      </trkpt>
      <trkpt lat="49.02873" lon="7.04676">
        <ele>210</ele>
        <time>2013-03-24T11:21:21Z</time>
      </trkpt>
      <trkpt lat="49.02873" lon="7.04662">
        <ele>210</ele>
        <time>2013-03-24T11:21:27Z</time>
      </trkpt>
      <trkpt lat="49.02877" lon="7.04653">
        <ele>210</ele>
        <time>2013-03-24T11:21:34Z</time>
      </trkpt>
      <trkpt lat="49.02883" lon="7.04641">
        <ele>210</ele>
        <time>2013-03-24T11:21:40Z</time>
      </trkpt>
      <trkpt lat="49.02891" lon="7.04632">
        <ele>210</ele>
        <time>2013-03-24T11:21:46Z</time>
      </trkpt>
      <trkpt lat="49.02899" lon="7.04624">
        <ele>210</ele>
        <time>2013-03-24T11:21:52Z</time>
      </trkpt>
      <trkpt lat="49.02906" lon="7.04615">
        <ele>211</ele>
        <time>2013-03-24T11:21:58Z</time>
      </trkpt>
      <trkpt lat="49.0291" lon="7.04603">
        <ele>211</ele>
        <time>2013-03-24T11:22:04Z</time>
      </trkpt>
      <trkpt lat="49.02911" lon="7.04589">
        <ele>211</ele>
        <time>2013-03-24T11:22:10Z</time>
      </trkpt>
      <trkpt lat="49.02908" lon="7.04576">
        <ele>211</ele>
        <time>2013-03-24T11:22:16Z</time>
      </trkpt>
      <trkpt lat="49.02905" lon="7.04562">
        <ele>211</ele>
        <time>2013-03-24T11:22:22Z</time>
      </trkpt>
      <trkpt lat="49.02901" lon="7.0455">
        <ele>211</ele>
        <time>2013-03-24T11:22:28Z</time>
      </trkpt>
      <trkpt lat="49.02898" lon="7.04539">
        <ele>211</ele>
        <time>2013-03-24T11:22:34Z</time>
      </trkpt>
      <trkpt lat="49.02894" lon="7.04527">
        <ele>211</ele>
        <time>2013-03-24T11:22:40Z</time>
      </trkpt>
      <trkpt lat="49.0289" lon="7.04516">
        <ele>211</ele>
        <time>2013-03-24T11:22:46Z</time>
      </trkpt>
      <trkpt lat="49.02887" lon="7.04504">
        <ele>211</ele>
        <time>2013-03-24T11:22:52Z</time>
      </trkpt>
      <trkpt lat="49.02885" lon="7.0449">
        <ele>211</ele>
        <time>2013-03-24T11:22:58Z</time>
      </trkpt>
      <trkpt lat="49.02884" lon="7.04475">
        <ele>211</ele>
        <time>2013-03-24T11:23:04Z</time>
      </trkpt>
      <trkpt lat="49.02882" lon="7.04462">
        <ele>211</ele>
        <time>2013-03-24T11:23:10Z</time>
      </trkpt>
      <trkpt lat="49.0288" lon="7.04449">
        <ele>211</ele>
        <time>2013-03-24T11:23:16Z</time>
      </trkpt>
      <trkpt lat="49.02877" lon="7.04436">
        <ele>211</ele>
        <time>2013-03-24T11:23:22Z</time>
      </trkpt>
      <trkpt lat="49.02875" lon="7.04423">
        <ele>211</ele>
        <time>2013-03-24T11:23:28Z</time>
      </trkpt>
      <trkpt lat="49.02872" lon="7.0441">
        <ele>211</ele>
        <time>2013-03-24T11:23:34Z</time>
      </trkpt>
      <trkpt lat="49.02869" lon="7.04397">
        <ele>211</ele>
        <time>2013-03-24T11:23:40Z</time>
      </trkpt>
      <trkpt lat="49.02865" lon="7.04384">
        <ele>211</ele>
        <time>2013-03-24T11:23:46Z</time>
      </trkpt>
      <trkpt lat="49.02862" lon="7.04371">
        <ele>211</ele>
        <time>2013-03-24T11:23:52Z</time>
      </trkpt>
      <trkpt lat="49.02859" lon="7.04359">
        <ele>211</ele>
        <time>2013-03-24T11:23:58Z</time>
      </trkpt>
      <trkpt lat="49.02856" lon="7.04346">
        <ele>211</ele>
        <time>2013-03-24T11:24:04Z</time>
      </trkpt>
      <trkpt lat="49.02853" lon="7.04333">
        <ele>211</ele>
        <time>2013-03-24T11:24:10Z</time>
      </trkpt>
      <trkpt lat="49.0285" lon="7.04321">
        <ele>211</ele>
        <time>2013-03-24T11:24:16Z</time>
      </trkpt>
      <trkpt lat="49.02849" lon="7.04305">
        <ele>211</ele>
        <time>2013-03-24T11:24:22Z</time>
      </trkpt>
      <trkpt lat="49.02847" lon="7.04291">
        <ele>211</ele>
        <time>2013-03-24T11:24:28Z</time>
      </trkpt>
      <trkpt lat="49.02845" lon="7.04278">
        <ele>211</ele>
        <time>2013-03-24T11:24:34Z</time>
      </trkpt>
      <trkpt lat="49.02842" lon="7.04265">
        <ele>211</ele>
        <time>2013-03-24T11:24:40Z</time>
      </trkpt>
      <trkpt lat="49.02839" lon="7.04252">
        <ele>211</ele>
        <time>2013-03-24T11:24:46Z</time>
      </trkpt>
      <trkpt lat="49.02836" lon="7.04238">
        <ele>211</ele>
        <time>2013-03-24T11:24:52Z</time>
      </trkpt>
      <trkpt lat="49.02833" lon="7.04225">
        <ele>211</ele>
        <time>2013-03-24T11:24:58Z</time>
      </trkpt>
      <trkpt lat="49.02831" lon="7.04213">
        <ele>211</ele>
        <time>2013-03-24T11:25:04Z</time>
      </trkpt>
      <trkpt lat="49.02828" lon="7.042">
        <ele>211</ele>
        <time>2013-03-24T11:25:10Z</time>
      </trkpt>
      <trkpt lat="49.02825" lon="7.04187">
        <ele>212</ele>
        <time>2013-03-24T11:25:16Z</time>
      </trkpt>
      <trkpt lat="49.02821" lon="7.04175">
        <ele>213</ele>
        <time>2013-03-24T11:25:22Z</time>
      </trkpt>
      <trkpt lat="49.02819" lon="7.04163">
        <ele>214</ele>
        <time>2013-03-24T11:25:28Z</time>
      </trkpt>
      <trkpt lat="49.02816" lon="7.04151">
        <ele>215</ele>
        <time>2013-03-24T11:25:34Z</time>
      </trkpt>
      <trkpt lat="49.02813" lon="7.04139">
        <ele>215</ele>
        <time>2013-03-24T11:25:40Z</time>
      </trkpt>
      <trkpt lat="49.0281" lon="7.04126">
        <ele>216</ele>
        <time>2013-03-24T11:25:46Z</time>
      </trkpt>
      <trkpt lat="49.02807" lon="7.04113">
        <ele>216</ele>
        <time>2013-03-24T11:25:52Z</time>
      </trkpt>
      <trkpt lat="49.02804" lon="7.041">
        <ele>216</ele>
        <time>2013-03-24T11:25:58Z</time>
      </trkpt>
      <trkpt lat="49.02802" lon="7.04086">
        <ele>217</ele>
        <time>2013-03-24T11:26:04Z</time>
      </trkpt>
      <trkpt lat="49.02799" lon="7.04074">
        <ele>218</ele>
        <time>2013-03-24T11:26:10Z</time>
      </trkpt>
      <trkpt lat="49.02797" lon="7.04061">
        <ele>219</ele>
        <time>2013-03-24T11:26:16Z</time>
      </trkpt>
      <trkpt lat="49.02795" lon="7.04049">
        <ele>221</ele>
        <time>2013-03-24T11:26:22Z</time>
      </trkpt>
      <trkpt lat="49.02792" lon="7.04036">
        <ele>221</ele>
        <time>2013-03-24T11:26:28Z</time>
      </trkpt>
      <trkpt lat="49.02791" lon="7.04024">
        <ele>222</ele>
        <time>2013-03-24T11:26:34Z</time>
      </trkpt>
      <trkpt lat="49.02788" lon="7.04012">
        <ele>222</ele>
        <time>2013-03-24T11:26:40Z</time>
      </trkpt>
      <trkpt lat="49.02786" lon="7.04">
        <ele>223</ele>
        <time>2013-03-24T11:26:46Z</time>
      </trkpt>
      <trkpt lat="49.02783" lon="7.03987">
        <ele>224</ele>
        <time>2013-03-24T11:26:52Z</time>
      </trkpt>
      <trkpt lat="49.0278" lon="7.03975">
        <ele>224</ele>
        <time>2013-03-24T11:26:58Z</time>
      </trkpt>
      <trkpt lat="49.02777" lon="7.03963">
        <ele>225</ele>
        <time>2013-03-24T11:27:04Z</time>
      </trkpt>
      <trkpt lat="49.02774" lon="7.0395">
        <ele>225</ele>
        <time>2013-03-24T11:27:10Z</time>
      </trkpt>
      <trkpt lat="49.02771" lon="7.03938">
        <ele>226</ele>
        <time>2013-03-24T11:27:16Z</time>
      </trkpt>
      <trkpt lat="49.02768" lon="7.03925">
        <ele>226</ele>
        <time>2013-03-24T11:27:22Z</time>
      </trkpt>
      <trkpt lat="49.02765" lon="7.03912">
        <ele>227</ele>
        <time>2013-03-24T11:27:28Z</time>
      </trkpt>
      <trkpt lat="49.02762" lon="7.039">
        <ele>227</ele>
        <time>2013-03-24T11:27:34Z</time>
      </trkpt>
      <trkpt lat="49.02758" lon="7.03887">
        <ele>228</ele>
        <time>2013-03-24T11:27:40Z</time>
      </trkpt>
      <trkpt lat="49.02755" lon="7.03874">
        <ele>228</ele>
        <time>2013-03-24T11:27:46Z</time>
      </trkpt>
      <trkpt lat="49.02752" lon="7.03861">
        <ele>229</ele>
        <time>2013-03-24T11:27:52Z</time>
      </trkpt>
      <trkpt lat="49.02749" lon="7.03848">
        <ele>229</ele>
        <time>2013-03-24T11:27:58Z</time>
      </trkpt>
      <trkpt lat="49.02747" lon="7.03836">
        <ele>229</ele>
        <time>2013-03-24T11:28:04Z</time>
      </trkpt>
      <trkpt lat="49.02743" lon="7.03824">
        <ele>229</ele>
        <time>2013-03-24T11:28:10Z</time>
      </trkpt>
      <trkpt lat="49.02739" lon="7.03812">
        <ele>230</ele>
        <time>2013-03-24T11:28:17Z</time>
      </trkpt>
      <trkpt lat="49.02735" lon="7.03801">
        <ele>230</ele>
        <time>2013-03-24T11:28:23Z</time>
      </trkpt>
      <trkpt lat="49.02732" lon="7.03789">
        <ele>230</ele>
        <time>2013-03-24T11:28:29Z</time>
      </trkpt>
      <trkpt lat="49.0273" lon="7.03776">
        <ele>230</ele>
        <time>2013-03-24T11:28:35Z</time>
      </trkpt>
      <trkpt lat="49.02727" lon="7.03763">
        <ele>230</ele>
        <time>2013-03-24T11:28:41Z</time>
      </trkpt>
      <trkpt lat="49.02726" lon="7.0375">
        <ele>230</ele>
        <time>2013-03-24T11:28:47Z</time>
      </trkpt>
      <trkpt lat="49.02723" lon="7.03738">
        <ele>230</ele>
        <time>2013-03-24T11:28:53Z</time>
      </trkpt>
      <trkpt lat="49.0272" lon="7.03725">
        <ele>230</ele>
        <time>2013-03-24T11:28:59Z</time>
      </trkpt>
      <trkpt lat="49.02718" lon="7.03713">
        <ele>230</ele>
        <time>2013-03-24T11:29:05Z</time>
      </trkpt>
      <trkpt lat="49.02715" lon="7.037">
        <ele>230</ele>
        <time>2013-03-24T11:29:11Z</time>
      </trkpt>
      <trkpt lat="49.02712" lon="7.03688">
        <ele>230</ele>
        <time>2013-03-24T11:29:17Z</time>
      </trkpt>
      <trkpt lat="49.0271" lon="7.03674">
        <ele>230</ele>
        <time>2013-03-24T11:29:23Z</time>
      </trkpt>
      <trkpt lat="49.02708" lon="7.03662">
        <ele>230</ele>
        <time>2013-03-24T11:29:29Z</time>
      </trkpt>
      <trkpt lat="49.02705" lon="7.03651">
        <ele>230</ele>
        <time>2013-03-24T11:29:35Z</time>
      </trkpt>
      <trkpt lat="49.02702" lon="7.03639">
        <ele>232</ele>
        <time>2013-03-24T11:29:41Z</time>
      </trkpt>
      <trkpt lat="49.02699" lon="7.03627">
        <ele>233</ele>
        <time>2013-03-24T11:29:47Z</time>
      </trkpt>
      <trkpt lat="49.02697" lon="7.03615">
        <ele>233</ele>
        <time>2013-03-24T11:29:53Z</time>
      </trkpt>
      <trkpt lat="49.02692" lon="7.03602">
        <ele>233</ele>
        <time>2013-03-24T11:30:00Z</time>
      </trkpt>
      <trkpt lat="49.02688" lon="7.03597">
        <ele>235</ele>
        <time>2013-03-24T11:30:06Z</time>
      </trkpt>
      <trkpt lat="49.0268" lon="7.0359">
        <ele>236</ele>
        <time>2013-03-24T11:30:12Z</time>
      </trkpt>
      <trkpt lat="49.0268" lon="7.03577">
        <ele>236</ele>
        <time>2013-03-24T11:30:18Z</time>
      </trkpt>
      <trkpt lat="49.02682" lon="7.03564">
        <ele>236</ele>
        <time>2013-03-24T11:30:24Z</time>
      </trkpt>
      <trkpt lat="49.0268" lon="7.03551">
        <ele>236</ele>
        <time>2013-03-24T11:30:30Z</time>
      </trkpt>
      <trkpt lat="49.02678" lon="7.03537">
        <ele>236</ele>
        <time>2013-03-24T11:30:36Z</time>
      </trkpt>
      <trkpt lat="49.02677" lon="7.03523">
        <ele>236</ele>
        <time>2013-03-24T11:30:42Z</time>
      </trkpt>
      <trkpt lat="49.02674" lon="7.0351">
        <ele>236</ele>
        <time>2013-03-24T11:30:48Z</time>
      </trkpt>
      <trkpt lat="49.02672" lon="7.03497">
        <ele>236</ele>
        <time>2013-03-24T11:30:54Z</time>
      </trkpt>
      <trkpt lat="49.02669" lon="7.03484">
        <ele>236</ele>
        <time>2013-03-24T11:31:00Z</time>
      </trkpt>
      <trkpt lat="49.02667" lon="7.03471">
        <ele>236</ele>
        <time>2013-03-24T11:31:06Z</time>
      </trkpt>
      <trkpt lat="49.02664" lon="7.03459">
        <ele>236</ele>
        <time>2013-03-24T11:31:12Z</time>
      </trkpt>
      <trkpt lat="49.02664" lon="7.03446">
        <ele>236</ele>
        <time>2013-03-24T11:31:18Z</time>
      </trkpt>
      <trkpt lat="49.02661" lon="7.03434">
        <ele>236</ele>
        <time>2013-03-24T11:31:24Z</time>
      </trkpt>
      <trkpt lat="49.0266" lon="7.03423">
        <ele>235</ele>
        <time>2013-03-24T11:31:30Z</time>
      </trkpt>
      <trkpt lat="49.02657" lon="7.03412">
        <ele>235</ele>
        <time>2013-03-24T11:31:36Z</time>
      </trkpt>
      <trkpt lat="49.02653" lon="7.03401">
        <ele>235</ele>
        <time>2013-03-24T11:31:42Z</time>
      </trkpt>
      <trkpt lat="49.02651" lon="7.03387">
        <ele>235</ele>
        <time>2013-03-24T11:31:48Z</time>
      </trkpt>
      <trkpt lat="49.02647" lon="7.03374">
        <ele>234</ele>
        <time>2013-03-24T11:31:54Z</time>
      </trkpt>
      <trkpt lat="49.02645" lon="7.03361">
        <ele>234</ele>
        <time>2013-03-24T11:32:00Z</time>
      </trkpt>
      <trkpt lat="49.02642" lon="7.03348">
        <ele>234</ele>
        <time>2013-03-24T11:32:06Z</time>
      </trkpt>
      <trkpt lat="49.02639" lon="7.03335">
        <ele>233</ele>
        <time>2013-03-24T11:32:12Z</time>
      </trkpt>
      <trkpt lat="49.02637" lon="7.03323">
        <ele>232</ele>
        <time>2013-03-24T11:32:18Z</time>
      </trkpt>
      <trkpt lat="49.02635" lon="7.0331">
        <ele>232</ele>
        <time>2013-03-24T11:32:24Z</time>
      </trkpt>
      <trkpt lat="49.02631" lon="7.03298">
        <ele>231</ele>
        <time>2013-03-24T11:32:30Z</time>
      </trkpt>
      <trkpt lat="49.02629" lon="7.03285">
        <ele>230</ele>
        <time>2013-03-24T11:32:36Z</time>
      </trkpt>
      <trkpt lat="49.02626" lon="7.03272">
        <ele>230</ele>
        <time>2013-03-24T11:32:42Z</time>
      </trkpt>
      <trkpt lat="49.02624" lon="7.03259">
        <ele>230</ele>
        <time>2013-03-24T11:32:48Z</time>
      </trkpt>
      <trkpt lat="49.02621" lon="7.03245">
        <ele>230</ele>
        <time>2013-03-24T11:32:54Z</time>
      </trkpt>
      <trkpt lat="49.02618" lon="7.03232">
        <ele>229</ele>
        <time>2013-03-24T11:33:00Z</time>
      </trkpt>
      <trkpt lat="49.02616" lon="7.03218">
        <ele>229</ele>
        <time>2013-03-24T11:33:06Z</time>
      </trkpt>
      <trkpt lat="49.02614" lon="7.03205">
        <ele>229</ele>
        <time>2013-03-24T11:33:12Z</time>
      </trkpt>
      <trkpt lat="49.02611" lon="7.03193">
        <ele>229</ele>
        <time>2013-03-24T11:33:18Z</time>
      </trkpt>
      <trkpt lat="49.02608" lon="7.03179">
        <ele>229</ele>
        <time>2013-03-24T11:33:24Z</time>
      </trkpt>
      <trkpt lat="49.02605" lon="7.03165">
        <ele>229</ele>
        <time>2013-03-24T11:33:30Z</time>
      </trkpt>
      <trkpt lat="49.02602" lon="7.03152">
        <ele>229</ele>
        <time>2013-03-24T11:33:36Z</time>
      </trkpt>
      <trkpt lat="49.026" lon="7.0314">
        <ele>229</ele>
        <time>2013-03-24T11:33:42Z</time>
      </trkpt>
      <trkpt lat="49.02597" lon="7.03128">
        <ele>229</ele>
        <time>2013-03-24T11:33:48Z</time>
      </trkpt>
      <trkpt lat="49.02592" lon="7.03117">
        <ele>229</ele>
        <time>2013-03-24T11:33:55Z</time>
      </trkpt>
      <trkpt lat="49.02588" lon="7.03106">
        <ele>229</ele>
        <time>2013-03-24T11:34:01Z</time>
      </trkpt>
      <trkpt lat="49.02586" lon="7.03093">
        <ele>229</ele>
        <time>2013-03-24T11:34:07Z</time>
      </trkpt>
      <trkpt lat="49.02583" lon="7.03081">
        <ele>229</ele>
        <time>2013-03-24T11:34:13Z</time>
      </trkpt>
      <trkpt lat="49.0258" lon="7.03069">
        <ele>229</ele>
        <time>2013-03-24T11:34:19Z</time>
      </trkpt>
      <trkpt lat="49.02578" lon="7.03061">
        <ele>229</ele>
        <time>2013-03-24T11:34:29Z</time>
      </trkpt>
    </trkseg>
  </trk>
</gpx>